     2.11           OBSERVATION DATA    G (GPS)             RINEX VERSION / TYPE
teqc 2010Oct21 OPUS Account 20111027 19:06:43UTC            PGM / RUN BY / DATE
Q 1525                                                      MARKER NAME
3023                                                        MARKER NUMBER
CSMIDDLETON NGS                                             OBSERVER / AGENCY
4820152812 TRIMBLE R7 2.32                                  REC # / TYPE / VERS
60244996 TRM41249.00 NONE                                   ANT # / TYPE
  -761514.9490 -5552547.4178  3034588.6255                  APPROX POSITION XYZ
        2.0030        0.0000        0.0000                  ANTENNA: DELTA H/E/N
     1     1                                                WAVELENGTH FACT L1/2
     5    L1    L2    C1    P1    P2                        # / TYPES OF OBSERV
    15                                                      LEAP SECONDS
  2011     8    19    13    58   30.0000000     GPS         TIME OF FIRST OBS
                                                            END OF HEADER
 11  8 19 13 58 30.0000000  0  8G03G06G13G16G20G23G31G32
   -222265.66857   -166649.39554  22657474.5864                   22657472.5554
    -85368.96957    -63993.09454  22812155.7814                   22812152.7154
   -213112.41857   -155324.21154  22921295.6954                   22921292.6604
    250120.08657    187584.83256  20036772.9694                   20036768.8094
    441247.82458    330466.03956  21001106.2584                   21001102.4064
   -113010.24258    -85317.35556  21115721.7974                   21115716.3834
    624736.84456    467031.30554  23960404.0704                   23960401.4574
    597702.55957    448692.28156  21431453.8594                   21431450.8794
 11  8 19 13 59  0.0000000  0  8G03G06G13G16G20G23G31G32
   -262539.66847   -198031.71144  22649810.7344                   22649808.3914
   -100303.02346    -75630.00444  22809313.1804                   22809310.7154
   -252214.71547   -185793.50844  22913854.8674                   22913851.4734
    297482.96547    224490.96946  20045785.8834                   20045782.2424
    523075.43447    394227.78546  21016677.3674                   21016673.7114
   -133195.04348   -101045.77346  21111880.8054                   21111874.9144
    738073.71547    555345.70744  23981971.8444                   23981968.8634
    707726.97347    534425.56346  21452390.7974                   21452388.0784
 11  8 19 13 59 30.0000000  0  8G03G06G13G16G20G23G31G32
   -302640.62547   -229279.19144  22642179.8134                   22642177.6174
   -114950.39147    -87043.53944  22806525.2974                   22806523.5744
   -291273.27747   -216228.71944  22906421.6094                   22906418.5004
    345482.83647    261893.46946  20054919.7504                   20054915.6804
    605453.33648    458418.34046  21032353.0234                   21032349.3554
   -153162.36348   -116604.71546  21108081.3444                   21108075.7624
    851381.82446    643637.65244  24003532.8914                   24003529.9574
    818172.82847    620487.23446  21473407.6484                   21473405.2114
 11  8 19 14  0  0.0000000  0  8G03G06G13G16G20G23G31G32
   -342563.65647   -260388.02744  22634582.2194                   22634580.4804
   -129306.72747    -98230.28944  22803793.8364                   22803792.0394
   -330284.80947   -246627.27344  22898998.0164                   22898995.8204
    394120.17248    299792.69146  20064175.1724                   20064170.9144
    688381.30148    523037.50446  21048133.7584                   21048130.1414
   -172908.33648   -131991.18046  21104323.6254                   21104318.1684
    964662.09846    731907.94143  24025088.8754                   24025086.5354
    929039.11347    706876.51646  21494504.9844                   21494502.6024
 11  8 19 14  0 30.0000000  0  8G03G06G13G16G20G23G31G32
   -382312.83647   -291361.38344  22627018.4534                   22627016.1804
   -143376.56647   -109193.78144  22801116.4304                   22801114.0554
   -369255.16847   -276993.76644  22891582.2974                   22891579.9024
    443387.32047    338182.67646  20073550.5234                   20073546.1564
    771850.75048    588078.61346  21064017.6484                   21064013.6294
   -192438.26248   -147209.29746  21100607.1804                   21100601.5474
   1077907.44947    820151.04344  24046639.7424                   24046637.2384
   1040316.71547    793586.30945  21515680.4384                   21515677.8984
 11  8 19 14  1  0.0000000  0  8G03G06G13G16G20G23G31G32
   -421896.05147   -322205.42244  22619486.2734                   22619484.0514
   -157167.79747   -119940.20344  22798491.9304                   22798490.4774
   -408193.94947   -307335.65244  22884173.0314                   22884170.2814
    493272.32848    377054.10246  20083043.1804                   20083038.8164
    855848.34447    653531.24646  21080001.6804                   21079998.3834
   -211761.12948   -162266.07446  21096930.4844                   21096924.7584
   1191106.60946    908358.11744  24068181.5234                   24068178.4964
   1151992.27047    880606.19946  21536931.3054                   21536929.1334
 11  8 19 14  1 30.0000000  0  8G03G06G13G16G20G23G31G32
   -461314.07847   -352920.73044  22611985.1334                   22611982.6764
   -170681.46147   -130470.32844  22795920.9454                   22795918.8094
   -447103.86347   -337655.01644  22876768.8284                   22876765.6954
    543770.49648    416403.32446  20092652.8754                   20092649.1174
    940367.97347    719390.66446  21096085.3674                   21096081.7814
   -230878.61748   -177162.80546  21093292.0704                   21093286.9064
   1304255.71946    996526.17644  24089713.0234                   24089709.7584
   1264059.77047    967931.48046  21558257.2114                   21558255.1294
 11  8 19 14  2  0.0000000  0  8G03G06G13G16G20G23G31G32
   -500566.28947   -383506.84845  22604515.4384                   22604513.6524
   -183918.00447   -140784.50444  22793402.0474                   22793400.1214
   -485985.94947   -367952.71144  22869369.4844                   22869366.0984
    594877.87948    456227.25046  20102377.9224                   20102374.1484
   1025405.19948    785653.41046  21112267.5314                   21112264.2034
   -249791.63348   -191900.22346  21089692.9614                   21089687.5314
   1417351.48047   1084652.66843  24111233.9614                   24111230.9104
   1376514.02747   1055558.14845  21579656.4144                   21579653.6804
 11  8 19 14  2 30.0000000  0  8G03G06G13G16G20G23G31G32
   -539657.33647   -413967.39145  22597077.1884                   22597074.9104
   -196881.82447   -150886.16044  22790935.0394                   22790932.9304
   -524846.35547   -398233.52744  22861974.0864                   22861971.4304
    646586.13747    496519.40246  20112218.0164                   20112213.4574
   1110950.86347    852312.34446  21128546.2194                   21128542.5984
   -268505.23048   -206482.23846  21086132.2894                   21086126.5234
   1530386.45346   1172731.80144  24132743.7114                   24132740.2734
   1489345.18847   1143478.50846  21601127.5004                   21601125.3954
 11  8 19 14  3  0.0000000  0  8G03G06G13G16G20G23G31G32
   -578586.64147   -444301.87944  22589668.2114                   22589666.6604
   -209572.41447   -160774.90244  22788519.8134                   22788517.7584
   -563686.14547   -428498.26244  22854583.3364                   22854580.6804
    698892.10548    537277.29346  20122171.4144                   20122167.1994
   1197000.45748    919363.95746  21144921.0944                   21144917.8714
   -287019.94948   -220909.28946  21082609.0394                   21082603.4264
   1643358.14847   1260761.65244  24154242.0164                   24154238.4924
   1602548.66848   1231688.98045  21622669.4384                   21622667.0944
 11  8 19 14  3 30.0000000  0  8G03G06G13G16G20G23G31G32
   -617347.50847   -474505.12144  22582293.1254                   22582291.2734
   -221984.18047   -170446.38744  22786158.2034                   22786156.1564
   -602500.67247   -458743.31644  22847197.0704                   22847194.0044
    751797.68447    578502.41847  20132239.1644                   20132235.0124
   1283555.08648    986809.09846  21161391.8834                   21161388.6994
   -305330.64148   -235177.35246  21079124.7664                   21079119.0784
   1756269.37547   1348744.35944  24175728.4924                   24175725.9774
   1716125.32847   1320190.23446  21644282.7424                   21644280.0234
 11  8 19 14  4  0.0000000  0  8G03G06G13G16G20G23G31G32
   -655942.00447   -504578.74244  22574948.8054                   22574946.0434
   -234119.28547   -179902.27044  22783849.4384                   22783846.8634
   -641293.41846   -488971.39844  22839815.0784                   22839811.8834
    805296.85947    620190.08246  20142419.8284                   20142415.4024
   1370608.00448   1054642.52346  21177957.5004                   21177954.1604
   -323439.98848   -249288.52746  21075678.2114                   21075673.1454
   1869115.14547   1436676.02744  24197202.4144                   24197199.9414
   1830067.67248   1408976.44546  21665965.2194                   21665962.9264
 11  8 19 14  4 30.0000000  0  8G03G06G13G16G20G23G31G32
   -694370.85247   -534523.31645  22567635.8364                   22567632.7504
   -245978.76647   -189143.39144  22781592.1804                   22781589.7344
   -680066.88347   -519184.44944  22832436.9224                   22832433.8444
    859384.78548    662336.51246  20152712.1724                   20152707.8594
   1458153.13348   1122859.48046  21194616.5554                   21194613.0274
   -341349.69548   -263244.13346  21072270.3054                   21072264.4454
   1981891.25447   1524553.45744  24218662.9224                   24218661.1214
   1944369.54748   1498042.82445  21687716.2424                   21687713.4534
 11  8 19 14  5  0.0000000  0  8G03G06G13G16G20G23G31G32
   -732622.72747   -564329.94544  22560356.5234                   22560354.2344
   -257551.93447   -198161.38344  22779389.5554                   22779387.2624
   -718811.27047   -549374.86744  22825063.6254                   22825060.6024
    914069.02347    704947.60946  20163118.0944                   20163113.7464
   1546196.35947   1191464.57046  21211370.8444                   21211367.3204
   -359049.98448   -277036.55146  21068901.9224                   21068896.5044
   2094605.87147   1612382.96944  24240112.1804                   24240109.5434
   2059036.85248   1587393.94546  21709536.5234                   21709534.1994
 11  8 19 14  5 30.0000000  0  8G03G06G13G16G20G23G31G32
   -770697.78947   -593998.81244  22553111.1884                   22553108.3444
   -268839.22747   -206956.67244  22777241.8914                   22777239.3524
   -757528.29747   -579543.95744  22817695.9694                   22817693.2734
    969344.41048    748019.33646  20173636.7034                   20173632.6094
   1634732.59448   1260453.81646  21228218.8364                   21228215.5474
   -376541.75848   -290666.51646  21065573.3984                   21065567.9344
   2207255.23446   1700161.62144  24261547.7194                   24261545.6414
   2174063.75048   1677025.25846  21731425.4614                   21731422.8714
 11  8 19 14  6  0.0000000  0  8G03G06G13G16G20G23G31G32
   -808594.16047   -623528.43745  22545899.5634                   22545897.1094
   -279838.98047   -215527.88744  22775148.7194                   22775146.8484
   -796217.58247   -609691.42244  22810333.8054                   22810330.8324
   1025208.93848    791550.13746  20184267.0944                   20184263.0204
   1723758.65647   1329824.74646  21245159.7974                   21245156.2814
   -393823.88348   -304133.10546  21062284.8364                   21062278.8984
   2319838.53547   1787888.78143  24282972.7114                   24282969.3674
   2289446.82848   1766934.11745  21753382.0314                   21753379.7304
 11  8 19 14  6 30.0000000  0  8G03G06G13G16G20G23G31G32
   -846308.14547   -652915.94544  22538722.7114                   22538720.1764
   -290548.28147   -223872.75045  22773111.0164                   22773109.0904
   -834877.32047   -639815.87944  22802977.3134                   22802973.8404
   1081661.89847    835539.45746  20195009.8054                   20195005.5434
   1813272.68848   1399575.91846  21262193.5394                   21262190.1644
   -410894.06648   -317434.55946  21059036.4224                   21059030.8984
   2432355.77046   1875564.39844  24304382.5474                   24304379.6724
   2405183.89147   1857118.81645  21775406.3524                   21775403.6914
 11  8 19 14  7  0.0000000  0  8G03G06G13G16G20G23G31G32
   -883841.18447   -682162.45744  22531580.8364                   22531578.2774
   -300969.09447   -231992.85244  22771127.7424                   22771126.1914
   -873510.81647   -669919.87144  22795625.8834                   22795622.1724
   1138697.59848    879982.85246  20205863.6724                   20205859.1994
   1903267.87948   1469702.01246  21279319.5474                   21279316.0204
   -427754.94948   -330572.92246  21055827.5944                   21055822.5084
   2544802.09847   1963184.82444  24325780.8674                   24325778.9694
   2521268.03148   1947573.96145  21797496.4304                   21797494.0274
 11  8 19 14  7 30.0000000  0  8G03G06G13G16G20G23G31G32
   -921180.78947   -711258.24644  22524475.0234                   22524472.4534
   -311089.05947   -239878.52044  22769201.6884                   22769199.8444
   -912106.85947   -699994.70744  22788280.8754                   22788277.9144
   1196323.80148    924886.37546  20216829.4774                   20216825.4694
   1993751.77748   1540208.91446  21296538.0864                   21296534.4144
   -444394.72348   -343538.98046  21052661.2664                   21052655.9774
   2657186.84446   2050757.28143  24347167.4144                   24347165.0274
   2637706.37548   2038305.10945  21819653.5164                   21819651.5354
 11  8 19 14  8  0.0000000  0  8G03G06G13G16G20G23G31G32
   -958323.50447   -740200.63344  22517407.1644                   22517404.3954
   -320905.39547   -247527.61344  22767334.2114                   22767331.9454
   -950663.52047   -730038.82844  22780944.2424                   22780940.9614
   1254539.85948    970249.52046  20227907.8134                   20227903.4924
   2084722.39548   1611095.07046  21313849.7424                   21313846.1134
   -460810.87948   -356330.78146  21049537.2194                   21049532.2344
   2769510.49646   2138282.14143  24368541.3284                   24368539.0514
   2754496.56648   2129310.42245  21841878.2814                   21841875.5164
 11  8 19 14  8 30.0000000  0  8G03G06G13G16G20G23G31G32
   -995273.25047   -768992.62945  22510376.1174                   22510373.3134
   -330422.41047   -254943.46144  22765522.8444                   22765520.4384
   -989186.35247   -760056.59844  22773612.8054                   22773610.3204
   1313337.56648   1016065.90646  20239096.4454                   20239092.1684
   2176170.35548   1682353.19146  21331251.2344                   21331247.4344
   -477008.44548   -368952.26246  21046455.0784                   21046450.0274
   2881765.83246   2225753.77344  24389903.3284                   24389900.7304
   2871629.23048   2220582.58645  21864167.8914                   21864165.1844
 11  8 19 14  9  0.0000000  0  8G03G06G13G16G20G23G31G32
  -1032023.45747   -797629.15245  22503382.7114                   22503379.9024
   -339633.96547   -262121.27745  22763770.3524                   22763768.0044
  -1027670.65647   -790044.35244  22766289.6484                   22766286.4964
   1372718.92248   1062337.08246  20250396.3134                   20250392.0274
   2268097.14548   1753984.44146  21348744.1334                   21348740.6564
   -492981.94148   -381399.13346  21043415.4924                   21043410.2814
   2993955.84447   2313174.46144  24411252.9454                   24411250.1684
   2989105.37548   2312122.40645  21886522.6804                   21886520.5084
 11  8 19 14  9 30.0000000  0  8G03G06G13G16G20G23G31G32
  -1068560.64847   -826099.67245  22496429.7344                   22496427.4614
   -348527.03147   -269050.91844  22762077.9224                   22762075.7774
  -1066104.09847   -819992.47344  22758975.4614                   22758972.7384
   1432693.04348   1109070.15646  20261809.2424                   20261804.8954
   2360511.01648   1825995.21946  21366330.1884                   21366326.3834
   -508718.74248   -393661.58246  21040420.8834                   21040415.3484
   3106091.11747   2400552.52744  24432591.1724                   24432589.0354
   3106932.68448   2403935.86345  21908944.8364                   21908942.2734
 11  8 19 14 10  0.0000000  0  8G03G06G13G16G20G23G31G32
  -1104895.34447   -854412.40245  22489515.6024                   22489512.5864
   -357112.62547   -275740.98444  22760444.0314                   22760441.8594
  -1104498.57047   -849910.22344  22751669.7504                   22751666.6564
   1493245.11348   1156253.57846  20273331.5784                   20273327.4804
   2453395.79748   1898372.93446  21384005.7274                   21384002.2464
   -524230.37148   -405748.56646  21037469.3594                   21037463.6564
   3218158.13746   2487877.37144  24453917.1174                   24453915.1024
   3225095.49648   2496010.73845  21931430.3444                   21931427.9774
 11  8 19 14 10 30.0000000  0  8G03G06G13G16G20G23G31G32
  -1141018.21947   -882560.08245  22482641.5634                   22482638.0784
   -365382.09447   -282184.71945  22758870.2274                   22758868.2234
  -1142846.81647   -879791.96144  22744372.5004                   22744369.6254
   1554379.75448   1203890.95747  20284965.4304                   20284961.3094
   2546755.48848   1971120.72346  21401771.1724                   21401767.8984
   -539509.03148   -417654.02346  21034561.3524                   21034556.4064
   3330162.51246   2575153.48044  24475230.0474                   24475228.9534
   3343596.80148   2588349.38745  21953980.5704                   21953978.1604
 11  8 19 14 11  0.0000000  0  8G03G06G13G16G20G23G31G32
  -1176925.62147   -910539.86344  22475808.4454                   22475805.5514
   -373332.15647   -288379.55145  22757357.5784                   22757355.0594
  -1181146.69547   -909635.99644  22737083.8444                   22737081.5474
   1616095.94147   1251981.49246  20296709.6724                   20296705.2704
   2640588.14548   2044237.05946  21419626.8444                   21419623.4184
   -554551.55548   -429375.46146  21031699.0864                   21031693.7234
   3442104.96146   2662381.24644  24496532.3594                   24496530.7424
   3462434.91448   2680950.47745  21976594.8914                   21976592.3674
 11  8 19 14 11 30.0000000  0  8G03G06G13G16G20G23G31G32
  -1212611.00447   -938346.64844  22469018.5864                   22469014.6294
   -380956.97747   -294320.96944  22755906.2894                   22755903.7154
  -1219393.18747   -939438.42244  22729805.4224                   22729803.4884
   1678395.58248   1300526.66446  20308564.6954                   20308560.5164
   2734894.75048   2117722.69546  21437573.1484                   21437569.3244
   -569352.53548   -440908.69146  21028882.5864                   21028877.2384
   3553988.62146   2749563.27044  24517824.1094                   24517820.9224
   3581610.52048   2773814.54345  21999273.2424                   21999270.3364
 11  8 19 14 12  0.0000000  0  8G03G06G13G16G20G23G31G32
  -1248073.33247   -965979.60544  22462269.9384                   22462266.8554
   -388256.02347   -300008.52345  22754517.1094                   22754514.6954
  -1257586.65247   -969199.54744  22722538.0004                   22722535.2504
   1741275.09048   1349523.69146  20320530.3674                   20320526.0824
   2829670.43047   2191573.85946  21455608.1884                   21455604.9064
   -583911.74648   -452253.52746  21026112.3594                   21026106.7384
   3665811.22746   2836697.68844  24539102.3284                   24539100.5864
   3701119.33248   2866938.26245  22022014.8524                   22022012.4844
 11  8 19 14 12 30.0000000  0  9G03G06G13G16G20G23G31G32G19
  -1283309.25447   -993436.14145  22455564.2974                   22455562.4104
   -395226.62947   -305440.16045  22753191.2664                   22753188.2304
  -1295725.10547   -998917.81245  22715280.7194                   22715277.4064
   1804733.39148   1398971.72346  20332606.0704                   20332601.8204
   2924914.16448   2265789.71546  21473732.2584                   21473728.6994
   -598227.11748   -463408.36346  21023388.0004                   21023382.5004
   3777573.02046   2923784.75444  24560370.3524                   24560368.7974
   3820958.55148   2960319.42645  22044819.6024                   22044817.1094
    -54830.65255     -1851.84852  24678368.8524                   24678367.2344
 11  8 19 14 13  0.0000000  0 10G03G06G13G16G20G23G31G32G19G07
  -1318322.59847  -1020719.21545  22448901.8444                   22448899.2584
   -401872.71547   -310618.93444  22751926.1334                   22751923.9804
  -1333813.87947  -1028597.35544  22708032.4304                   22708029.1174
   1868762.43448   1448864.47746  20344790.4224                   20344786.1644
   3020616.40248   2340362.86746  21491943.9924                   21491940.2814
   -612303.23448   -474376.77346  21020709.3524                   21020703.8874
   3889267.44946   3010819.25844  24581624.4614                   24581623.7194
   3941119.24648   3053951.10245  22067685.7424                   22067682.9654
    -97279.40246    -34928.75043  24670292.0944                   24670288.6254
    -20404.74656    -12858.30953  24917910.6564                   24917907.8754
 11  8 19 14 13 30.0000000  0 10G03G06G13G16G20G23G31G32G19G07
  -1353104.57447  -1047822.02045  22442282.6954                   22442279.6254
   -408186.23847   -315538.58644  22750725.0164                   22750722.3954
  -1371846.02347  -1058232.77744  22700795.2034                   22700791.9224
   1933365.85548   1499204.80546  20357084.0474                   20357080.1334
   3116780.21548   2415295.68446  21510243.5004                   21510239.9804
   -626132.16848   -485152.57046  21018077.7584                   21018072.2814
   4000899.71947   3097805.33644  24602868.1254                   24602865.5434
   4061604.24248   3147835.47345  22090613.0634                   22090610.3794
   -139855.55546    -68104.96143  24662190.4454                   24662186.8444
    -36195.75846    -25163.02743  24914906.0704                   24914902.7544
 11  8 19 14 14  0.0000000  0 10G03G06G13G16G20G23G31G32G19G07
  -1387660.64547  -1074748.79345  22435706.5634                   22435703.8914
   -414173.00047   -320203.60244  22749585.7814                   22749583.2584
  -1409827.61347  -1087828.79744  22693567.3364                   22693564.4494
   1998533.87548   1549985.06346  20369484.8674                   20369480.6024
   3213394.75447   2490579.70746  21528628.5234                   21528625.5984
   -639720.52748   -495740.91046  21015492.3204                   21015486.3714
   4112461.37547   3184736.43443  24624098.1024                   24624095.4104
   4182402.70348   3241964.10245  22113599.8754                   22113597.6914
   -182565.40246   -101385.35244  24654062.5474                   24654058.7734
    -51924.34846    -37418.99643  24911912.4304                   24911910.3714
 11  8 19 14 14 30.0000000  0 10G03G06G13G16G20G23G31G32G19G07
  -1421990.96147  -1101499.65645  22429174.1484                   22429171.4654
   -419833.85547   -324614.67645  22748508.0784                   22748505.6414
  -1447760.86347  -1117387.15245  22686348.7814                   22686346.1024
   2064261.64548   1601201.48846  20381992.7504                   20381988.5234
   3310454.20748   2566210.40646  21547098.0944                   21547095.0984
   -653069.14548   -506142.44146  21012951.7114                   21012946.2584
   4223949.21147   3271610.10943  24645313.5634                   24645309.7504
   4303508.54748   3336332.26245  22136645.9924                   22136643.9534
   -225409.79347   -134770.60544  24645909.5474                   24645905.8754
    -67594.40246    -49629.41843  24908930.5704                   24908928.0744
 11  8 19 14 15  0.0000000  0 10G03G06G13G16G20G23G31G32G19G07
  -1456089.74647  -1128070.10245  22422685.2274                   22422682.7424
   -425163.91847   -328767.98845  22747493.8134                   22747491.7934
  -1485641.30547  -1146904.37144  22679140.3284                   22679137.5164
   2130549.83248   1652854.61346  20394606.8754                   20394602.7734
   3407958.75847   2642187.94546  21565652.3984                   21565649.4964
   -666173.50448   -516353.64146  21010458.4064                   21010453.1454
   4335365.62947   3358428.13344  24666515.0634                   24666512.2424
   4424921.44548   3430939.67645  22159749.8594                   22159747.5864
   -268383.94347   -168256.96044  24637731.8364                   24637728.0434
    -83204.51246    -61793.16043  24905961.2114                   24905958.0084
 11  8 19 14 15 30.0000000  0 10G03G06G13G16G20G23G31G32G19G07
  -3065369.44147  -2382054.24245  22116449.3984                   22116446.7854
  -2005575.03947  -1560257.18745  22446752.0394                   22446749.5234
  -3098882.90647  -2403975.70745  22372150.7814                   22372148.1094
    621984.74648    477349.34046  20107536.7034                   20107532.5204
   1930494.78147   1490917.29346  21284500.9384                   21284497.6764
  -2254446.31248  -1753968.80146  20708220.0084                   20708214.8134
   2871299.88747   2217597.60244  24387913.0474                   24387910.9414
   2971228.84848   2298192.14145  21883121.6024                   21883119.4264
  -1886900.83246  -1429438.93744  24329738.2194                   24329734.0864
  -1674170.19946  -1301506.62943  24603209.8364                   24603207.1684
 11  8 19 14 16  0.0000000  0 10G03G06G13G16G20G23G31G32G19G07
  -3098991.60247  -2408253.28545  22110051.3054                   22110049.0594
  -2010231.23847  -1563885.42245  22445866.0164                   22445863.6054
  -3136648.52347  -2433403.43044  22364964.3834                   22364961.3594
    689393.69148    529875.76646  20120363.8134                   20120359.5234
   2028886.51648   1567586.13746  21303224.2504                   21303220.5824
  -2267051.53948  -1763791.05146  20705821.2424                   20705815.4454
   2982577.60246   2304307.45344  24409088.1174                   24409086.7814
   3093252.87148   2393275.76245  21906341.5004                   21906339.7544
  -1930122.42246  -1463118.03944  24321513.1724                   24321508.6884
  -1689657.89146  -1313574.96943  24600261.7974                   24600260.1094
 11  8 19 14 16 30.0000000  0 10G03G06G13G16G20G23G31G32G19G07
  -3132360.96147  -2434255.35545  22103701.4774                   22103698.6644
  -2014537.14847  -1567240.69545  22445046.7504                   22445044.3794
  -3174344.77047  -2462777.09044  22357791.1884                   22357787.9454
    757369.62948    582844.01246  20133299.2894                   20133294.7974
   2127727.87947   1644605.35546  21322033.3054                   21322029.5784
  -2279394.12948  -1773408.65646  20703472.4614                   20703467.1174
   3093795.86747   2390970.97743  24430252.0634                   24430249.4694
   3215588.19248   2488601.94045  21929621.2114                   21929619.3404
  -1973454.35946  -1496883.15244  24313267.0314                   24313263.4264
  -1705075.57846  -1325588.76243  24597328.9694                   24597326.0744
 11  8 19 14 17  0.0000000  0 10G03G06G13G16G20G23G31G32G19G07
  -3165486.44148  -2460067.40245  22097397.2664                   22097395.1884
  -2018501.79747  -1570330.05145  22444291.8674                   22444289.8524
  -3211981.05147  -2492104.02044  22350628.9384                   22350625.6764
    825899.81648    636244.14546  20146340.1954                   20146336.2074
   2227004.50848   1721963.74246  21340924.9304                   21340921.1134
  -2291483.66048  -1782829.05946  20701172.1334                   20701166.1724
   3204942.71146   2477578.89543  24451402.2814                   24451400.6564
   3338220.39848   2584159.45745  21952957.7114                   21952955.1994
  -2016905.85246  -1530741.40244  24304999.0084                   24304995.5164
  -1720435.77746  -1337557.75443  24594405.0474                   24594403.6684
 11  8 19 14 17 30.0000000  0 10G03G06G13G16G20G23G31G32G19G07
  -3198360.95347  -2485683.89545  22091141.8204                   22091139.6454
  -2022119.11347  -1573148.74245  22443603.7664                   22443601.6684
  -3249552.26647  -2521380.25045  22343479.2034                   22343476.5004
    894986.33248    690077.78146  20159486.9774                   20159482.7854
   2326717.91448   1799662.46945  21359899.5704                   21359896.0984
  -2303314.21548  -1792047.68046  20698920.6564                   20698914.9804
   3316022.09847   2564134.26243  24472541.2504                   24472537.4964
   3461150.82048   2679949.34445  21976350.5784                   21976348.3244
  -2060470.46946  -1564687.80944  24296708.9064                   24296705.3014
  -1735734.80546  -1349479.06243  24591493.9144                   24591492.0944
 11  8 19 14 18  0.0000000  0 10G03G06G13G16G20G23G31G32G19G07
  -3230976.23848  -2511098.39845  22084935.4144                   22084932.9694
  -2025381.50047  -1575690.87545  22442983.4304                   22442980.9964
  -3287051.68747  -2550600.53944  22336342.8284                   22336340.2074
    964632.28948    744347.34446  20172740.3204                   20172735.7894
   2426870.41448   1877703.34846  21378958.0554                   21378954.6684
  -2314878.63748  -1801058.90246  20696720.2424                   20696714.6294
   3427038.91846   2650640.81343  24493666.9454                   24493664.1334
   3584381.59448   2775973.29745  21999800.6254                   21999798.1024
  -2104140.55546  -1598716.41043  24288398.3284                   24288395.3794
  -1750968.71946  -1361349.65243  24588595.0394                   24588593.4964
 11  8 19 14 18 30.0000000  0 10G03G06G13G16G20G23G31G32G19G07
  -3263331.33647  -2536310.16045  22078778.2504                   22078775.9304
  -2028288.82447  -1577956.33645  22442429.4224                   22442427.4574
  -3324479.61347  -2579765.11744  22329220.9454                   22329218.1684
   1034833.60548    799049.65646  20186099.0944                   20186094.5164
   2527457.03547   1956082.51246  21398099.0944                   21398095.3834
  -2326176.72748  -1809862.61346  20694570.1254                   20694564.7344
   3537991.00045   2737096.89143  24514779.2424                   24514777.7464
   3707908.01248   2872227.59445  22023306.8754                   22023304.7464
  -2147916.18746  -1632827.31643  24280069.1334                   24280064.4224
  -1766140.76246  -1373172.02344  24585707.8364                   24585706.3714
 11  8 19 14 19  0.0000000  0 10G03G06G13G16G20G23G31G32G19G07
  -3295426.33247  -2561319.24645  22072670.3914                   22072668.1134
  -2030841.65247  -1579945.57045  22441944.3754                   22441941.7504
  -3361837.50447  -2608875.14544  22322112.0944                   22322108.8674
   1105585.70348    854181.15646  20199562.6414                   20199558.3444
   2628472.32048   2034795.68845  21417322.1174                   21417318.3714
  -2337209.89848  -1818459.89146  20692470.6024                   20692465.0944
   3648875.32845   2823500.10543  24535879.2274                   24535878.4734
   3831724.14548   2968707.65245  22046868.5704                   22046865.9964
  -2191797.93046  -1667020.81643  24271717.8204                   24271714.2034
  -1781254.09046  -1384948.65643  24582831.0944                   24582830.6214
 11  8 19 14 19 30.0000000  0 10G03G06G13G16G20G23G31G32G19G07
  -3327253.40247  -2586119.54745  22066614.2344                   22066612.3164
  -2033032.87547  -1581653.01645  22441526.5314                   22441524.7734
  -3399118.57847  -2637925.30945  22315017.6884                   22315014.8554
   1176891.37148    909744.00846  20213131.8284                   20213127.5234
   2729918.72748   2113844.80146  21436625.9144                   21436622.7774
  -2347970.62548  -1826844.86346  20690422.9844                   20690416.8134
   3759696.85245   2909854.44143  24556968.5314                   24556967.2194
   3955832.28548   3065415.25445  22070485.8134                   22070483.3634
  -2235778.05146  -1701291.07443  24263348.9304                   24263344.9304
  -1796304.68046  -1396676.38343  24579967.6484                   24579966.8754
 11  8 19 14 20  0.0000000  0 10G03G06G13G16G20G23G31G32G19G07
  -3358808.34048  -2610707.81245  22060609.4924                   22060607.3714
  -2034858.59447  -1583075.67245  22441179.2734                   22441176.3834
  -3436320.12547  -2666913.52044  22307938.6334                   22307935.5434
   1248749.88748    965737.64846  20226805.9454                   20226801.9104
   2831794.38748   2193228.40246  21456012.8594                   21456009.6564
  -2358455.96548  -1835015.26246  20688427.3204                   20688422.1174
   3870456.59446   2996160.66044  24578046.8134                   24578044.1374
   4080230.77348   3162349.10545  22094157.7504                   22094155.7194
  -2279853.30146  -1735635.39843  24254961.4064                   24254958.6764
  -1811292.36346  -1408355.14143  24577115.8674                   24577114.2344
 11  8 19 14 20 30.0000000  0 10G03G06G13G16G20G23G31G32G19G07
  -3390089.14847  -2635082.48045  22054656.7664                   22054654.2544
  -2036317.77047  -1584212.68044  22440901.8284                   22440899.4224
  -3473441.51247  -2695839.27045  22300874.5864                   22300871.1724
   1321158.40248   1022159.88346  20240584.9064                   20240580.6804
   2934095.96148   2272943.88346  21475479.9844                   21475476.5084
  -2368664.84848  -1842970.23846  20686484.8284                   20686479.3324
   3981153.46146   3082417.85544  24599111.5864                   24599109.1024
   4204915.81648   3259506.22745  22117884.4384                   22117882.2424
  -2324022.18046  -1770052.67243  24246555.8284                   24246553.8714
  -1826218.83246  -1419986.13343  24574275.1954                   24574273.5744
 11  8 19 14 21  0.0000000  0 10G03G06G13G16G20G23G31G32G19G07
  -3421088.81648  -2659238.05945  22048757.7584                   22048755.4414
  -2037404.10947  -1585059.15645  22440695.4844                   22440692.6914
  -3510476.90247  -2724698.00445  22293826.6484                   22293823.8054
   1394119.08648   1079012.35946  20254468.9534                   20254464.2544
   3036824.55147   2352992.10245  21495028.3594                   21495025.5784
  -2378590.93048  -1850704.84046  20684595.6564                   20684590.4654
   4091791.39146   3168629.13344  24620164.5314                   24620162.7114
   4329888.71948   3356887.67645  22141666.4144                   22141663.6334
  -2368278.16446  -1804537.85243  24238134.8914                   24238131.9924
  -1841080.69546  -1431566.89143  24571446.9454                   24571445.4144
 11  8 19 14 21 30.0000000  0 10G03G06G13G16G20G23G31G32G19G07
  -3451807.46148  -2683174.68445  22042912.8524                   22042910.4574
  -2038118.64847  -1585615.91845  22440559.3364                   22440556.6954
  -3547427.87547  -2753490.94545  22286795.0314                   22286792.4264
   1467626.45748   1136290.84446  20268456.9144                   20268452.3284
   3139974.37147   2433368.55545  21514657.0234                   21514653.9384
  -2388235.51248  -1858220.10246  20682760.6024                   20682754.7974
   4202366.98846   3254791.89544  24641206.5864                   24641205.2544
   4455143.32048   3454488.62545  22165501.6334                   22165499.1604
  -2412621.52046  -1839091.12143  24229696.6724                   24229693.7664
  -1855882.22346  -1443100.54343  24568630.9304                   24568629.2774
 11  8 19 14 22  0.0000000  0 10G03G06G13G16G20G23G31G32G19G07
  -3482247.71548  -2706894.35945  22037119.9924                   22037118.1954
  -2038464.00047  -1585885.02345  22440493.4064                   22440491.3444
  -3584297.88347  -2782220.80545  22279779.3984                   22279776.2734
   1541673.39848   1193989.75846  20282547.4844                   20282542.9414
   3243537.23847   2514066.85545  21534364.8524                   21534361.1804
  -2397601.63348  -1865518.36346  20680978.2814                   20680972.9304
   4312875.28946   3340902.17244  24662235.7664                   24662234.7704
   4580671.57447   3552302.80945  22189388.4454                   22189385.9264
  -2457055.60546  -1873715.10943  24221241.4924                   24221237.9144
  -1870629.21946  -1454591.69543  24565824.2274                   24565823.1454
 11  8 19 14 22 30.0000000  0 10G03G06G13G16G20G23G31G32G19G07
  -3512399.17247  -2730389.00845  22031382.1024                   22031380.1884
  -2038431.18447  -1585859.43745  22440499.8284                   22440497.2504
  -3621078.25047  -2810880.83245  22272780.5394                   22272777.0204
   1616265.19148   1252113.22746  20296742.0474                   20296737.6174
   3347517.14147   2595090.13345  21554151.5554                   21554147.9924
  -2406680.39848  -1872592.71946  20679250.5394                   20679245.1954
   4423323.03147   3426965.30544  24683254.1024                   24683251.3484
   4706477.62947   3650333.46145  22213328.6804                   22213325.7734
  -2501570.55146  -1908402.12143  24212769.8524                   24212766.4574
  -1885315.40246  -1466035.49243  24563029.5554                   24563027.8524
 11  8 19 14 23  0.0000000  0 10G03G06G13G16G20G23G31G32G19G07
  -3542261.71948  -2753658.53145  22025699.7504                   22025697.6884
  -2038020.62147  -1585539.50445  22440577.4064                   22440575.2464
  -3657769.92147  -2839471.74745  22265797.9844                   22265794.7304
   1691396.46948   1310657.09046  20311038.6174                   20311034.3324
   3451908.92347   2676434.33546  21574016.4774                   21574013.4454
  -2415472.21148  -1879443.47346  20677577.6254                   20677572.3794
   4533707.44547   3512979.02344  24704259.0784                   24704257.5704
   4832556.05947   3748576.36345  22237320.0554                   22237318.3014
  -2546166.74246  -1943152.37544  24204283.9774                   24204281.3714
  -1899944.21146  -1477434.59443  24560245.4774                   24560243.9064
 11  8 19 14 23 30.0000000  0 10G03G06G13G16G20G23G31G32G19G07
  -3571824.98848  -2776694.84445  22020074.5164                   22020072.1294
  -2037222.39847  -1584917.49245  22440729.2584                   22440726.9024
  -3694363.37947  -2867986.09045  22258834.2344                   22258831.5634
   1767073.02348   1369625.81646  20325439.4614                   20325435.2274
   3556717.55147   2758103.35945  21593961.0704                   21593957.9884
  -2423967.49648  -1886063.16446  20675960.8134                   20675955.5634
   4644036.25846   3598949.44144  24725254.0554                   24725251.6254
   4958911.62947   3847035.19545  22261365.1954                   22261362.7934
  -2590833.82846  -1977957.87944  24195783.8054                   24195782.6484
  -1914509.09846  -1488783.85243  24557474.4924                   24557473.3364
 11  8 19 14 24  0.0000000  0 10G03G06G13G16G20G23G31G32G19G07
  -3601095.20348  -2799502.80145  22014503.8204                   22014502.1954
  -2036043.65247  -1583998.97745  22440954.1414                   22440950.7504
  -3730866.65247  -2896430.17645  22251888.1724                   22251884.9844
   1843283.53548   1429010.62546  20339941.9774                   20339937.4494
   3661930.43447   2840087.39545  21613982.3834                   21613979.1174
  -2432173.50048  -1892457.45346  20674399.7034                   20674394.3984
   4754300.02047   3684869.18444  24746236.5004                   24746234.0594
   5085532.14847   3945700.48445  22285460.4694                   22285457.9144
  -2635578.85247  -2012824.13744  24187269.1334                   24187266.8754
  -1929019.99646  -1500091.01243  24554713.6254                   24554711.3404
 11  8 19 14 24 30.0000000  0 10G03G06G13G16G20G23G31G32G19G07
  -3630060.39548  -2822073.08245  22008992.3364                   22008990.1054
  -2034473.11347  -1582775.16845  22441252.5394                   22441249.9804
  -3767268.69547  -2924795.39545  22244961.3524                   22244957.5474
   1920034.88348   1488816.84446  20354547.0314                   20354542.7704
   3767554.20347   2922391.60245  21634081.8054                   21634078.6604
  -2440079.16448  -1898617.70746  20672894.8594                   20672889.4104
   4864507.85246   3770745.32043  24767208.7274                   24767206.9184
   5212423.71547   4044576.98445  22309607.0084                   22309604.6564
  -2680390.01646  -2047741.93744  24178741.9844                   24178739.0634
  -1943468.60946  -1511349.65243  24551963.4844                   24551961.8204
 11  8 19 14 25  0.0000000  0 10G03G06G13G16G20G23G31G32G19G07
  -3658720.96548  -2844405.96945  22003538.0234                   22003536.0984
  -2032512.16447  -1581247.12545  22441625.7664                   22441623.3834
  -3803571.41447  -2953083.19945  22238052.6334                   22238049.5634
   1997321.56648   1549040.22346  20369254.5234                   20369249.9694
   3873582.35947   3005010.91045  21654258.7424                   21654254.9734
  -2447686.00848  -1904545.12146  20671447.6254                   20671442.2854
   4974656.34046   3856575.22343  24788169.6884                   24788167.7194
   5339580.01248   4143659.76245  22333804.1174                   22333801.8284
  -2725268.98246  -2082712.54344  24170202.2424                   24170199.2034
  -1957860.00846  -1522563.69143  24549224.8204                   24549223.0084
 11  8 19 14 25 30.0000000  0 10G03G06G13G16G20G23G31G32G19G07
  -3687074.10247  -2866499.31645  21998143.0314                   21998141.0394
  -2030159.11347  -1579413.55145  22442073.2274                   22442071.1844
  -3839773.19947  -2981292.35945  22231164.2034                   22231160.2814
   2075140.79748   1609678.57046  20384063.1254                   20384058.5004
   3980011.68847   3087942.82446  21674511.6484                   21674508.1414
  -2454992.16048  -1910238.21946  20670057.2034                   20670051.4774
   5084744.67646   3942358.25443  24809117.7584                   24809116.0394
   5466997.67247   4242946.21145  22358051.2504                   22358048.5744
  -2770212.69546  -2117733.61744  24161649.5394                   24161646.3834
  -1972194.25146  -1533733.22043  24546497.9304                   24546495.1724
 11  8 19 14 26  0.0000000  0 10G03G06G13G16G20G23G31G32G19G07
  -3715114.92248  -2888349.27345  21992806.7194                   21992804.4144
  -2027409.12947  -1577270.68445  22442596.7664                   22442594.3954
  -3875869.62547  -3009419.42245  22224295.0864                   22224291.1954
   2153492.98848   1670732.22346  20398972.7584                   20398968.5744
   4086841.65247   3171186.93046  21694840.6094                   21694837.2464
  -2461993.09848  -1915693.49646  20668725.0474                   20668719.4884
   5194775.75046   4028096.69943  24830056.6644                   24830054.9924
   5594676.56647   4342436.21145  22382347.7424                   22382345.0514
  -2815216.30546  -2152801.37144  24153085.1254                   24153081.6414
  -1986470.19546  -1544857.32443  24543780.4694                   24543778.5044
 11  8 19 14 26 30.0000000  0 10G03G06G13G16G20G23G31G32G19G07
  -3742849.76248  -2909960.83245  21987529.4224                   21987527.0554
  -2024269.52047  -1574824.21145  22443194.1254                   22443191.9064
  -3911868.43747  -3037470.44145  22217444.1094                   22217441.1724
   2232366.72748   1732192.27046  20413982.1094                   20413977.7774
   4194060.21947   3254733.82845  21715243.8594                   21715240.4844
  -2468696.08248  -1920916.59446  20667449.5864                   20667443.7734
   5304739.78146   4113782.94943  24850982.0634                   24850980.0044
   5722604.23047   4442120.06645  22406691.3204                   22406688.7234
  -2860287.03146  -2187921.37544  24144508.6174                   24144505.0314
  -2000698.12146  -1555943.99243  24541073.3134                   24541071.1024
 11  8 19 14 27  0.0000000  0 10G03G06G13G16G20G23G31G32G19G07
  -3770270.01248  -2931327.26245  21982311.3754                   21982308.8014
  -2020732.73447  -1572068.27045  22443867.1024                   22443864.8164
  -3947762.38347  -3065439.71545  22210613.5474                   22210610.7624
   2311765.52748   1794061.46146  20429091.0394                   20429087.2154
   4301669.91847   3338585.50845  21735720.7974                   21735717.5824
  -2475093.77048  -1925901.79746  20666232.0084                   20666226.6994
   5414642.57046   4199421.45343  24871895.1174                   24871894.1334
   5850783.18447   4541999.73445  22431083.2034                   22431080.8364
  -2905416.50446  -2223087.10543  24135919.7734                   24135916.6914
  -2014873.00446  -1566989.34043  24538375.6804                   24538373.7154
 11  8 19 14 27 30.0000000  0 10G03G06G13G16G20G23G31G32G19G07
  -3797374.69547  -2952447.76645  21977153.0314                   21977151.6564
  -2016798.30147  -1569002.46945  22444615.8754                   22444613.3834
  -3983551.59847  -3093327.38745  22203803.4924                   22203800.7734
   2391684.76248   1856336.18446  20444299.1564                   20444295.1844
   4409666.12547   3422738.34845  21756271.9384                   21756268.8874
  -2481185.30548  -1930648.44146  20665072.8754                   20665067.7424
   5524482.27746   4285010.76643  24892797.7664                   24892796.1524
   5979209.01248   4642071.75445  22455521.9454                   22455519.4884
  -2950603.97746  -2258298.06643  24127321.1804                   24127317.7854
  -2028997.57046  -1577995.48043  24535687.9144                   24535685.9494
 11  8 19 14 28  0.0000000  0 10G03G06G13G16G20G23G31G32G19G07
  -3824160.49647  -2973319.80145  21972056.1484                   21972054.3284
  -2012464.00047  -1565625.09845  22445440.7894                   22445438.2544
  -4019233.99247  -3121131.83245  22197013.6884                   22197010.3324
   2472122.45748   1919014.89546  20459606.5004                   20459602.1844
   4518045.93447   3507190.11345  21776896.1174                   21776892.6134
  -2486968.78148  -1935155.04346  20663972.1094                   20663966.7664
   5634259.26246   4370551.10243  24913688.1724                   24913684.6374
   6107878.75448   4742333.84845  22480007.0474                   22480004.8134
  -2995846.77346  -2293552.11343  24118711.9774                   24118708.6914
  -2043072.61346  -1588963.04344  24533009.8284                   24533008.1214
 11  8 19 14 28 30.0000000  0 10G03G06G13G16G20G23G31G32G19G07
  -3850622.38748  -2993939.44945  21967020.3524                   21967019.1174
  -2007725.61347  -1561932.84045  22446342.4144                   22446339.3404
  -4054805.35547  -3148849.75045  22190244.4534                   22190241.7234
   2553078.95748   1982097.87546  20475011.7274                   20475007.5744
   4626808.78947   3591940.37145  21797592.7814                   21797590.0164
  -2492440.18448  -1939418.46946  20662931.2894                   20662925.2624
   5743975.42646   4456044.10243  24934566.4844                   24934562.8364
   6236791.93847   4842785.62945  22504538.9304                   22504536.3714
  -3041139.99646  -2328845.46944  24110094.0864                   24110089.3284
  -2057096.41046  -1599890.71943  24530340.4614                   24530338.9694
 11  8 19 14 29  0.0000000  0 10G03G06G13G16G20G23G31G32G19G07
  -3876757.18448  -3014304.21145  21962046.9144                   21962044.6684
  -2002580.70747  -1557923.80945  22447321.5084                   22447319.0004
  -4090264.07847  -3176479.90645  22183496.6644                   22183493.4224
   2634552.04348   2045583.38346  20490515.4144                   20490511.1254
   4735951.91447   3676986.93045  21818362.1644                   21818358.9924
  -2497597.02748  -1943436.79746  20661949.7664                   20661944.0204
   5853631.32846   4541490.14543  24955433.2034                   24955431.1094
   6365945.66447   4943424.85945  22529115.3914                   22529113.3284
  -3086480.85947  -2364175.95744  24101465.0394                   24101461.1054
  -2071069.81246  -1610779.02743  24527681.7034                   24527679.9614
 11  8 19 14 29 30.0000000  0  9G03G06G13G16G20G23G32G19G07
  -3902563.63347  -3034413.11745  21957135.9534                   21957133.2344
  -1997029.02747  -1553597.82045  22448378.2504                   22448375.3914
  -4125609.45347  -3204021.74244  22176770.2814                   22176767.2584
   2716537.62948   2109468.23446  20506116.8204                   20506112.6524
   4845470.58247   3762326.12145  21839203.4144                   21839199.4734
  -2502438.85548  -1947209.64546  20661028.7584                   20661022.7194
   6495335.56647   5044248.10545  22553737.7194                   22553735.3134
  -3131868.41446  -2399542.81644  24092829.1484                   24092823.1724
  -2084995.20746  -1621630.00043  24525031.9774                   24525030.3164
 11  8 19 14 30  0.0000000  0  9G03G06G13G16G20G23G32G19G07
  -3928044.55147  -3054268.37945  21952287.3054                   21952284.0274
  -1991074.02047  -1548957.53545  22449511.5084                   22449508.5394
  -4160845.37547  -3231478.29745  22170065.8984                   22170062.1564
   2799027.96947   2173746.40646  20521814.2194                   20521809.8014
   4955356.21947   3847951.25445  21860113.5864                   21860109.9844
  -2506968.80948  -1950739.47346  20660166.5474                   20660160.8524
   6624952.97747   5145248.64145  22578403.0704                   22578400.7734
  -3177305.47747  -2434948.25443  24084181.9694                   24084177.2624
  -2098879.15646  -1632448.66443  24522389.5944                   24522388.2424
 11  8 19 14 30 30.0000000  0  9G03G06G13G16G20G23G32G19G07
  -3953197.19947  -3073867.84045  21947500.8134                   21947498.2194
  -1984713.64547  -1544001.41445  22450721.5394                   22450718.4344
  -4195970.12947  -3258848.23445  22163381.8054                   22163378.3244
   2882020.53548   2238415.91846  20537607.3054                   20537602.6134
   5065606.16448   3933860.26645  21881093.4844                   21881089.5864
  -2511185.56248  -1954025.24646  20659364.2894                   20659358.4104
   6754794.94147   5246424.16445  22603111.2034                   22603109.0594
  -3222789.41446  -2470390.24643  24075525.8984                   24075521.5234
  -2112722.28946  -1643235.50843  24519755.0784                   24519754.0704
 11  8 19 14 31  0.0000000  0  9G03G06G13G16G20G23G32G19G07
  -3978005.99648  -3093199.37545  21942779.8594                   21942776.9574
  -1977933.68447  -1538718.32845  22452011.9924                   22452008.8874
  -4230969.35947  -3286120.34445  22156720.9694                   22156718.0704
   2965525.42248   2303484.63346  20553497.7344                   20553492.9264
   5176229.48048   4020060.21945  21902144.0234                   21902140.9454
  -2515074.37148  -1957055.47746  20658623.9144                   20658618.4184
   6884871.08647   5347782.16045  22627863.6954                   22627861.2344
  -3268305.68746  -2505857.41043  24066864.4534                   24066860.2624
  -2126512.83547  -1653981.38543  24517131.0004                   24517129.6094
 11  8 19 14 31 30.0000000  0  9G03G06G13G16G20G23G32G19G07
  -4002473.04748  -3112264.59445  21938123.8364                   21938121.5634
  -1970736.77347  -1533110.34045  22453380.8984                   22453378.0354
  -4265846.08247  -3313296.99245  22150085.1094                   22150081.5904
   3049535.57447   2368947.06346  20569484.3834                   20569480.2234
   5287218.54747   4106545.16845  21923265.6254                   21923261.5274
  -2518637.92648  -1959832.27346  20657946.0004                   20657940.1454
   7015173.39147   5449316.39145  22652659.5084                   22652656.8524
  -3313856.17246  -2541351.25844  24058196.3834                   24058192.0864
  -2140256.75447  -1664690.90243  24514516.3444                   24514513.9884
 11  8 19 14 32  0.0000000  0  9G03G06G13G16G20G23G32G19G07
  -4026597.46148  -3131062.82445  21933533.4304                   21933530.6094
  -1963122.94147  -1527177.47345  22454830.1804                   22454827.4304
  -4300600.20747  -3340378.12545  22143470.8674                   22143467.5744
   3134046.59848   2434799.78946  20585566.2734                   20585562.1094
   5398568.07448   4193311.00845  21944454.1174                   21944451.0354
  -2521876.00048  -1962355.44146  20657329.6024                   20657324.2304
   7145697.08247   5551023.12945  22677497.3754                   22677495.0984
  -3359440.27046  -2576871.30944  24049522.3674                   24049518.6174
  -2153956.60946  -1675366.09443  24511909.6254                   24511907.1374
 11  8 19 14 32 30.0000000  0  9G03G06G13G16G20G23G32G19G07
  -5625804.62548  -4377198.27745  21629214.6484                   21629211.3284
  -3530517.31647  -2748523.74245  22156564.4304                   22156561.5984
  -5910658.61747  -4594969.07045  21837086.9924                   21837083.7734
   1643631.35948   1273437.24646  20301949.7894                   20301945.5704
   3934851.87947   3052752.89845  21665918.2114                   21665914.7074
  -4100214.32048  -3192229.44946  20356982.1334                   20356976.2974
   5701016.28147   4425297.79745  22402583.5634                   22402581.7584
  -4980483.86346  -3840022.12144  23741048.3834                   23741044.9694
  -3743041.23846  -2913613.84444  24209516.2814                   24209514.8014
 11  8 19 14 33  0.0000000  0  9G03G06G13G16G20G23G32G19G07
  -5649243.35247  -4395462.20345  21624753.9064                   21624751.3094
  -3522071.86747  -2741942.87945  22158171.6724                   22158168.6604
  -5945170.02547  -4621861.06745  21830519.6804                   21830516.7424
   1729128.60247   1340058.46146  20318219.1724                   20318215.2774
   4046906.18047   3140067.90645  21687241.4144                   21687238.0784
  -4102803.73848  -3194247.17646  20356489.5234                   20356483.8874
   5831965.89847   4527336.42645  22427502.7034                   22427499.9384
  -5026134.75446  -3875594.21944  23732360.7034                   23732356.9694
  -3756663.49946  -2924228.55644  24206923.5394                   24206922.1254
 11  8 19 14 33 30.0000000  0  9G03G06G13G16G20G23G32G19G07
  -5672334.71547  -4413455.48045  21620360.2034                   21620356.5744
  -3513207.43047  -2735035.50845  22159858.3524                   22159856.3754
  -5979557.01647  -4648656.10245  21823976.5004                   21823972.8714
   1815115.96948   1407061.59446  20334582.0634                   20334577.7504
   4159308.60247   3227654.17645  21708631.0554                   21708627.4144
  -4105065.30548  -3196009.43746  20356058.8754                   20356052.8714
   5963124.50847   4629537.88345  22452461.6644                   22452459.8554
  -5071815.12946  -3911189.28144  23723668.2114                   23723664.1174
  -3770248.11746  -2934813.93744  24204339.0554                   24204337.3794
 11  8 19 14 34  0.0000000  0  9G03G06G13G16G20G23G32G19G07
  -5695076.25448  -4431176.16445  21616032.7194                   21616029.8134
  -3503922.91847  -2727800.82045  22161625.3134                   22161622.8794
  -6013818.61747  -4675353.44145  21817456.7034                   21817453.2384
   1901589.85548   1474443.83246  20351037.3594                   20351033.6684
   4272055.01647   3315508.48045  21730085.5394                   21730082.0044
  -4106997.91048  -3197515.36346  20355691.2894                   20355685.2854
   6094488.02347   4731899.04345  22477458.4144                   22477456.8054
  -5117522.99646  -3946805.77344  23714970.1334                   23714966.4654
  -3783796.47747  -2945371.07044  24201761.4614                   24201758.4414
 11  8 19 14 34 30.0000000  0  9G03G06G13G16G20G23G32G19G07
  -5717469.19148  -4448625.20345  21611771.4454                   21611768.0634
  -3494219.95347  -2720240.06245  22163471.5394                   22163469.5004
  -6047956.21547  -4701954.16445  21810960.2974                   21810956.9344
   1988544.30148   1542200.53546  20367584.4384                   20367580.2424
   4385138.75047   3403625.64845  21751604.6334                   21751601.4264
  -4108603.00048  -3198766.08246  20355385.5474                   20355379.8204
   6226050.10547   4834414.89845  22502494.5394                   22502492.2704
  -5163258.75446  -3982444.02744  23706267.0474                   23706263.9964
  -3797313.07047  -2955903.41844  24199188.7664                   24199186.3524
 11  8 19 14 35  0.0000000  0  9G03G06G13G16G20G23G32G19G07
  -5739499.21148  -4465791.44545  21607579.4384                   21607576.1374
  -3484085.03947  -2712342.72745  22165400.5164                   22165398.3594
  -6081956.57847  -4728447.93045  21804490.2344                   21804486.9144
   2075988.70348   1610339.02046  20384224.2664                   20384220.0594
   4498568.41047   3492012.35945  21773189.8674                   21773186.5594
  -4109866.92648  -3199750.95746  20355145.4064                   20355139.2704
   6357819.24647   4937092.09045  22527569.6724                   22527567.1024
  -5209008.48446  -4018093.16844  23697561.6724                   23697557.7704
  -3810786.96546  -2966402.53544  24196624.4144                   24196622.5944
 11  8 19 14 35 30.0000000  0  9G03G06G13G16G20G23G32G19G07
  -5761169.94148  -4482677.72345  21603455.6414                   21603452.4414
  -3473523.53547  -2704112.98445  22167410.3444                   22167408.3954
  -6115824.55547  -4754838.54745  21798045.3984                   21798041.7894
   2163913.35248   1678851.73446  20400955.9844                   20400951.8094
   4612333.75447   3580660.65245  21794838.7424                   21794835.5204
  -4110794.95348  -3200474.08646  20354968.4534                   20354963.1454
   6489785.43047   5039922.82845  22552681.8754                   22552679.6214
  -5254776.56646  -4053756.60544  23688851.7034                   23688848.6604
  -3824226.29746  -2976874.70344  24194066.4144                   24194065.4184
 11  8 19 14 36  0.0000000  0  9G03G06G13G16G20G23G32G19G07
  -5782479.77347  -4499282.77345  21599400.2344                   21599397.2154
  -3462534.28147  -2695549.91445  22169501.5474                   22169499.4454
  -6149558.75447  -4781124.93045  21791625.9614                   21791622.5704
   2252314.75848   1747735.95346  20417778.1254                   20417774.1844
   4726431.39547   3669567.86745  21816550.7344                   21816547.9734
  -4111385.51248  -3200934.24646  20354856.3054                   20354850.4614
   6621945.13747   5142904.38345  22577831.2584                   22577829.1294
  -5300561.12146  -4089432.87144  23680138.8914                   23680135.4654
  -3837632.68746  -2987321.19944  24191515.5864                   24191513.9884
 11  8 19 14 36 30.0000000  0  9G03G06G13G16G20G23G32G19G07
  -5803426.82848  -4515605.16045  21595414.2274                   21595411.4804
  -3451116.12147  -2686652.62145  22171674.2504                   22171672.4104
  -6183158.21547  -4807306.30145  21785232.3834                   21785228.6294
   2341189.99648   1816989.39546  20434690.6174                   20434686.3524
   4840857.24247   3758730.83645  21838325.1564                   21838322.3164
  -4111637.05548  -3201130.23846  20354808.2504                   20354802.3164
   6754294.57847   5246033.75445  22603016.4924                   22603014.1334
  -5346360.01246  -4125120.27044  23671423.8834                   23671420.1134
  -3851007.32446  -2997742.97744  24188970.6254                   24188968.9884
 11  8 19 14 37  0.0000000  0  9G03G06G13G16G20G23G32G19G07
  -5824010.96148  -4531644.74645  21591497.1484                   21591494.8484
  -3439269.95347  -2677421.83245  22173928.9064                   22173926.4064
  -6216623.72348  -4833383.30545  21778863.9304                   21778860.5234
   2430533.41448   1886607.66046  20451691.9924                   20451687.6684
   4955605.27347   3848144.85245  21860160.9844                   21860157.9964
  -4111550.64848  -3201062.90646  20354824.4774                   20354818.8984
   6886827.96947   5349306.48045  22628236.5784                   22628234.7854
  -5392173.30146  -4160818.89844  23662706.0784                   23662702.5124
  -3864353.87546  -3008142.84844  24186430.1254                   24186429.1094
 11  8 19 14 37 30.0000000  0  9G03G06G13G16G20G23G32G19G07
  -5844223.32848  -4547394.65645  21587651.3594                   21587648.2274
  -3426987.94147  -2667851.41845  22176266.0084                   22176263.0984
  -6249947.29347  -4859349.70745  21772522.7274                   21772519.0434
   2520348.85548   1956593.72746  20468783.2424                   20468778.8364
   5070678.59047   3937812.33645  21882058.9844                   21882055.8954
  -4111118.30948  -3200726.02046  20354906.6724                   20354900.9144
   7019548.42647   5452724.96545  22653492.1644                   22653490.4844
  -5437991.86347  -4196521.64144  23653986.6644                   23653983.1604
  -3877666.98846  -3018516.64843  24183897.3284                   24183895.4024
 11  8 19 14 38  0.0000000  0  9G03G06G13G16G20G23G32G19G07
  -5864069.70748  -4562859.36345  21583874.5084                   21583871.8594
  -3414277.07447  -2657946.81645  22178684.6254                   22178682.0664
  -6283135.52348  -4885210.65645  21766207.2734                   21766203.2974
   2610624.78548   2026938.61746  20485962.2274                   20485958.1094
   5186065.57047   4027724.22745  21904016.7034                   21904013.2384
  -4110346.68748  -3200124.75446  20355053.8674                   20355048.2934
   7152444.24647   5556280.09445  22678781.9844                   22678779.6524
  -5483821.89147  -4232233.26644  23645265.5234                   23645261.8754
  -3890956.10546  -3028871.76643  24181367.6804                   24181366.8284
 11  8 19 14 38 30.0000000  0  9G03G06G13G16G20G23G32G19G07
  -5883542.36747  -4578032.85946  21580168.7034                   21580166.3594
  -3401130.84847  -2647702.99645  22181185.8524                   22181183.4414
  -6316181.03148  -4910960.40245  21759918.6174                   21759915.0634
   2701363.73848   2097644.29746  20503229.2894                   20503225.0664
   5301767.69147   4117881.69145  21926033.5634                   21926030.2704
  -4109228.78948  -3199253.67646  20355266.4614                   20355261.0944
   7285517.22747   5659973.26245  22704104.6254                   22704102.6724
  -5529655.61747  -4267947.78544  23636543.7664                   23636540.1954
  -3904217.55546  -3039205.34844  24178844.4774                   24178843.3874
 11  8 19 14 39  0.0000000  0  9G03G06G13G16G20G23G32G19G07
  -5902634.97748  -4592910.21545  21576535.5004                   21576533.9654
  -3387543.49247  -2637115.43745  22183771.7894                   22183769.2194
  -6349079.10248  -4936595.26245  21753658.9304                   21753655.3444
   2792566.70748   2168711.55146  20520584.8134                   20520580.3164
   5417785.71147   4208285.30545  21948111.5864                   21948107.7854
  -4107758.65248  -3198108.11346  20355546.1254                   20355540.7774
   7418768.27747   5763805.19145  22729461.4924                   22729459.6724
  -5575486.87946  -4303660.40644  23627822.2894                   23627818.5004
  -3917448.24646  -3049514.92644  24176327.4844                   24176325.6174
 11  8 19 14 39 30.0000000  0  9G03G06G13G16G20G23G32G19G07
  -5921355.34048  -4607497.53145  21572972.8984                   21572970.8874
  -3373524.03947  -2626191.15245  22186439.0394                   22186436.6884
  -6381837.44148  -4962121.23045  21747424.6644                   21747421.2194
   2884220.67248   2240130.21546  20538026.1484                   20538021.8954
   5534106.10248   4298924.53945  21970246.1724                   21970242.8754
  -4105945.34848  -3196695.16446  20355891.0784                   20355885.7154
   7552183.77347   5867765.26645  22754850.0944                   22754847.7774
  -5621323.08646  -4339376.87544  23619099.9924                   23619096.1024
  -3930659.38746  -3059809.28943  24173812.4774                   24173811.9344
 11  8 19 14 40  0.0000000  0  9G03G06G13G16G20G23G32G19G07
  -5939693.94147  -4621787.36746  21569483.4534                   21569481.0784
  -3359063.90247  -2614923.52745  22189190.6174                   22189188.6334
  -6414447.60548  -4987531.73445  21741219.3134                   21741215.5784
   2976329.69148   2311903.47346  20555552.9224                   20555548.8244
   5650732.27047   4389802.03945  21992439.2664                   21992436.2424
  -4103779.60948  -3195007.58246  20356303.7424                   20356297.8244
   7685767.57847   5971856.48845  22780270.0474                   22780268.0514
  -5667154.43446  -4375089.53944  23610378.1254                   23610374.4774
  -3943844.83246  -3070083.65243  24171303.5004                   24171301.6414
 11  8 19 14 40 30.0000000  0  9G03G06G13G16G20G23G32G19G07
  -5957648.18747  -4635777.68745  21566066.8444                   21566065.0944
  -3344161.35947  -2603311.16445  22192026.9924                   22192023.8094
  -6446907.75048  -5012825.34845  21735042.2664                   21735038.8594
   3068891.16448   2384029.28546  20573167.4534                   20573163.3324
   5767660.92648   4480915.25845  22014690.5704                   22014687.1764
  -4101259.28148  -3193043.69546  20356783.1484                   20356777.4414
   7819516.58247   6076076.42245  22805722.1724                   22805719.8914
  -5712978.82046  -4410796.75044  23601658.4064                   23601654.3484
  -3957005.76646  -3080338.89544  24168798.6254                   24168797.0164
 11  8 19 14 41  0.0000000  0  9G03G06G13G16G20G23G32G19G07
  -5975208.17648  -4649460.81245  21562725.4304                   21562723.2774
  -3328807.49247  -2591347.13345  22194948.7734                   22194945.7504
  -6479208.24648  -5037994.55945  21728896.0084                   21728892.3404
   3161909.87148   2456511.37546  20590868.2424                   20590864.1254
   5884896.55948   4572267.66845  22036999.6884                   22036996.3364
  -4098375.33648  -3190796.46546  20357331.8914                   20357326.3714
   7953435.31647   6180428.65245  22831205.6954                   22831203.7304
  -5758786.20346  -4446490.76244  23592941.8134                   23592937.6024
  -3970135.38746  -3090569.77044  24166301.0944                   24166299.1024
 11  8 19 14 41 30.0000000  0  9G03G06G13G16G20G23G32G19G07
  -5992376.03147  -4662838.35246  21559458.2424                   21559455.9534
  -3313005.73847  -2579034.10245  22197955.7344                   22197952.8674
  -6511352.06248  -5063041.68445  21722778.7344                   21722775.0514
   3255378.19148   2529343.80546  20608654.8364                   20608650.0984
   6002430.78148   4663852.75445  22059366.0474                   22059362.0594
  -4095130.69548  -3188268.17246  20357949.4454                   20357943.7194
   8087515.55947   6284906.69945  22856720.7344                   22856718.5314
  -5804578.50846  -4482173.00844  23584226.9384                   23584222.8874
  -3983239.59847  -3100780.81644  24163807.7734                   24163805.4774
 11  8 19 14 42  0.0000000  0  9G03G06G13G16G20G23G32G19G07
  -6009152.36347  -4675910.81246  21556266.0704                   21556263.6644
  -3296757.87947  -2566373.41045  22201047.4694                   22201044.1294
  -6543340.67248  -5087967.85945  21716691.3674                   21716687.9144
   3349289.73848   2602521.60946  20626525.7274                   20626520.9964
   6120256.91048   4755665.27745  22081787.8524                   22081784.5704
  -4091527.05948  -3185460.14846  20358634.9844                   20358629.2894
   8221750.97747   6389505.67645  22882264.6174                   22882262.3594
  -5850356.27746  -4517843.96143  23575516.1024                   23575511.8524
  -3996323.00846  -3110975.67244  24161318.0314                   24161315.6804
 11  8 19 14 42 30.0000000  0  9G03G06G13G16G20G23G32G19G07
  -6025526.10548  -4688669.58245  21553150.0554                   21553147.6954
  -3280053.99247  -2553357.39845  22204226.4384                   22204223.7464
  -6575163.71148  -5112765.03145  21710635.5164                   21710632.3204
   3443650.18848   2676049.19946  20644481.8364                   20644477.6174
   6238380.17648   4847709.34445  22104265.6024                   22104261.9104
  -4087554.08648  -3182364.32446  20359390.8524                   20359385.6094
   8356146.80147   6494229.64845  22907839.3364                   22907836.9884
  -5896108.60946  -4553495.07844  23566809.6174                   23566806.0634
  -4009377.83246  -3121148.23044  24158833.6884                   24158831.8364
 11  8 19 14 43  0.0000000  0  9G03G06G13G16G20G23G32G19G07
  -6041505.13747  -4701120.76245  21550109.2274                   21550107.0784
  -3262902.63347  -2539992.70745  22207490.3674                   22207487.5434
  -6606829.24248  -5137439.44145  21704610.1804                   21704606.6054
   3538447.07448   2749916.87146  20662521.1884                   20662516.6174
   6356787.23048   4939974.55545  22126797.8754                   22126794.1454
  -4083219.89148  -3178987.04346  20360215.9304                   20360210.0124
   8490689.83247   6599068.32044  22933441.6804                   22933439.3674
  -5941842.49646  -4589131.81644  23558106.3524                   23558103.7504
  -4022414.96546  -3131307.02744  24156352.2584                   24156350.6414
 11  8 19 14 43 30.0000000  0  9G03G06G13G16G20G23G32G19G07
  -6057076.77747  -4713254.49245  21547145.9144                   21547143.7894
  -3245292.39847  -2526270.44945  22210841.5944                   22210838.4024
  -6638325.64148  -5161982.07445  21698616.6174                   21698612.7774
   3633687.23448   2824129.95346  20680644.9844                   20680640.2344
   6475484.69947   5032466.05545  22149384.8594                   22149381.5594
  -4078512.64148  -3175319.05946  20361111.3524                   20361105.9264
   8625386.87547   6704027.00844  22959074.1804                   22959070.9344
  -5987545.93746  -4624744.83644  23549409.3054                   23549405.9414
  -4035425.70246  -3141445.25143  24153876.5084                   24153874.6454
 11  8 19 14 44  0.0000000  0  9G03G06G13G16G20G23G32G19G07
  -6072244.80148  -4725073.73845  21544259.5784                   21544257.4414
  -3227228.28947  -2512194.51245  22214278.8674                   22214276.4534
  -6669656.99648  -5186396.10245  21692654.1724                   21692650.5944
   3729361.49648   2898681.30546  20698850.9304                   20698846.6844
   6594462.90248   5125176.32845  22172025.4304                   22172021.9844
  -4073436.80948  -3171363.87946  20362077.2974                   20362071.5554
   8760228.60547   6809098.42644  22984733.2034                   22984731.3554
  -6033222.12947  -4660336.63544  23540717.8284                   23540713.7934
  -4048416.47346  -3151567.89544  24151404.0554                   24151402.5084
 11  8 19 14 44 30.0000000  0  9G03G06G13G16G20G23G32G19G07
  -6087003.22747  -4736573.78545  21541450.9844                   21541448.9534
  -3208705.30147  -2497761.01645  22217803.5634                   22217801.1454
  -6700817.93048  -5210677.32845  21686724.6094                   21686721.1684
   3825470.61348   2973571.50046  20717140.1094                   20717135.3594
   6713722.03548   5218105.49245  22194719.9534                   22194716.9064
  -4067987.05548  -3167117.32046  20363114.4224                   20363108.9384
   8895215.34047   6914282.82444  23010420.5314                   23010418.5044
  -6078864.91446  -4695902.37944  23532032.5474                   23532028.7074
  -4061385.39546  -3161673.53443  24148936.5944                   24148934.7664
 11  8 19 14 45  0.0000000  0  9G03G06G13G16G20G23G32G19G07
  -6101348.27747  -4747751.73445  21538721.0554                   21538718.6604
  -3189720.58647  -2482967.71545  22221416.1644                   22221413.6134
  -6731805.06648  -5234823.13745  21680827.8134                   21680824.5314
   3922012.97748   3048799.30146  20735511.4534                   20735506.9344
   6833260.26247   5311252.12545  22217467.6094                   22217464.3134
  -4062160.22748  -3162576.94146  20364223.4144                   20364217.7274
   9030345.33647   7019578.87144  23036134.9224                   23036133.3094
  -6124470.14547  -4731438.88744  23523354.2274                   23523349.6254
  -4074331.53146  -3171761.39143  24146472.9844                   24146470.6954
 11  8 19 14 45 30.0000000  0  9G03G06G13G16G20G23G32G19G07
  -6115274.79747  -4758603.53945  21536070.9614                   21536068.3954
  -3170270.19547  -2467811.55545  22225117.3054                   22225115.3754
  -6762613.65248  -5258829.79745  21674964.8054                   21674961.8714
   4018988.54348   3124364.67646  20753965.2504                   20753961.1954
   6953076.96547   5404615.74645  22240267.7034                   22240264.4454
  -4055951.76648  -3157739.18046  20365404.8984                   20365398.9654
   9165618.13747   7124986.19144  23061876.8914                   23061874.5394
  -6170032.05947  -4766941.63344  23514683.8444                   23514679.4694
  -4087253.38746  -3181830.34043  24144013.9614                   24144011.3954
 11  8 19 14 46  0.0000000  0  9G03G06G13G16G20G23G32G19G07
  -6128778.08647  -4769125.55545  21533501.1724                   21533498.6954
  -3150350.20347  -2452289.48045  22228907.8134                   22228905.8284
  -6793239.27348  -5282693.89145  21669137.2034                   21669133.7194
   4116396.95348   3200267.32846  20772501.2974                   20772496.9184
   7073171.25447   5498195.66845  22263121.2274                   22263117.6174
  -4049357.46948  -3152600.77046  20366659.4924                   20366654.0164
   9301033.12147   7230504.30544  23087645.5944                   23087643.2894
  -6215545.86747  -4802406.94144  23506023.0554                   23506018.6564
  -4100149.68446  -3191879.37143  24141559.9844                   24141556.9144
 11  8 19 14 46 30.0000000  0  9G03G06G13G16G20G23G32G19G07
  -6141861.76647  -4779320.60945  21531012.0394                   21531009.3404
  -3129965.82847  -2436405.54345  22232787.0944                   22232785.6844
  -6823686.72348  -5306419.16045  21663343.5474                   21663339.7274
   4214228.80148   3276499.93046  20791118.0634                   20791113.9024
   7193533.08247   5591984.06645  22286025.5394                   22286021.7664
  -4042382.00848  -3147165.34446  20367986.7114                   20367981.5204
   9436580.64547   7336125.68444  23113439.6094                   23113437.3364
  -6261015.42246  -4837837.71944  23497369.9224                   23497365.9964
  -4113027.46146  -3201913.97343  24139108.5704                   24139107.1094
 11  8 19 14 47  0.0000000  0  9G03G06G13G16G20G23G32G19G07
  -6154521.99247  -4789185.70745  21528602.3134                   21528600.0204
  -3109114.12147  -2420157.43445  22236754.9384                   22236753.2894
  -6853952.12948  -5330002.56645  21657584.4064                   21657580.7814
   4312483.11748   3353061.72746  20809815.5944                   20809811.0984
   7314160.78147   5685979.64145  22308980.0234                   22308976.7154
  -4035021.78148  -3141430.10946  20369387.7194                   20369382.2424
   9572259.19547   7441849.16444  23139257.7814                   23139256.5314
  -6306436.29347  -4873230.60544  23488727.0314                   23488722.2544
  -4125886.03946  -3211933.59843  24136662.0474                   24136659.7774
 11  8 19 14 47 30.0000000  0  9G03G06G13G16G20G23G32G19G07
  -6166754.05947  -4798717.17245  21526275.1954                   21526272.1564
  -3087791.20747  -2403542.16845  22240812.6254                   22240810.0274
  -6884031.06248  -5353440.68745  21651860.2584                   21651856.5164
   4411159.00848   3429952.03546  20828592.7504                   20828588.8364
   7435053.62547   5780181.81345  22331985.0004                   22331982.1024
  -4027272.52348  -3135391.73046  20370862.2274                   20370856.6914
   9708068.10247   7547674.24144  23165101.4924                   23165099.7424
  -6351803.35947  -4908581.56644  23480094.1414                   23480089.2974
  -4138723.43746  -3221936.71943  24134219.2504                   24134216.9024
 11  8 19 14 48  0.0000000  0  9G03G06G13G16G20G23G32G19G07
  -6178557.73448  -4807914.81645  21524028.9844                   21524026.1764
  -3065998.12147  -2386560.52345  22244959.9144                   22244957.2774
  -6913923.48048  -5376733.45745  21646171.8204                   21646168.3404
   4510251.48848   3507166.94146  20847449.5944                   20847445.1374
   7556205.98847   5874586.21145  22355039.6564                   22355036.5314
  -4019134.84048  -3129050.67246  20372410.9924                   20372405.5004
   9844002.23847   7653596.87144  23190969.4064                   23190966.3834
  -6397115.44147  -4943889.67244  23471471.3364                   23471467.0204
  -4151543.48146  -3231926.32843  24131779.5704                   24131776.8324
 11  8 19 14 48 30.0000000  0  9G03G06G13G16G20G23G32G19G07
  -6189927.33248  -4816774.23045  21521865.4064                   21521862.0084
  -3043730.62547  -2369209.21145  22249196.9534                   22249194.7504
  -6943624.66448  -5399877.21545  21640519.5634                   21640516.3284
   4609760.94148   3584706.77346  20866385.3834                   20866381.0164
   7677617.52347   5969192.57045  22378143.0394                   22378139.7974
  -4010603.74248  -3122403.05946  20374034.3134                   20374028.3094
   9980061.30147   7759616.87544  23216860.4844                   23216858.2734
  -6442366.99647  -4979150.58644  23462859.2734                   23462855.9064
  -4164343.42646  -3241900.27043  24129344.7114                   24129342.1294
 11  8 19 14 49  0.0000000  0  9G03G06G13G16G20G23G32G19G07
  -6200859.11348  -4825292.49645  21519785.3524                   21519781.8094
  -3020986.18447  -2351486.25845  22253525.0554                   22253522.7424
  -6973131.20348  -5422869.30545  21634904.7274                   21634901.6414
   4709685.54348   3662570.09446  20885400.5864                   20885396.3244
   7799286.09047   6063999.19545  22401296.1024                   22401292.7504
  -4001676.37548  -3115446.66446  20375732.9144                   20375726.9964
  10116243.53147   7865732.83244  23242775.3054                   23242772.6374
  -6487554.20347  -5014361.37144  23454260.9534                   23454256.8164
  -4177123.33246  -3251858.59444  24126912.4454                   24126910.5434
 11  8 19 14 49 30.0000000  0  9G03G06G13G16G20G23G32G19G07
  -7786778.35948  -6061073.73845  21217994.7894                   21217991.2584
  -4573189.89147  -3560995.63345  21958150.8364                   21958147.8554
  -8577869.27748  -6673314.54745  21329533.6094                   21329529.5634
   3234598.54348   2513151.65646  20604700.5164                   20604696.5434
   6345785.44547   4931401.23845  22124704.7034                   22124701.2274
  -5567777.39848  -4335785.12546  20077713.9384                   20077708.1054
   8677122.96547   6744340.13344  22968919.2034                   22968917.6954
  -8108102.68447  -6277126.40644  23145880.8444                   23145877.0784
  -5765311.80346  -4489408.02644  23824690.1174                   23824687.9414
 11  8 19 14 50  0.0000000  0  9G03G06G13G16G20G23G32G19G07
  -7796838.84848  -6068913.07445  21216080.1564                   21216076.6914
  -4549499.15647  -3542535.30145  21962659.0704                   21962656.2664
  -8606991.52748  -6696007.20345  21323991.4844                   21323987.6994
   3335333.41848   2591646.36346  20623869.7664                   20623865.4494
   6467947.06647   5026592.06345  22147951.2344                   22147947.9654
  -5558063.08248  -4328215.52346  20079562.3364                   20079556.5164
   8813530.73047   6850631.83644  22994876.8054                   22994875.5124
  -8153163.83647  -6312238.98844  23137306.1954                   23137302.2034
  -5778065.23846  -4499345.74244  23822263.3284                   23822260.9844
 11  8 19 14 50 30.0000000  0  9G03G06G13G16G20G23G32G19G07
  -7806455.40648  -6076406.50045  21214250.9454                   21214246.7734
  -4525328.54347  -3523701.04745  21967258.4774                   21967255.8984
  -8635913.61748  -6718543.87945  21318488.0554                   21318484.2894
   3436473.99248   2670457.19946  20643116.0394                   20643112.2774
   6590354.96147   5121974.80545  22171244.6334                   22171241.2504
  -5547947.62148  -4320333.33246  20081487.2344                   20081481.6294
   8950051.62947   6957011.68844  23020855.9304                   23020854.6884
  -8198152.93846  -6347295.40244  23128744.6334                   23128741.1564
  -5790801.84046  -4509270.37544  23819839.0864                   23819836.9774
 11  8 19 14 51  0.0000000  0  9G03G06G13G16G20G23G32G19G07
  -7815625.11348  -6083551.74245  21212505.5394                   21212501.7114
  -4500676.56647  -3504491.71945  21971949.7344                   21971946.8554
  -8664633.18748  -6740922.74645  21313022.2974                   21313019.2664
   3538017.37548   2749581.90246  20662439.4924                   20662435.5044
   6713006.43447   5217547.34045  22194584.2344                   22194581.2894
  -5537429.00448  -4312137.00046  20083489.2814                   20083483.1604
   9086682.76647   7063477.44144  23046856.0784                   23046854.3204
  -8243066.81647  -6382293.20744  23120197.8754                   23120193.5864
  -5803522.05546  -4519182.25044  23817419.3284                   23817416.5004
 11  8 19 14 51 30.0000000  0  9G03G06G13G16G20G23G32G19G07
  -7824345.17248  -6090346.57846  21210845.7274                   21210842.5354
  -4475541.65647  -3484906.06345  21976732.5394                   21976730.3954
  -8693148.02048  -6763142.07045  21307596.6484                   21307593.2734
   3639961.29748   2829018.72746  20681838.9064                   20681834.8054
   6835897.91047   5313306.88745  22217969.9064                   22217966.6564
  -5526505.11748  -4303624.87546  20085567.8914                   20085561.9414
   9223421.59847   7170027.11744  23072876.7274                   23072875.1524
  -8287902.47346  -6417230.07044  23111665.6484                   23111661.2624
  -5816226.37147  -4529081.70744  23815001.1174                   23814999.2344
 11  8 19 14 52  0.0000000  0  9G03G06G13G16G20G23G32G19G07
  -7832618.60948  -6096793.41446  21209271.9924                   21209268.4654
  -4449927.62947  -3464947.09445  21981606.6414                   21981604.0824
  -8721460.86748  -6785204.01245  21302208.7274                   21302205.1214
   3742297.85248   2908761.48846  20701312.8134                   20701308.5234
   6959021.20347   5409247.07045  22241399.4614                   22241396.2934
  -5515179.23848  -4294799.50846  20087722.8914                   20087717.3134
   9360259.85247   7276654.25044  23098916.2274                   23098914.7464
  -8332661.45347  -6452107.21144  23103148.5004                   23103144.1804
  -5828920.45346  -4538973.18744  23812585.2274                   23812583.6564
 11  8 19 14 52 30.0000000  0  9G03G06G13G16G20G23G32G19G07
  -7840438.27348  -6102886.65645  21207783.7344                   21207780.4774
  -4423828.75847  -3444610.31645  21986573.1414                   21986571.2384
  -8749564.67648  -6807103.07445  21296860.9144                   21296857.2774
   3845028.93748   2988811.66446  20720861.6024                   20720857.8984
   7082377.93047   5505369.16845  22264873.2664                   22264870.1294
  -5503444.91448  -4285655.87546  20089955.9844                   20089950.0084
   9497199.25847   7383360.20744  23124975.3284                   23124973.5274
  -8377336.52747  -6486918.94944  23094647.1174                   23094643.4344
  -5841600.54746  -4548853.77044  23810172.6564                   23810170.5664
 11  8 19 14 53  0.0000000  0  9G03G06G13G16G20G23G32G19G07
  -7847801.25048  -6108624.03146  21206381.8834                   21206380.0234
  -4397243.28647  -3423894.38745  21991632.0234                   21991630.3364
  -8777456.91448  -6828837.27045  21291553.0004                   21291549.4064
   3948151.78548   3069167.11346  20740485.4384                   20740481.1294
   7205965.04347   5601670.77744  22288391.1484                   22288388.3954
  -5491299.57648  -4276191.95746  20092267.1414                   20092261.3594
   9634237.12947   7490142.90244  23151052.4064                   23151050.6564
  -8421924.48347  -6521662.80244  23086162.2894                   23086158.3244
  -5854267.13346  -4558723.80544  23807762.0314                   23807760.4964
 11  8 19 14 53 30.0000000  0  9G03G06G13G16G20G23G32G19G07
  -7854713.98448  -6114010.57445  21205067.0164                   21205064.2934
  -4370178.95747  -3402805.30545  21996782.0084                   21996780.5634
  -8805144.14848  -6850411.73445  21286284.4534                   21286280.9694
   4051655.00048   3149818.96146  20760181.7734                   20760177.6094
   7329770.60947   5698142.59045  22311950.7114                   22311947.8874
  -5478750.97348  -4266413.81246  20094654.8834                   20094648.9304
   9771361.67647   7596993.12544  23177147.1094                   23177144.5824
  -8466431.19147  -6556343.33644  23077692.8984                   23077689.6484
  -5866929.59846  -4568590.64844  23805351.8984                   23805350.5354
 11  8 19 14 54  0.0000000  0  9G03G06G13G16G20G23G32G19G07
  -7861161.55948  -6119034.66046  21203839.5234                   21203836.8674
  -4342621.91847  -3381332.30545  22002025.9224                   22002024.4774
  -8832611.87148  -6871815.14846  21281057.8674                   21281054.3954
   4155548.48448   3230774.90246  20779951.7114                   20779947.8284
   7453803.85947   5794791.84445  22335553.6724                   22335550.6914
  -5465784.13348  -4256309.77746  20097122.4064                   20097116.6724
   9908582.80947   7703918.60944  23203259.2974                   23203257.2704
  -8510840.88747  -6590948.31644  23069242.0554                   23069238.3714
  -5879575.85946  -4578444.83644  23802946.4304                   23802944.7854
 11  8 19 14 54 30.0000000  0 10G03G06G13G16G20G23G32G10G19G07
  -7867141.15248  -6123694.08646  21202701.8284                   21202699.0904
  -4314570.52747  -3359474.09445  22007363.9224                   22007362.0864
  -8859857.37148  -6893045.39545  21275872.7274                   21275869.1214
   4259829.51648   3312032.84046  20799795.9224                   20799791.7584
   7578062.44947   5891616.68445  22359199.1414                   22359196.2854
  -5452396.51248  -4245877.85546  20099670.0164                   20099664.3674
  10045897.84047   7810917.27344  23229389.7344                   23229387.5784
  -4757421.62956  -3703693.87953  24514846.2114                   24514845.0044
  -8555150.06246  -6625474.96544  23060810.3204                   23060806.4064
  -5892206.73446  -4588287.05544  23800542.4454                   23800540.8204
 11  8 19 14 55  0.0000000  0 10G03G06G13G16G20G23G32G10G19G07
  -7872663.54748  -6127997.25046  21201651.0864                   21201648.1254
  -4286037.03147  -3337240.22745  22012793.5634                   22012791.9774
  -8886891.60248  -6914111.01245  21270728.4224                   21270724.7274
   4364481.90648   3393580.14146  20819710.3444                   20819706.0904
   7702529.06647   5988603.62545  22382884.3594                   22382881.3094
  -5438599.77048  -4235127.14546  20102295.2974                   20102289.6174
  10183290.33246   7917976.28144  23255534.2194                   23255532.3524
  -4772397.97746  -3715363.77343  24511995.6884                   24511994.6764
  -8599369.27347  -6659931.49644  23052395.9144                   23052392.2624
  -5904835.90646  -4598127.94544  23798138.9694                   23798137.1564
 11  8 19 14 55 30.0000000  0 10G03G06G13G16G20G23G32G10G19G07
  -7877723.73448  -6131940.24246  21200688.2814                   21200685.4884
  -4257017.69947  -3314627.75845  22018316.2194                   22018313.5904
  -8913709.66448  -6935008.18045  21265624.9144                   21265621.3404
   4469506.00848   3475417.09046  20839695.8834                   20839691.5704
   7827203.52747   6085752.50845  22406609.5394                   22406605.9654
  -5424389.60248  -4224054.28946  20104999.3204                   20104993.6374
  10320760.16447   8025095.56644  23281693.8674                   23281692.2894
  -4786969.79346  -3726718.41443  24509222.8674                   24509221.5354
  -8643492.84447  -6694313.53544  23043999.8914                   23043995.4144
  -5917461.15646  -4607965.75844  23795736.7894                   23795734.4694
 11  8 19 14 56  0.0000000  0 10G03G06G13G16G20G23G32G10G19G07
  -7882319.77748  -6135521.57046  21199813.4384                   21199811.0124
  -4227511.44947  -3291635.87145  22023930.9924                   22023928.9804
  -8940309.19148  -6955735.09046  21260563.3444                   21260559.8284
   4574898.14848   3557540.81646  20859751.2504                   20859747.0514
   7952082.87147   6183061.03945  22430372.4844                   22430369.7384
  -5409764.22348  -4212657.88346  20107782.6174                   20107776.9144
  10458304.28146   8132272.71944  23307867.8444                   23307865.7384
  -4801135.50846  -3737756.63743  24506527.5704                   24506524.8554
  -8687517.60547  -6728618.54744  23035622.1024                   23035617.5634
  -5930083.51646  -4617801.31244  23793335.1484                   23793331.9924
 11  8 19 14 56 30.0000000  0 10G03G06G13G16G20G23G32G10G19G07
  -7886443.98048  -6138735.21546  21199028.6954                   21199026.3794
  -4197511.80547  -3268259.52345  22029639.8444                   22029637.1564
  -8966682.48848  -6976285.70345  21255544.5944                   21255541.0234
   4680661.24648   3639953.59846  20879877.5394                   20879873.1914
   8077168.64147   6280530.43445  22454176.0784                   22454173.4964
  -5394716.19548  -4200932.15246  20110646.3914                   20110640.6604
  10595925.28146   8239509.80144  23334055.7814                   23334054.0474
  -4814888.20746  -3748472.98043  24503910.3834                   24503908.6024
  -8731435.20347  -6762840.05144  23027264.3674                   23027259.5514
  -5942698.00046  -4627630.74244  23790934.4694                   23790932.0204
 11  8 19 14 57  0.0000000  0 10G03G06G13G16G20G23G32G10G19G07
  -7890096.38748  -6141581.23046  21198333.6724                   21198331.0664
  -4167020.28147  -3244499.88745  22035442.0704                   22035439.7114
  -8992830.16048  -6996660.51245  21250568.8754                   21250565.5634
   4786789.84848   3722651.18446  20900073.0004                   20900069.0554
   8202455.27347   6378156.33245  22478017.3524                   22478014.0634
  -5379246.82048  -4188878.09846  20113589.9614                   20113583.9144
  10733617.42246   8346802.28944  23360258.3134                   23360256.3324
  -4828229.41446  -3758868.72343  24501371.0084                   24501370.0864
  -8775245.36347  -6796977.84844  23018927.5474                   23018923.0554
  -5955308.41446  -4637456.98044  23788534.3204                   23788532.3014
 11  8 19 14 57 30.0000000  0 10G03G06G13G16G20G23G32G10G19G07
  -7893274.67648  -6144057.79346  21197728.8134                   21197726.2154
  -4136035.75847  -3220356.09845  22041338.5704                   22041336.2704
  -9018749.62948  -7016857.47346  21245636.5474                   21245633.5474
   4893281.18048   3805631.42246  20920337.6254                   20920333.5084
   8327939.36747   6475936.10244  22501895.8754                   22501893.5204
  -5363353.79348  -4176493.92246  20116614.1884                   20116608.5394
  10871377.88346   8454148.02044  23386473.8204                   23386471.0904
  -4841157.76446  -3768942.73043  24498911.0004                   24498909.8674
  -8818944.98847  -6831029.49644  23010611.9534                   23010608.0044
  -5967914.87546  -4647280.18044  23786135.8524                   23786132.9774
 11  8 19 14 58  0.0000000  0 10G03G06G13G16G20G23G32G10G19G07
  -7895976.25448  -6146162.91046  21197214.7034                   21197212.0084
  -4104557.01647  -3195827.18845  22047328.6094                   22047325.6564
  -9044438.52348  -7036874.78146  21240748.1724                   21240744.7424
   5000132.67248   3888892.30146  20940671.1254                   20940666.7624
   8453618.39147   6573867.76245  22525812.7344                   22525809.4884
  -5347035.28948  -4163778.20347  20119719.3834                   20119713.9454
  11009204.03947   8561544.96944  23412700.3054                   23412698.3714
  -4853671.53546  -3778693.72343  24496529.6334                   24496528.6844
  -8862530.76647  -6864992.44144  23002318.3674                   23002313.5084
  -5980517.95347  -4657100.71944  23783737.5314                   23783735.2584
 11  8 19 14 58 30.0000000  0 10G03G06G13G16G20G23G32G10G19G07
  -7898189.37548  -6147887.37546  21196793.6334                   21196791.1644
  -4072573.25447  -3170904.75445  22053415.1334                   22053412.2234
  -9069885.04748  -7056703.23045  21235905.8594                   21235902.2854
   5107351.19548   3972439.17646  20961074.0394                   20961069.8054
   8579498.69547   6671956.26245  22549766.3444                   22549763.5164
  -5330279.81648  -4150721.98446  20122908.2274                   20122902.5124
  11147102.60946   8668998.31344  23438942.4384                   23438939.5704
  -4865759.53946  -3788112.91043  24494229.6724                   24494228.4964
  -8905989.95747  -6898856.75044  22994047.6954                   22994044.0664
  -5993108.53146  -4666911.51644  23781341.3444                   23781339.0314
 11  8 19 14 59  0.0000000  0 10G03G06G13G16G20G23G32G10G19G07
  -7899918.08248  -6149234.41846  21196465.0164                   21196461.6454
  -4040090.00847  -3145593.10945  22059596.2194                   22059593.6994
  -9095092.87948  -7076345.68445  21231108.7894                   21231105.3324
   5214927.25448   4056264.66046  20981545.0084                   20981540.7504
   8705570.63747   6770194.08245  22573757.4454                   22573754.0594
  -5313091.78548  -4137328.71146  20126178.6414                   20126172.9774
  11285064.31347   8776500.88744  23465195.2504                   23465193.4064
  -4877426.80546  -3797204.23843  24492009.4534                   24492007.8754
  -8949325.93447  -6932625.00844  22985800.7894                   22985796.9534
  -6005693.75847  -4676718.16044  23778947.0164                   23778944.2154
 11  8 19 14 59 30.0000000  0 10G03G06G13G16G20G23G32G10G19G07
  -7901158.99648  -6150201.35246  21196228.6954                   21196225.5864
  -4007105.27347  -3119890.70345  22065872.5554                   22065870.2194
  -9120058.78948  -7095799.62945  21226357.9224                   21226354.4454
   5322858.98048   4140367.28946  21002083.8914                   21002079.0514
   8831831.50047   6868579.11745  22597783.6954                   22597780.5824
  -5295468.50048  -4123596.28146  20129532.1954                   20129526.5824
  11423087.03947   8884050.98444  23491460.5234                   23491459.1914
  -4888671.16446  -3805966.03143  24489869.3984                   24489867.7234
  -8992534.61347  -6966294.12944  22977579.5704                   22977574.7274
  -6018273.29146  -4686520.37344  23776552.8284                   23776550.5314
 11  8 19 15  0  0.0000000  0 10G03G06G13G16G20G23G32G10G19G07
  -7901909.69548  -6150786.29346  21196085.8204                   21196082.8634
  -3973617.84447  -3093796.58645  22072244.9844                   22072242.5944
  -9144780.17648  -7115063.03946  21221653.5314                   21221650.0984
   5431143.99248   4224745.19946  21022689.8834                   21022685.5044
   8958278.81647   6967109.43844  22621845.9534                   22621842.8324
  -5277408.10248  -4109523.24246  20132969.0704                   20132963.8094
  11561168.55947   8991646.91044  23517736.0784                   23517734.6094
  -4899490.72746  -3814396.83643  24487810.7584                   24487808.6254
  -9035612.55547  -6999861.37544  22969381.7974                   22969377.0274
  -6030847.23446  -4696318.22744  23774159.6724                   23774157.9924
 11  8 19 15  0 30.0000000  0 10G03G06G13G16G20G23G32G10G19G07
  -7902160.63748  -6150981.81646  21196037.8524                   21196035.1564
  -3939619.19547  -3067304.10545  22078715.0634                   22078711.7584
  -9169247.14848  -7134128.19145  21216997.6644                   21216994.6994
   5539787.17248   4309402.21146  21043363.5394                   21043359.1524
   9084917.32047   7065788.74244  22645944.1564                   22645941.5434
  -5258901.14848  -4095102.23846  20136490.9694                   20136485.6884
  11699313.37147   9099292.14144  23544023.7974                   23544022.6524
  -4909876.70346  -3822489.78143  24485834.2664                   24485832.8164
  -9078549.26247  -7033318.54344  22961210.6644                   22961207.1604
  -6043408.87846  -4706106.48444  23771769.6024                   23771767.2234
 11  8 19 15  1  0.0000000  0 10G03G06G13G16G20G23G32G10G19G07
  -7901919.09048  -6150793.58646  21196084.4924                   21196081.0474
  -3905118.04747  -3040420.07845  22085280.6564                   22085277.5984
  -9193467.05948  -7153000.83646  21212388.8444                   21212385.1294
   5648775.68748   4394328.32046  21064103.8284                   21064099.4694
   9211733.24647   7164606.28944  22670077.4454                   22670073.4304
  -5239955.55548  -4080339.44947  20140096.3754                   20140090.7664
  11837508.83646   9206976.83644  23570322.5164                   23570321.1454
  -4919837.45345  -3830251.38343  24483938.2584                   24483937.0164
  -9121351.10546  -7066670.61744  22953065.9304                   22953061.4144
  -6055968.21146  -4715892.95744  23769378.9064                   23769377.4734
 11  8 19 15  1 30.0000000  0 10G03G06G13G16G20G23G32G10G19G07
  -7901168.67648  -6150208.82046  21196227.0004                   21196224.1804
  -3870099.14147  -3013132.60945  22091943.9304                   22091941.4344
  -9217423.25448  -7171667.98845  21207830.0394                   21207826.4774
   5758121.17248   4479532.58246  21084911.4694                   21084907.2504
   9338738.36747   7263571.28144  22694244.6644                   22694241.9614
  -5220555.32848  -4065222.39547  20143787.7974                   20143782.0634
  11975766.41046   9314709.93844  23596631.8914                   23596630.0594
  -4929357.62945  -3837669.62943  24482126.4384                   24482126.0434
  -9164000.87947  -7099904.21144  22944950.4384                   22944945.5704
  -6068511.82446  -4725667.18444  23766992.0234                   23766990.4774
 11  8 19 15  2  0.0000000  0 10G03G06G13G16G20G23G32G10G19G07
  -7899916.25448  -6149232.89546  21196465.1414                   21196461.4414
  -3834570.64847  -2985448.05145  22098704.8754                   22098702.6884
  -9241122.54748  -7190134.95345  21203320.2584                   21203316.6604
   5867811.73448   4565005.73446  21105784.9694                   21105780.4534
   9465920.18047   7362673.93444  22718447.0004                   22718444.1484
  -5200707.64848  -4049756.68046  20147565.1414                   20147559.3834
  12114074.39146   9422482.29744  23622951.1094                   23622948.9534
  -4938444.91845  -3844750.66843  24480397.3594                   24480396.5234
  -9206504.55547  -7133023.96945  22936861.9924                   22936857.9224
  -6081049.33246  -4735436.67644  23764606.2734                   23764604.4384
 11  8 19 15  2 30.0000000  0 10G03G06G13G16G20G23G32G10G19G07
  -7898151.69148  -6147857.89546  21196800.7974                   21196797.3524
  -3798523.80547  -2957359.60545  22105564.6644                   22105562.1884
  -9264554.46948  -7208393.58246  21198861.0084                   21198857.1764
   5977852.55148   4650751.80946  21126724.9614                   21126720.7814
   9593283.97347   7461918.39545  22742683.4844                   22742681.0274
  -5180402.76648  -4033934.69546  20151428.7034                   20151423.0004
  12252437.66046   9530297.76244  23649280.0704                   23649279.2974
  -4947090.07045  -3851487.08642  24478752.8134                   24478751.0394
  -9248850.98447  -7166021.17245  22928803.5944                   22928799.8284
  -6093573.24246  -4745195.54044  23762223.2114                   23762220.6414
 11  8 19 15  3  0.0000000  0 10G03G06G13G16G20G23G32G10G19G07
  -7895874.46548  -6146083.43446  21197234.8134                   21197230.8244
  -3761959.32447  -2928867.78945  22112522.3834                   22112520.1054
  -9287718.22748  -7226443.26246  21194453.2114                   21194449.7584
   6088239.00048   4736767.21546  21147730.8594                   21147726.4224
   9720823.99247   7561300.18844  22766953.5554                   22766951.2074
  -5159641.25048  -4017756.88747  20155379.6334                   20155374.1294
  12390851.85246   9638152.90244  23675619.9224                   23675618.4694
  -4955293.24645  -3857879.10942  24477190.2504                   24477189.8484
  -9291038.66847  -7198894.68745  22920775.4454                   22920771.2194
  -6106085.68046  -4754945.48844  23759842.5234                   23759839.1804
 11  8 19 15  3 30.0000000  0 10G03G06G13G16G20G23G32G10G19G07
  -7893086.58248  -6143911.04346  21197765.0784                   21197761.5904
  -3724880.57047  -2899975.25045  22119578.4454                   22119575.6134
  -9310615.73848  -7244285.46146  21190096.0474                   21190092.6334
   6198964.37148   4823046.69946  21168801.0634                   21168796.9654
   9848533.68447   7660814.15644  22791256.2584                   22791253.0984
  -5138424.80148  -4001224.60047  20159416.9454                   20159411.2074
  12529310.09046   9746042.35244  23701968.0474                   23701966.3244
  -4963057.37145  -3863929.12142  24475713.0864                   24475712.8404
  -9333068.55547  -7231645.24645  22912777.3204                   22912773.3674
  -6118591.24646  -4764690.07044  23757462.8054                   23757459.8484
 11  8 19 15  4  0.0000000  0 10G03G06G13G16G20G23G32G10G19G07
  -7889782.65648  -6141336.55146  21198393.1334                   21198390.5204
  -3687283.47747  -2870678.81645  22126732.8364                   22126730.5274
  -9333241.21148  -7261915.69946  21185790.8674                   21185787.0234
   6310028.53148   4909590.17646  21189935.7734                   21189932.0394
   9976412.61347   7760460.02744  22815590.7814                   22815588.1564
  -5116748.67648  -3984334.12147  20163541.7344                   20163535.9924
  12667812.50046   9853966.20744  23728324.0704                   23728322.9414
  -4970378.08245  -3869633.55143  24474320.3054                   24474320.1884
  -9374934.75847  -7264268.26245  22904810.9924                   22904806.4064
  -6131087.57046  -4774427.43744  23755084.2274                   23755082.2664
 11  8 19 15  4 30.0000000  0 10G03G06G13G16G20G23G32G10G19G07
  -7885961.71148  -6138359.18746  21199120.3914                   21199117.3444
  -3649168.60547  -2840978.91445  22133985.8364                   22133983.6094
  -9355593.54348  -7279333.09046  21181536.8594                   21181533.4884
   6421427.71948   4996394.72746  21211134.5474                   21211130.4964
  10104456.29747   7860234.27344  22839956.9534                   22839953.9304
  -5094612.44548  -3967085.11346  20167754.2504                   20167748.3714
  12806355.10946   9961921.43843  23754687.9774                   23754685.9454
  -4977255.15645  -3874992.28143  24473012.8054                   24473010.9454
  -9416634.70347  -7296761.71545  22896875.9534                   22896871.7974
  -6143576.13347  -4784158.74244  23752708.1644                   23752705.6994
 11  8 19 15  5  0.0000000  0 10G03G06G13G16G20G23G32G10G19G07
  -7881615.93048  -6134972.86346  21199947.5234                   21199944.1954
  -3610529.03547  -2810870.16845  22141338.2504                   22141336.6954
  -9377664.43048  -7296531.18046  21177337.2664                   21177333.7664
   6533165.29348   5083462.94946  21232397.3984                   21232393.0434
  10232668.12147   7960139.53944  22864354.7584                   22864352.0434
  -5072008.42248  -3949471.59847  20172055.6094                   20172049.8914
  12944941.18846  10069910.48843  23781059.8674                   23781058.0204
  -4983681.31646  -3879999.71543  24471789.6174                   24471788.6214
  -9458159.55147  -7329118.71145  22888974.0234                   22888969.6884
  -6156051.53546  -4793879.81244  23750334.0634                   23750331.5704
 11  8 19 15  5 30.0000000  0 10G03G06G13G16G20G23G32G10G19G07
  -7876751.52148  -6131182.42646  21200873.1254                   21200870.4104
  -3571372.57847  -2780358.64545  22148790.2664                   22148787.6954
  -9399459.67048  -7313514.48146  21173189.7114                   21173185.7894
   6645229.81248   5170785.93846  21253722.3674                   21253718.2934
  10361036.30847   8060166.65844  22888782.2344                   22888779.2194
  -5048943.41848  -3931498.87947  20176444.8134                   20176438.8284
  13083559.39546  10177924.61344  23807438.2114                   23807437.0514
  -4989663.99946  -3884661.49343  24470651.0004                   24470649.0234
  -9499514.55947  -7361343.36745  22881104.0314                   22881099.0394
  -6168522.88347  -4803597.72344  23747960.8524                   23747958.3014
 11  8 19 15  6  0.0000000  0 10G03G06G13G16G20G23G32G10G19G07
  -7871362.34847  -6126983.07046  21201898.6254                   21201896.4384
  -3531693.88747  -2749440.20745  22156340.6724                   22156338.1684
  -9420972.55947  -7330277.75846  21169095.7274                   21169092.5594
   6757622.94548   5258364.97746  21275110.4614                   21275106.1484
  10489561.92647   8160316.41045  22913239.7734                   22913236.8954
  -5025411.25848  -3913162.14546  20180923.0554                   20180917.0434
  13222211.50847  10285965.14143  23833822.6414                   23833821.0784
  -4995197.68046  -3888973.42643  24469598.4844                   24469596.2584
  -9540692.10547  -7393429.73445  22873267.9064                   22873263.3134
  -6180986.07447  -4813309.28144  23745589.1884                   23745587.0904
 11  8 19 15  6 30.0000000  0 10G03G06G13G16G20G23G32G10G19G07
  -7865442.89848  -6122370.51246  21203025.0944                   21203022.5824
  -3491489.28147  -2718111.96945  22163991.4224                   22163988.8524
  -9442197.61748  -7346816.76246  21165056.9774                   21165053.4884
   6870344.88747   5346200.24246  21296560.6254                   21296556.0474
  10618245.14547   8260588.99644  22937727.7504                   22937724.7464
  -5001407.30548  -3894457.77747  20185490.5084                   20185484.5434
  13360897.62547  10394032.18443  23860214.4454                   23860212.3014
  -5000277.85246  -3892931.98843  24468631.1174                   24468630.1094
  -9581685.97747  -7425372.99645  22865466.8364                   22865462.5394
  -6193438.61247  -4823012.53944  23743219.8914                   23743216.9064
 11  8 19 15  7  0.0000000  0 10G03G06G13G16G20G23G32G10G19G07
  -9434415.43748  -7344946.52046  20904459.5164                   20904456.9734
  -5026180.80547  -3913975.51245  21871949.4384                   21871946.7424
 -11038557.35548  -8590733.44546  20861279.6724                   20861276.0664
   5407972.34848   4206689.16046  21018280.2894                   21018276.0864
   9171662.70347   7133381.83644  22662452.0784                   22662449.2704
  -6552353.11748  -5102987.00047  19890355.2504                   19890349.7384
  11924195.53546   9274523.96943  23586818.3524                   23586817.1414
  -6580328.31946  -5124140.12243  24167957.9614                   24167956.4104
 -11197918.84447  -8684775.19145  22557907.7584                   22557903.8404
  -7781305.57446  -6060311.45344  23441058.8984                   23441056.0004
 11  8 19 15  7 30.0000000  0 10G03G06G13G16G20G23G32G10G19G07
  -9427434.19147  -7339506.59046  20905787.5944                   20905785.3324
  -4984926.68447  -3881829.46945  21879799.0234                   21879796.7304
 -11059203.99648  -8606821.73446  20857350.5634                   20857347.2194
   5521339.10948   4295026.86346  21039853.3914                   21039848.9104
   9300647.09847   7233889.10244  22686997.0554                   22686994.6054
  -6527404.87148  -5083546.81647  19895103.0004                   19895097.1334
  12062937.03946   9382634.19943  23613220.1174                   23613218.5634
  -6584502.89146  -5127393.03943  24167163.1884                   24167161.9414
 -11238540.48447  -8716428.36345  22550178.0554                   22550173.8054
  -7793742.84447  -6070002.81244  23438691.8054                   23438689.4384
 11  8 19 15  8  0.0000000  0 10G03G06G13G16G20G23G32G10G19G07
  -9419920.69548  -7333651.92246  20907217.6804                   20907214.9964
  -4943148.32047  -3849274.92245  21887749.6884                   21887747.0944
 -11079559.18448  -8622682.91046  20853477.2664                   20853473.3484
   5635022.41448   4383611.23846  21061486.6724                   21061482.0824
   9429775.38347   7334508.47744  22711569.8444                   22711566.5354
  -6501983.71148  -5063738.14547  19899940.4304                   19899934.8054
  12201700.65647   9490761.59444  23639626.2274                   23639625.4454
  -6588224.42446  -5130292.92343  24166455.2504                   24166453.4184
 -11278972.68047  -8747933.92645  22542483.8984                   22542479.0124
  -7806174.44346  -6079689.78344  23436326.2344                   23436324.5274
 11  8 19 15  8 30.0000000  0 10G03G06G13G16G20G23G32G10G19G07
  -9411876.21548  -7327383.49646  20908748.6334                   20908745.7584
  -4900848.43047  -3816313.97745  21895798.7814                   21895796.3094
 -11099623.87948  -8638317.73446  20849658.8984                   20849655.5824
   5749016.12548   4472437.48046  21083178.8524                   21083174.5784
   9559041.65247   7435235.39544  22736168.4384                   22736165.5274
  -6476091.21948  -5043562.19146  19904867.7344                   19904861.7704
  12340480.07847   9598901.33243  23666035.3204                   23666034.3554
  -6591495.26646  -5132841.66043  24165832.5554                   24165830.8794
 -11319215.62547  -8779292.02044  22534826.0634                   22534820.8554
  -7818604.66046  -6089375.59844  23433960.0864                   23433958.2624
 11  8 19 15  9  0.0000000  0 10G03G06G13G16G20G23G32G10G19G07
  -9403294.86748  -7320696.72346  20910381.4304                   20910378.9964
  -4858022.62147  -3782943.23445  21903948.3754                   21903945.5514
 -11119392.02748  -8653721.46946  20845897.2814                   20845893.8094
   5863321.52748   4561506.60546  21104930.5314                   21104926.2974
   9688446.71947   7536070.44144  22760793.2114                   22760790.4774
  -6449722.19148  -5023014.91447  19909885.5554                   19909879.4614
  12479276.46946   9707054.27743  23692447.7194                   23692446.5234
  -6594310.30546  -5135035.19543  24165297.2344                   24165295.4184
 -11359262.36747  -8810497.23845  22527205.5944                   22527200.9734
  -7831029.65246  -6099057.39144  23431596.1174                   23431593.6484
 11  8 19 15  9 30.0000000  0 10G03G06G13G16G20G23G32G10G19G07
  -9394182.94948  -7313596.51646  20912115.2424                   20912112.7234
  -4814678.41847  -3749168.53145  21912196.4304                   21912194.1484
 -11138868.76048  -8668898.13746  20842191.0314                   20842187.7624
   5977927.55548   4650809.98446  21126739.5474                   21126735.4884
   9817979.14547   7637004.75044  22785442.8984                   22785439.9144
  -6422882.77348  -5002101.09047  19914992.8594                   19914987.3444
  12618078.97746   9815211.96943  23718860.7734                   23718860.3634
  -6596676.73846  -5136879.16443  24164845.9224                   24164845.6024
 -11399117.80147  -8841553.39145  22519621.2034                   22519617.1994
  -7843458.11347  -6108741.88744  23429231.3054                   23429228.9494
 11  8 19 15 10  0.0000000  0 10G03G06G13G16G20G23G32G10G19G07
  -9384536.89148  -7306080.09846  20913951.2344                   20913948.3284
  -4770813.32047  -3714987.96945  21920543.8204                   21920540.7034
 -11158050.10948  -8683844.62946  20838541.1414                   20838537.3164
   6092833.17248   4740346.80946  21148605.4064                   21148601.2584
   9947637.47347   7738037.15244  22810115.2034                   22810112.3094
  -6395569.71548  -4980818.19546  19920190.2664                   19920185.0744
  12756886.77046   9923373.77744  23745275.3674                   23745274.5274
  -6598591.19546  -5138370.97343  24164482.5864                   24164480.9104
 -11438776.92247  -8872456.56245  22512074.1884                   22512070.2234
  -7855888.60947  -6118427.98844  23426865.5314                   23426863.0394
 11  8 19 15 10 30.0000000  0 10G03G06G13G16G20G23G32G10G19G07
  -9374352.29748  -7298144.03146  20915889.2504                   20915886.2114
  -4726424.51647  -3680399.31245  21928990.9844                   21928987.9694
 -11176931.42248  -8698557.33246  20834948.0084                   20834944.2854
   6208037.92248   4830116.73046  21170528.3364                   21170523.9224
  10077420.95747   7839167.07844  22834812.5394                   22834810.0044
  -6367779.12948  -4959163.20347  19925478.6954                   19925473.1024
  12895699.32046  10031539.33243  23771689.9384                   23771689.1994
  -6600050.72746  -5139508.30943  24164204.3674                   24164202.7034
 -11478234.21147  -8903202.48845  22504565.8054                   22504561.0784
  -7868319.30546  -6128114.23844  23424499.5084                   23424497.8404
 11  8 19 15 11  0.0000000  0 10G03G06G13G16G20G23G32G10G19G07
  -9363625.28948  -7289785.29746  20917930.7814                   20917927.3594
  -4681509.56647  -3645400.65245  21937538.4304                   21937535.4104
 -11195508.05948  -8713032.62946  20831412.7114                   20831409.2894
   6323540.98048   4920119.09446  21192507.4774                   21192503.5274
  10207328.76647   7940393.87144  22859533.6174                   22859530.8014
  -6339507.66048  -4937133.49247  19930858.9064                   19930853.0004
  13034515.98846  10139708.07044  23798106.2894                   23798105.3554
  -6601052.01646  -5140288.45743  24164013.9534                   24164012.0984
 -11517484.47347  -8933787.06645  22497097.0474                   22497092.0634
  -7880748.96947  -6137799.68444  23422135.3444                   23422133.0354
 11  8 19 15 11 30.0000000  0 10G03G06G13G16G20G23G32G10G19G07
  -9352360.13748  -7281007.24246  20920074.1094                   20920071.1334
  -4636073.58247  -3609995.99245  21946184.4774                   21946181.6214
 -11213783.52048  -8727273.23446  20827935.4774                   20827931.5514
   6439333.78948   5010347.24646  21214542.4144                   21214538.0984
  10337351.91447   8041710.53544  22884276.0784                   22884273.4184
  -6310759.45348  -4914732.30147  19936329.2274                   19936323.7234
  13173328.28946  10247873.39143  23824521.3834                   23824520.9964
  -6601599.73046  -5140715.23843  24163910.1334                   24163907.7854
 -11556530.25847  -8964212.34445  22489666.7734                   22489661.7584
  -7893183.30946  -6147488.77744  23419769.0314                   23419767.0354
 11  8 19 15 12  0.0000000  0 10G03G06G13G16G20G23G32G10G19G07
  -9340555.61748  -7271808.90246  20922320.1334                   20922317.3204
  -4590117.12547  -3574185.77345  21954929.7974                   21954926.8484
 -11231756.23848  -8741277.94546  20824515.1484                   20824511.6604
   6555412.64148   5100798.28546  21236631.2664                   21236627.5784
  10467486.23846   8143113.84844  22909039.6094                   22909036.7854
  -6281534.03148  -4891959.25047  19941890.5704                   19941884.6174
  13312132.40646  10356032.35943  23850935.1334                   23850934.3914
  -6601694.47346  -5140789.08243  24163891.7584                   24163890.2894
 -11595369.43447  -8994476.61345  22482276.0474                   22482271.0234
  -7905623.96147  -6157182.75844  23417400.8204                   23417398.7854
 11  8 19 15 12 30.0000000  0 10G03G06G13G16G20G23G32G10G19G07
  -9328207.00448  -7262186.59446  20924670.5164                   20924667.3134
  -4543636.85947  -3537967.39145  21963775.0084                   21963771.9734
 -11249420.87148  -8755042.58246  20821153.6804                   20821149.9264
   6671777.59848   5191472.24646  21258774.9144                   21258770.9104
  10597731.59046   8244603.65244  22933824.0704                   22933821.8204
  -6251826.94548  -4868810.87547  19947543.7344                   19947538.0164
  13450928.58646  10464185.16443  23877346.8284                   23877346.1954
  -6601331.88346  -5140506.53543  24163960.3524                   24163959.3324
 -11633995.82047  -9024575.08645  22474925.1724                   22474920.4304
  -7918068.32847  -6166879.64144  23415032.8054                   23415030.9384
 11  8 19 15 13  0.0000000  0 10G03G06G13G16G20G23G32G10G19G07
  -9315311.13748  -7252137.84846  20927124.3134                   20927120.9144
  -4496630.74647  -3501339.24245  21972719.5784                   21972716.8204
 -11266772.90648  -8768563.64146  20817851.6804                   20817847.9344
   6788427.51248   5282368.27346  21280972.6884                   21280968.2074
  10728086.58247   8346178.91044  22958630.6484                   22958627.6914
  -6221634.84448  -4845284.57047  19953289.2344                   19953283.4574
  13589715.67246  10572330.87143  23903757.1564                   23903756.4924
  -6600509.67646  -5139865.84443  24164117.3674                   24164115.8014
 -11672404.70747  -9054504.04345  22467615.7114                   22467612.2734
  -7930515.10547  -6176578.41444  23412665.0864                   23412661.9734
 11  8 19 15 13 30.0000000  0 10G03G06G13G16G20G23G32G10G19G07
  -9301870.49248  -7241664.60946  20929681.9694                   20929679.1094
  -4449102.32847  -3464304.12145  21981763.6414                   21981761.1604
 -11283814.50048  -8781842.78946  20814608.9694                   20814605.2774
   6905355.69148   5373481.11746  21303223.5784                   21303219.3324
  10858544.06347   8447834.02344  22983455.9534                   22983453.1174
  -6190960.43048  -4821382.44547  19959126.2034                   19959120.2154
  13728487.03946  10680464.32843  23930164.3284                   23930163.6134
  -6599230.59046  -5138869.13343  24164361.0634                   24164359.4924
 -11710597.09447  -9084264.31245  22460348.4924                   22460344.3444
  -7942969.00047  -6186282.72744  23410294.5634                   23410292.5554
 11  8 19 15 14  0.0000000  0 10G03G06G13G16G20G23G32G10G19G07
  -9287883.14148  -7230765.37546  20932343.3364                   20932340.4734
  -4401051.04348  -3426861.54345  21990907.6724                   21990905.0514
 -11300542.93748  -8794877.93446  20811425.5084                   20811421.6724
   7022559.37948   5464808.65246  21325525.8914                   21325521.8794
  10989100.87946   8549566.53944  23008299.9614                   23008296.7934
  -6159802.16048  -4797103.28147  19965055.6804                   19965049.7304
  13867240.09447  10788583.53943  23956568.9534                   23956567.8014
  -6597493.57846  -5137515.59443  24164691.0474                   24164689.6414
 -11748569.28547  -9113853.02745  22453122.8444                   22453117.9224
  -7955430.57047  -6195992.97744  23407923.5704                   23407920.8244
 11  8 19 15 14 30.0000000  0 10G03G06G13G16G20G23G32G10G19G07
  -9273347.11748  -7219438.61546  20935109.9224                   20935106.7854
  -4352476.75447  -3389011.44545  22000151.2584                   22000148.5394
 -11316955.90248  -8807667.25246  20808302.3674                   20808298.6214
   7140035.72748   5556348.64046  21347881.2424                   21347877.0864
  11119754.35147   8651374.38044  23033162.5164                   23033159.6884
  -6128158.72848  -4772446.07747  19971077.2734                   19971071.5864
  14005972.03846  10896686.28143  23982968.4144                   23982967.9964
  -6595297.94946  -5135804.69543  24165109.2584                   24165108.2234
 -11786318.16047  -9143267.71445  22445939.1484                   22445934.9694
  -7967899.34747  -6205708.88944  23405551.0314                   23405548.1484
 11  8 19 15 15  0.0000000  0 10G03G06G13G16G20G23G32G10G19G07
  -9258257.27348  -7207680.29746  20937981.3054                   20937978.0274
  -4303375.41047  -3350750.67245  22009494.6024                   22009492.5124
 -11333047.05148  -8820205.80546  20805240.1644                   20805236.3484
   7257785.49248   5648101.68846  21370288.7114                   21370284.2274
  11250504.57847   8753257.58644  23058043.4454                   23058040.7814
  -6096024.93748  -4747406.77047  19977191.9614                   19977186.3554
  14144683.91046  11004773.37543  24009364.5234                   24009363.7234
  -6592639.09047  -5133732.81643  24165614.8754                   24165613.5514
 -11823836.95347  -9172503.09845  22438799.8524                   22438795.4614
  -7980372.46146  -6215428.17244  23403176.7424                   23403174.3244
 11  8 19 15 15 30.0000000  0 10G03G06G13G16G20G23G32G10G19G07
  -9242617.03148  -7195493.09446  20940957.3914                   20940954.5124
  -4253751.46547  -3312082.67645  22018937.8444                   22018935.5474
 -11348818.67248  -8832495.35946  20802238.9534                   20802235.4614
   7375801.27348   5740062.01246  21392746.1954                   21392741.8444
  11381343.60947   8855210.00444  23082942.0634                   23082938.9344
  -6063404.35949  -4721988.14547  19983399.6484                   19983393.7584
  14283368.10246  11112838.90243  24035755.2504                   24035754.1094
  -6589521.08246  -5131303.19543  24166208.3594                   24166207.0634
 -11861127.52047  -9201560.67245  22431703.4844                   22431699.0664
  -7992855.10546  -6225154.87544  23400801.5474                   23400799.0044
 11  8 19 15 16  0.0000000  0 10G03G06G13G16G20G23G32G10G19G07
  -9226415.76248  -7182868.72346  20944040.3594                   20944037.5394
  -4203595.82047  -3273000.36345  22028481.7584                   22028479.3094
 -11364259.68448  -8844527.30546  20799300.8054                   20799296.6254
   7494088.98848   5832234.24646  21415255.4614                   21415251.2664
  11512277.08947   8957236.04044  23107857.4144                   23107855.1414
  -6030286.65649  -4696182.14547  19989701.6254                   19989695.6564
  14422030.93446  11220887.77743  24062141.5944                   24062141.0824
  -6585934.02746  -5128508.08643  24166890.4144                   24166889.9104
 -11898177.43747  -9230430.71545  22424652.8594                   22424648.5234
  -8005338.96147  -6234882.50844  23398426.0164                   23398423.6954
 11  8 19 15 16 30.0000000  0 10G03G06G13G16G20G23G32G10G19G07
  -9209659.72348  -7169812.07046  20947228.9924                   20947225.7274
  -4152916.38347  -3233509.91045  22038125.2734                   22038123.2774
 -11379375.75448  -8856306.05146  20796423.9304                   20796419.9804
   7612638.03148   5924610.10246  21437815.0084                   21437810.1414
  11643294.69147   9059327.60944  23132789.2974                   23132786.8014
  -5996678.57848  -4669994.03547  19996096.6954                   19996091.5864
  14560661.63346  11328911.64143  24088522.2344                   24088521.4884
  -6581885.19546  -5125353.14543  24167661.2734                   24167659.8244
 -11934991.89147  -9259117.28545  22417647.6334                   22417643.0234
  -8017832.21146  -6244617.49244  23396048.4224                   23396046.3364
 11  8 19 15 17  0.0000000  0 10G03G06G13G16G20G23G32G10G19G07
  -9192338.44148  -7156314.99246  20950525.1254                   20950521.8674
  -4101703.60247  -3193603.88345  22047870.7734                   22047868.9224
 -11394155.16448  -8867822.46146  20793611.5234                   20793607.7304
   7731454.37948   6017194.24246  21460424.7424                   21460420.1684
  11774402.14547   9161489.17244  23157738.1484                   23157735.6484
  -5962569.60548  -4643415.61747  20002587.9144                   20002581.7814
  14699266.66046  11436915.42643  24114899.1954                   24114897.8164
  -6577364.71146  -5121830.66443  24168521.6804                   24168520.2544
 -11971558.48047  -9287610.72345  22410689.3524                   22410684.8984
  -8030326.24246  -6254353.06244  23393671.1564                   23393668.5514
 11  8 19 15 17 30.0000000  0 10G03G06G13G16G20G23G32G10G19G07
  -9174452.56648  -7142377.95746  20953928.7664                   20953925.7504
  -4049959.62147  -3153283.90645  22057717.7664                   22057715.2584
 -11408597.80948  -8879076.46146  20790863.2424                   20790859.5434
   7850533.06648   6109982.81646  21483084.6094                   21483080.7274
  11905594.05947   9263716.57044  23182702.9774                   23182700.6644
  -5927960.69948  -4616447.62547  20009173.4144                   20009167.5234
  14837840.85246  11544895.22743  24141267.6804                   24141267.1604
  -6572373.79346  -5117941.64543  24169471.0004                   24169470.0704
 -12007876.30947  -9315910.32445  22403778.4614                   22403773.7074
  -8042823.74246  -6264091.34444  23391292.6254                   23391290.7774
 11  8 19 15 18  0.0000000  0 10G03G06G13G16G20G23G32G10G19G07
  -9156005.00048  -7128003.23046  20957439.3364                   20957436.1764
  -3997688.56647  -3112553.24245  22067664.9384                   22067662.2504
 -11422705.70348  -8890069.63346  20788178.7424                   20788174.8204
   7969867.04348   6202970.31346  21505792.9384                   21505788.7074
  12036862.82447   9366003.84044  23207682.9064                   23207681.0204
  -5892854.89548  -4589092.45747  20015854.0784                   20015848.1054
  14976377.49646  11652845.75443  24167630.7194                   24167629.8244
  -6566916.44946  -5113689.15243  24170509.4454                   24170508.2304
 -12043947.15647  -9344017.47345  22396914.5554                   22396909.5824
  -8055329.68047  -6273836.19944  23388912.4614                   23388910.1524
 11  8 19 15 18 30.0000000  0 10G03G06G13G16G20G23G32G10G19G07
  -9136987.68047  -7113184.53946  20961058.0164                   20961055.1564
  -3944883.75047  -3071406.63345  22077713.1024                   22077710.3244
 -11436469.67248  -8900794.80946  20785559.6884                   20785555.6684
   8089460.27348   6296159.82446  21528551.0164                   21528546.9384
  12168211.98847   9468353.77344  23232677.8834                   23232675.3524
  -5857244.33248  -4561343.96947  20022630.5864                   20022624.6254
  15114880.36746  11760769.96943  24193987.8524                   24193986.5594
  -6560985.07846  -5109067.28943  24171638.0864                   24171636.6484
 -12079760.35247  -9371923.86345  22390099.2894                   22390094.5864
  -8067837.07447  -6283582.20344  23386532.8364                   23386530.7774
 11  8 19 15 19  0.0000000  0 10G03G06G13G16G20G23G32G10G19G07
  -9117400.22748  -7097921.59046  20964785.6954                   20964782.9614
  -3891546.22747  -3029844.92645  22087863.3134                   22087860.2854
 -11449888.74248  -8911251.22346  20783006.0394                   20783002.0824
   8209308.70348   6389548.18845  21551357.1644                   21551353.2344
  12299637.64547   9570763.29344  23257687.3524                   23257683.7114
  -5821128.84048  -4533202.02747  20029502.8524                   20029496.9964
  15253345.59446  11868664.84043  24220336.1024                   24220335.5204
  -6554580.44146  -5104076.61343  24172857.0084                   24172856.1454
 -12115313.91047  -9399627.91845  22383333.1174                   22383329.0594
  -8080347.55546  -6293330.62944  23384151.8284                   23384149.2704
 11  8 19 15 19 30.0000000  0 10G03G06G13G16G20G23G32G10G19G07
  -9097241.98448  -7082213.86746  20968621.3134                   20968618.5274
  -3837676.58647  -2987868.57045  22098114.1954                   22098111.1914
 -11462960.77348  -8921437.22746  20780518.2974                   20780514.3984
   8329408.80548   6483132.65246  21574211.6484                   21574207.3634
  12431135.87547   9673229.36344  23282710.3914                   23282708.1954
  -5784508.00049  -4504666.31247  20036471.8364                   20036466.0234
  15391769.98446  11976527.91843  24246677.7344                   24246677.4344
  -6547702.45246  -5098717.13543  24174165.5474                   24174164.8914
 -12150605.64147  -9427127.96145  22376617.5394                   22376614.0864
  -8092862.61347  -6303082.62144  23381770.1724                   23381767.9774
 11  8 19 15 20  0.0000000  0 10G03G06G13G16G20G23G32G10G19G07
  -9076507.40648  -7066057.04346  20972567.0864                   20972564.0274
  -3783270.43047  -2945474.15245  22108467.6094                   22108464.4344
 -11475678.94548  -8931347.48446  20778098.0944                   20778094.2274
   8449762.32448   6576914.58645  21597114.2664                   21597109.7854
  12562707.64147   9775752.74244  23307748.6174                   23307745.6054
  -5747376.26648  -4475732.50447  20043537.7664                   20043532.1374
  15530155.01246  12084360.31344  24273011.7734                   24273011.0164
  -6540345.77746  -5092984.65243  24175566.1954                   24175564.7854
 -12185628.42647  -9454418.44145  22369952.9064                   22369949.1994
  -8105378.32047  -6312835.10944  23379388.9614                   23379386.0394
 11  8 19 15 20 30.0000000  0 10G03G06G13G16G20G23G32G10G19G07
  -9055198.25848  -7049452.50846  20976622.0784                   20976619.0514
  -3728331.14148  -2902664.31645  22118922.1174                   22118919.1414
 -11488044.87948  -8940983.28146  20775745.2114                   20775741.2704
   8570362.71548   6670888.88745  21620063.8834                   21620059.4184
  12694346.64846   9878328.50844  23332798.8134                   23332795.2344
  -5709735.84048  -4446402.31247  20050700.4064                   20050694.5234
  15668494.63746  12192157.32844  24299336.7194                   24299336.0234
  -6532513.54346  -5086881.60243  24177057.2034                   24177054.8714
 -12220382.23047  -9481499.31645  22363339.3134                   22363336.1414
  -8117898.21547  -6322590.87944  23377006.5704                   23377003.4694
 11  8 19 15 21  0.0000000  0 10G03G06G13G16G20G23G32G10G19G07
  -9033310.35248  -7032396.98046  20980787.3524                   20980784.4924
  -3672855.77348  -2859436.75045  22129478.2504                   22129475.6414
 -11500053.13348  -8950340.37146  20773460.1804                   20773456.2384
   8691210.06348   6765055.61745  21643060.1094                   21643055.9614
  12826052.84846   9980956.63344  23357861.2274                   23357857.6724
  -5671582.71548  -4416672.62547  20057960.4924                   20057954.7584
  15806789.19146  12299919.23444  24325653.6804                   24325652.6214
  -6524201.91046  -5080404.98843  24178638.2894                   24178635.8484
 -12254861.06647  -9508365.94145  22356778.5164                   22356773.7814
  -8130419.64547  -6332347.81644  23374623.4454                   23374620.6094
 11  8 19 15 21 30.0000000  0 10G03G06G13G16G20G23G32G10G19G07
  -9010847.20748  -7014893.22746  20985061.3054                   20985058.8054
  -3616849.21548  -2815795.27345  22140136.3444                   22140133.5164
 -11511706.02348  -8959420.55146  20771242.1174                   20771238.2734
   8812297.29348   6859409.27045  21666102.1254                   21666098.2544
  12957818.41446  10083631.01643  23382935.1334                   23382932.6764
  -5632920.33248  -4386546.10947  20065317.8364                   20065311.8444
  15945031.09446  12407640.10244  24351960.5164                   24351959.2114
  -6515415.38346  -5073558.34544  24180310.4844                   24180308.2734
 -12289066.60947  -9535019.60945  22350269.3674                   22350265.0164
  -8142947.92247  -6342110.12144  23372239.7584                   23372236.3404
 11  8 19 15 22  0.0000000  0 10G03G06G13G16G20G23G32G10G19G07
  -8987804.32448  -6996937.72346  20989446.6804                   20989444.3324
  -3560308.37147  -2771737.46545  22150895.6254                   22150892.9884
 -11522997.81648  -8968219.36346  20769093.8524                   20769090.0394
   8933624.19548   6953949.67245  21689190.2584                   21689185.6524
  13089642.91446  10186351.32843  23408020.4694                   23408017.4654
  -5593744.51248  -4356019.51247  20072772.9614                   20072767.0204
  16083221.06347  12515320.50443  24378257.4844                   24378256.6024
  -6506150.36346  -5066338.84443  24182073.2504                   24182072.1764
 -12322992.80147  -9561455.58645  22343813.6484                   22343809.1524
  -8155480.01247  -6351875.37144  23369855.0554                   23369852.1914
 11  8 19 15 22 30.0000000  0 10G03G06G13G16G20G23G32G10G19G07
  -8964180.16448  -6978529.27746  20993942.5394                   20993939.3244
  -3503232.53147  -2727262.78945  22161756.7114                   22161754.4574
 -11533925.52748  -8976734.46146  20767014.2504                   20767010.0474
   9055188.72348   7048675.24245  21712323.2584                   21712318.8524
  13221524.59446  10289116.21144  23433117.1414                   23433113.7234
  -5554053.62548  -4325091.55947  20080325.9534                   20080320.0434
  16221356.95746  12622958.75443  24404543.7034                   24404542.6294
  -6496405.33246  -5058745.32043  24183927.4454                   24183926.0164
 -12356635.71547  -9587670.81645  22337411.5944                   22337407.3954
  -8168015.89147  -6361643.55944  23367469.2894                   23367466.7234
 11  8 19 15 23  0.0000000  0 10G03G06G13G16G20G23G32G10G19G07
  -8939979.47748  -6959671.60246  20998547.5084                   20998544.2384
  -3445628.48847  -2682376.53145  22172718.6414                   22172716.0084
 -11544493.30148  -8984969.09046  20765003.3284                   20764999.4494
   9176981.98848   7143579.04545  21735499.6724                   21735495.6604
  13353453.68446  10391918.01244  23458222.0474                   23458219.2504
  -5513853.12148  -4293766.50447  20087975.6334                   20087969.6174
  16359429.65446  12730547.74643  24430817.8834                   24430817.5314
  -6486186.40246  -5050782.53543  24185871.8284                   24185869.4454
 -12389998.82047  -9613668.00045  22331062.3444                   22331058.5594
  -8180562.14146  -6371419.84044  23365081.6484                   23365079.3284
 11  8 19 15 23 30.0000000  0 10G03G06G13G16G20G23G32G10G19G07
  -8915199.29348  -6940362.36746  21003262.4384                   21003260.0084
  -3387494.07847  -2637076.98845  22183780.9454                   22183778.9534
 -11554696.55948  -8992919.67646  20763061.8754                   20763058.0234
   9299003.21548   7238660.48445  21758719.5004                   21758715.1884
  13485429.30547  10494756.08644  23483336.7814                   23483334.2384
  -5473139.64548  -4262041.72747  20095723.1024                   20095717.4344
  16497438.78546  12838087.24643  24457080.1334                   24457079.4574
  -6475490.81646  -5042448.35943  24187906.9454                   24187904.8404
 -12423076.61747  -9639442.85545  22324767.6884                   22324763.7274
  -8193116.82047  -6381202.67244  23362693.0554                   23362690.0904
 11  8 19 15 24  0.0000000  0 10G03G06G13G16G20G23G32G10G19G07
  -8889839.06648  -6920601.14846  21008088.4144                   21008085.3794
  -3328829.98447  -2591364.71945  22194944.0084                   22194941.9304
 -11564533.92248  -9000585.16446  20761189.5084                   20761185.8404
   9421248.87148   7333916.80545  21781982.0164                   21781978.2664
  13617447.62547  10597627.41844  23508458.9924                   23508456.3754
  -5431912.72748  -4229916.87547  20103568.4144                   20103562.6804
  16635380.91046  12945574.51243  24483330.1884                   24483328.6804
  -6464318.56646  -5033742.73043  24190033.4224                   24190032.1134
 -12455866.85247  -9664993.63745  22318528.1724                   22318523.9734
  -8205681.00847  -6390992.91045  23360303.0084                   23360299.9454
 11  8 19 15 24 30.0000000  0 10G03G06G13G16G20G23G32G10G19G07
 -10439317.38748  -8127986.85546  20713232.5944                   20713229.7774
  -4845055.52047  -3772839.18445  21906416.4064                   21906414.1134
 -13149424.27348 -10235564.66446  20459595.1564                   20459591.2774
   7968299.47348   6201748.40645  21505495.2584                   21505491.1484
  12174089.25847   9472932.49244  23233797.0004                   23233794.5554
  -6965591.02048  -5424990.88747  19811719.1644                   19811713.6094
  15197837.03946  11825410.41043  24209773.0634                   24209773.7464
  -8028089.89846  -6252265.85943  23892457.1414                   23892456.3364
 -14063788.48047 -10917919.53945  22012551.0234                   22012546.3164
  -9793676.51647  -7628391.98445  23058116.4694                   23058114.0004
 11  8 19 15 25  0.0000000  0 10G03G06G13G16G20G23G32G10G19G07
 -10412794.55148  -8107319.71546  20718279.8594                   20718276.8874
  -4785334.04347  -3726302.97345  21917780.9454                   21917778.3364
 -13158523.87548 -10242655.27046  20457863.6024                   20457859.7624
   8090984.76648   6297347.30545  21528841.5084                   21528837.5314
  12306183.00047   9575862.60544  23258934.0634                   23258931.4144
  -6923335.49248  -5392064.52347  19819760.2734                   19819754.4844
  15335636.25846  11932786.26643  24235996.4844                   24235996.3134
  -8015964.57046  -6242817.57443  23894764.6024                   23894763.1294
 -14095995.57547 -10943015.90145  22006421.5394                   22006417.9064
  -9806261.93747  -7638198.78544  23055721.3444                   23055719.1134
 11  8 19 15 25 30.0000000  0 10G03G06G13G16G20G23G32G10G19G07
 -10385689.18748  -8086198.65646  20723438.2194                   20723435.0354
  -4725084.71947  -3679355.45345  21929245.9224                   21929243.0864
 -13167251.31248 -10249455.86746  20456202.5704                   20456198.6844
   8213885.12548   6393113.80545  21552228.1254                   21552224.4804
  12438309.28146   9678818.03544  23284076.2034                   23284073.8204
  -6880564.76248  -5358736.69947  19827899.0164                   19827893.3594
  15473359.55946  12040103.01243  24262204.5634                   24262204.3674
  -8003362.73846  -6232997.97743  23897162.6024                   23897160.7704
 -14127906.97347 -10967881.86745  22000349.1254                   22000345.1134
  -9818858.94147  -7648014.60544  23053324.6724                   23053321.9804
 11  8 19 15 26  0.0000000  0 10G03G06G13G16G20G23G32G10G19G07
 -10358003.86748  -8064625.69546  20728706.3364                   20728703.1804
  -4664311.35547  -3631999.59845  21940810.7274                   21940807.8834
 -13175607.62148 -10255967.28946  20454612.4774                   20454608.6884
   8336994.43448   6489043.12145  21575655.6724                   21575651.3954
  12570461.27346   9781793.52344  23309224.0784                   23309221.8954
  -6837281.51248  -5325009.50447  19836135.6564                   19836130.2074
  15611000.87946  12147355.93043  24288396.8754                   24288396.3484
  -7990287.60946  -6222809.55143  23899650.6024                   23899648.2854
 -14159523.29347 -10992517.90645  21994332.6094                   21994328.9304
  -9831471.38747  -7657842.47744  23050924.3754                   23050921.7424
 11  8 19 15 26 30.0000000  0 10G03G06G13G16G20G23G32G10G19G07
 -10329736.64148  -8042599.27746  20734085.4694                   20734082.7034
  -4603012.94147  -3584234.59845  21952475.6024                   21952472.8204
 -13183589.84848 -10262187.20346  20453093.3674                   20453089.7854
   8460311.00448   6585133.94145  21599121.7504                   21599117.8954
  12702637.79746   9884788.11743  23334377.1644                   23334374.1524
  -6793483.34048  -5290881.07047  19844470.0784                   19844464.1094
  15748558.73446  12254543.75843  24314573.4614                   24314573.1994
  -7976737.64146  -6212251.12543  23902229.9614                   23902228.3284
 -14190839.86747 -11016920.38345  21988373.7584                   21988369.1294
  -9844098.16047  -7667681.50044  23048520.9924                   23048518.2934
 11  8 19 15 27  0.0000000  0 10G03G06G13G16G20G23G32G10G19G07
 -10300885.05948  -8020117.52346  20739575.5944                   20739572.3874
  -4541188.64547  -3536059.82445  21964240.5394                   21964237.3204
 -13191194.21548 -10268112.68046  20451646.3204                   20451642.4224
   8583833.20348   6681384.98045  21622627.3364                   21622623.0274
  12834836.62146   9987800.09044  23359533.2194                   23359531.7304
  -6749168.09048  -5256349.72347  19852902.9774                   19852897.1254
  15886031.85546  12361665.53943  24340734.4454                   24340733.6724
  -7962710.75846  -6201321.10243  23904898.5164                   23904897.3554
 -14221852.60547 -11041086.10245  21982471.8524                   21982467.0984
  -9856738.32847  -7677530.97744  23046115.7034                   23046113.1994
 11  8 19 15 27 30.0000000  0 10G03G06G13G16G20G23G32G10G19G07
 -10271443.53148  -7997176.08646  20745178.4694                   20745175.1374
  -4478834.14547  -3487471.90645  21976106.0004                   21976103.4964
 -13198414.02748 -10273738.50846  20450272.7034                   20450268.8834
   8707562.87148   6777797.67645  21646172.6174                   21646168.1914
  12967059.39846  10090830.75844  23384694.3914                   23384692.8164
  -6704330.65648  -5221411.48047  19861435.5164                   19861429.8164
  16023421.88746  12468722.62143  24366878.1954                   24366877.6024
  -7948202.09046  -6190015.66043  23907660.3284                   23907657.8714
 -14252554.01547 -11065009.23945  21976629.3984                   21976625.2034
  -9869387.83647  -7687387.71944  23043708.5164                   23043706.5594
 11  8 19 15 28  0.0000000  0 10G03G06G13G16G20G23G32G10G19G07
 -10241417.38348  -7973779.09446  20750891.9694                   20750888.5864
  -4415955.93847  -3438475.88745  21988071.6094                   21988068.2304
 -13205252.75048 -10279067.37946  20448971.2424                   20448967.4534
   8831491.32048   6874365.27345  21669754.9844                   21669750.9184
  13099297.20346  10193873.08644  23409858.4924                   23409856.3094
  -6658976.28148  -5186070.42247  19870065.8134                   19870059.9614
  16160720.46946  12575708.39843  24393005.9224                   24393005.2854
  -7933217.76646  -6178339.54743  23910511.2274                   23910510.1844
 -14282947.30147 -11088692.26645  21970846.0944                   21970841.6684
  -9882052.97347  -7697256.66844  23041298.8834                   23041296.1604
 11  8 19 15 28 30.0000000  0 10G03G06G13G16G20G23G32G10G19G07
 -10210807.72348  -7949927.40246  20756716.8674                   20756713.7544
  -4352556.52347  -3389073.76245  22000135.6724                   22000133.5234
 -13211710.57048 -10284099.44946  20447742.3364                   20447738.8164
   8955613.55148   6971083.87545  21693374.9224                   21693370.3014
  13231544.49646  10296922.81644  23435024.5864                   23435022.0594
  -6613106.01648  -5150327.36747  19878794.9224                   19878789.2034
  16297922.82046  12682619.19943  24419114.5394                   24419114.8874
  -7917759.75446  -6166294.34443  23913453.1804                   23913451.5634
 -14313031.44947 -11112134.43445  21965121.1254                   21965116.4884
  -9894735.82047  -7707139.36344  23038885.0864                   23038882.6334
 11  8 19 15 29  0.0000000  0 10G03G06G13G16G20G23G32G10G19G07
 -10179611.93748  -7925619.00846  20762653.2814                   20762650.3794
  -4288634.63747  -3339264.48045  22012299.3284                   22012297.4104
 -13217783.27748 -10288831.41846  20446586.6414                   20446582.9534
   9079928.63348   7067952.73845  21717031.1884                   21717026.8014
  13363799.99246  10399978.95243  23460191.7664                   23460189.2894
  -6566717.21948  -5114180.27347  19887622.4224                   19887616.6054
  16435028.07046  12789454.30143  24445205.5634                   24445204.4844
  -7901825.86346  -6153878.29343  23916483.9384                   23916483.2894
 -14342801.73447 -11135332.05145  21959455.7194                   21959451.1374
  -9907435.33247  -7717035.06244  23036468.7114                   23036465.4884
 11  8 19 15 29 30.0000000  0 10G03G06G13G16G20G23G32G10G19G07
 -10147825.93448  -7900850.69546  20768701.9924                   20768699.3134
  -4224187.16447  -3289045.66445  22024563.6334                   22024561.7894
 -13223464.97748 -10293258.71546  20445505.4384                   20445501.7814
   9204437.18847   7164972.37145  21740724.1094                   21740720.2814
  13496064.31346  10503041.94143  23485361.0314                   23485358.9804
  -6519805.70348  -5077625.85547  19896549.2424                   19896543.6724
  16572036.91046  12896214.34843  24471277.1174                   24471276.6024
  -7885412.43046  -6141088.57843  23919607.8754                   23919606.7584
 -14372251.57447 -11158279.94545  21953851.7344                   21953846.7464
  -9920148.10547  -7726941.06645  23034049.3834                   23034046.8674
 11  8 19 15 30  0.0000000  0 10G03G06G13G16G20G23G32G10G19G07
 -10115453.29747  -7875625.25046  20774861.9844                   20774859.6524
  -4159218.81647  -3238420.98045  22036926.7584                   22036924.3874
 -13228758.08248 -10297383.21546  20444498.2274                   20444494.5164
   9329132.27347   7262137.34445  21764453.2734                   21764449.1134
  13628330.23446  10606106.20343  23510530.3054                   23510527.9304
  -6472375.07048  -5040666.94547  19905575.2194                   19905569.5944
  16708942.76646  13002894.10543  24497329.1954                   24497329.2424
  -7868523.40646  -6127928.32943  23922822.3594                   23922820.5824
 -14401382.32447 -11180979.23045  21948308.4534                   21948303.6914
  -9932878.78147  -7736861.03444  23031627.1334                   23031624.4454
 11  8 19 15 30 30.0000000  0 10G03G06G13G16G20G23G32G10G19G07
 -10082491.10248  -7849940.40646  20781134.5634                   20781131.8794
  -4093728.44947  -3187389.53545  22049389.0164                   22049386.8204
 -13233658.26648 -10301201.53946  20443566.0004                   20443561.9774
   9454013.01247   7359446.98045  21788217.2974                   21788213.1684
  13760596.82447  10709171.02043  23535700.3524                   23535697.3594
  -6424422.77748  -5003301.54347  19914700.1174                   19914694.6214
  16845744.78946  13109492.96143  24523361.7894                   24523361.9454
  -7851156.94946  -6114396.02043  23926126.5164                   23926125.5204
 -14430189.16447 -11203426.09845  21942826.6724                   21942822.2704
  -9945625.48047  -7746793.49245  23029201.2894                   23029198.5704
 11  8 19 15 31  0.0000000  0 10G03G06G13G16G20G23G32G10G19G07
 -10048941.39848  -7823797.76246  20787518.7894                   20787516.1214
  -4027719.49247  -3135953.98445  22061949.9304                   22061947.7424
 -13238166.18048 -10304714.19146  20442707.3284                   20442704.1294
   9579073.55147   7456896.72745  21812015.6414                   21812011.2154
  13892857.89147  10812231.50843  23560868.8524                   23560866.4144
  -6375951.11748  -4965531.43747  19923924.0164                   19923918.2424
  16982437.49246  13216006.66443  24549373.3054                   24549373.1094
  -7833315.96546  -6100493.96543  23929521.3444                   23929519.7034
 -14458672.03547 -11225620.53545  21937406.8204                   21937401.7234
  -9958391.91447  -7756741.32445  23026771.5634                   23026769.3484
 11  8 19 15 31 30.0000000  0 10G03G06G13G16G20G23G32G10G19G07
 -10014807.24248  -7797199.70746  20794014.2424                   20794011.6914
  -3961195.64147  -3084117.21945  22074609.0554                   22074606.4734
 -13242282.98848 -10307922.09446  20441924.5084                   20441920.5354
   9704308.06348   7554482.03945  21835846.8134                   21835842.7114
  14025106.94547  10915282.62943  23586034.8134                   23586032.2814
  -6326962.74248  -4927358.70347  19933246.2114                   19933240.4264
  17119014.92646  13322430.50043  24575363.5474                   24575363.5164
  -7815003.42246  -6086224.46943  23933006.8134                   23933004.1884
 -14486831.38747 -11247562.88345  21932048.0864                   21932043.0394
  -9971181.40247  -7766707.13344  23024338.1254                   23024335.2464
 11  8 19 15 32  0.0000000  0 10G03G06G13G16G20G23G32G10G19G07
  -9980092.36348  -7770149.14546  20800620.7034                   20800618.0434
  -3894162.41047  -3031883.54345  22087365.2424                   22087362.3984
 -13246011.44548 -10310827.38346  20441215.2974                   20441211.3954
   9829709.04747   7652197.04745  21859710.1174                   21859705.2854
  14157336.48847  11018318.55543  23611197.7974                   23611194.1804
  -6277461.59148  -4888786.39447  19942666.3754                   19942660.7154
  17255469.72745  13428758.76643  24601329.1484                   24601330.1914
  -7796224.20746  -6071591.32043  23936580.4144                   23936578.2624
 -14514669.15247 -11269254.64845  21926750.7504                   21926745.6484
  -9983998.69146  -7776694.59844  23021898.3594                   23021895.9534
 11  8 19 15 32 30.0000000  0 10G03G06G13G16G20G23G32G10G19G07
  -9944791.25448  -7742641.78546  20807338.0864                   20807335.4384
  -3826615.33647  -2979249.48045  22100219.3754                   22100216.3524
 -13249344.12548 -10313424.26646  20440581.1174                   20440577.2584
   9955278.48047   7750043.34445  21883604.9614                   21883600.6374
  14289548.01246  11121340.42644  23636356.7344                   23636353.8674
  -6227442.14148  -4849810.21547  19952184.3984                   19952178.8794
  17391804.44146  13534993.44142  24627274.0944                   24627273.6454
  -7776973.02346  -6056590.41043  23940243.3444                   23940241.6134
 -14542177.27747 -11290689.54345  21921516.2814                   21921511.3484
  -9996839.33647  -7786700.26044  23019455.6644                   23019452.8404
 11  8 19 15 33  0.0000000  0 10G03G06G13G16G20G23G32G10G19G07
  -9908908.22748  -7714680.98446  20814166.6174                   20814163.4964
  -3758559.84047  -2926219.23845  22113169.9304                   22113167.1564
 -13252283.71948 -10315714.85546  20440021.4614                   20440017.9264
  10081009.32848   7848015.39545  21907530.5944                   21907526.7074
  14421734.28546  11224342.63344  23661510.8284                   23661508.4804
  -6176908.46948  -4810433.35547  19961800.4774                   19961795.1134
  17528011.59446  13641128.73842  24653193.2424                   24653193.0234
  -7757254.56646  -6041225.39843  23943996.0634                   23943993.8524
 -14569357.56248 -11311868.98046  21916343.9224                   21916339.7934
 -10009708.09447  -7796727.85944  23017006.1094                   23017003.6214
 11  8 19 15 33 30.0000000  0 10G03G06G13G16G20G23G32G10G19G07
  -9872438.61348  -7686263.12146  20821106.8054                   20821103.4104
  -3689992.53547  -2872790.17645  22126217.8054                   22126215.1524
 -13254824.06648 -10317694.34046  20439537.8364                   20439534.3524
  10206902.59847   7946114.01645  21931487.7504                   21931483.6134
  14553896.09846  11327325.77043  23686660.3834                   23686658.3794
  -6125856.00848  -4770652.23847  19971515.7194                   19971510.0704
  17664092.77046  13747165.90242  24679088.4224                   24679088.3874
  -7737065.31646  -6025493.55543  23947838.5084                   23947835.4574
 -14596203.44547 -11332787.83645  21911234.8284                   21911230.7424
 -10022601.35947  -7806774.55145  23014553.2034                   23014550.3484
 11  8 19 15 34  0.0000000  0 10G03G06G13G16G20G23G32G10G19G07
  -9835381.14848  -7657387.18046  20828158.4694                   20828155.0004
  -3620913.59047  -2818962.45345  22139362.6644                   22139360.1524
 -13256962.26248 -10319360.47746  20439131.1564                   20439127.7584
  10332956.30547   8044337.63745  21955474.8754                   21955470.9224
  14686031.34846  11430288.20344  23711804.8134                   23711803.4224
  -6074283.59448  -4730465.96547  19981329.4144                   19981323.8134
  17800045.93046  13853103.23042  24704959.7194                   24704959.8714
  -7716404.35546  -6009394.08243  23951769.3134                   23951768.1054
 -14622711.05947 -11353443.09846  21906191.0314                   21906186.2074
 -10035518.44947  -7816839.80245  23012095.4384                   23012092.0474
 11  8 19 15 34 30.0000000  0 10G03G06G13G16G20G23G32G10G19G07
  -9797735.06648  -7628052.58246  20835321.9844                   20835318.7194
  -3551323.32847  -2764736.29745  22152605.4924                   22152603.4964
 -13258696.03148 -10320711.47346  20438801.0474                   20438797.3054
  10459167.87947   8142684.30145  21979492.0784                   21979487.9304
  14818136.86346  11533227.46144  23736943.8834                   23736941.8444
  -6022190.53548  -4689873.99247  19991242.5084                   19991236.5634
  17935868.88346  13958939.25042  24730806.2344                   24730806.5434
  -7695271.36346  -5992926.82843  23955791.3594                   23955789.2934
 -14648877.12947 -11373832.22745  21901211.1954                   21901207.0514
 -10048459.69947  -7826923.87145  23009632.6024                   23009629.7234
 11  8 19 15 35  0.0000000  0 10G03G06G13G16G20G23G32G10G19G07
  -9759503.95348  -7598262.11346  20842596.9454                   20842593.6094
  -3481226.34047  -2710115.29745  22165944.5084                   22165943.0904
 -13260027.11348 -10321748.68446  20438547.9304                   20438544.0314
  10585530.87147   8241148.93045  22003538.1954                   22003534.2384
  14950205.91846  11636138.33244  23762075.6564                   23762073.7464
  -5969580.13348  -4648878.89147  20001253.7034                   20001248.3984
  18071555.21946  14064668.73042  24756626.2274                   24756626.7584
  -7673670.23446  -5976094.77343  23959902.1484                   23959900.0984
 -14674702.68448 -11393956.02746  21896297.8284                   21896292.9184
 -10061429.10247  -7837029.85545  23007164.3054                   23007162.1134
 11  8 19 15 35 30.0000000  0 10G03G06G13G16G20G23G32G10G19G07
  -9720681.20748  -7568010.63346  20849984.8524                   20849982.0784
  -3410617.73847  -2655095.62945  22179381.1334                   22179378.6414
 -13260947.66848 -10322466.00846  20438372.7274                   20438368.9494
  10712048.23847   8339733.87145  22027613.6334                   22027609.4694
  15082241.42346  11739023.03744  23787201.2424                   23787199.8954
  -5916446.05948  -4607475.73047  20011365.2584                   20011359.5664
  18207108.08246  14170294.25442  24782421.5474                   24782421.4694
  -7651595.27746  -5958893.51643  23964102.2344                   23964100.6684
 -14700179.30148 -11413807.91445  21891449.1094                   21891444.8094
 -10074421.05547  -7847153.43445  23004692.4774                   23004689.6134
 11  8 19 15 36  0.0000000  0 10G03G06G13G16G20G23G32G10G19G07
  -9681268.02747  -7537299.07446  20857485.0784                   20857481.8054
  -3339499.41847  -2599678.78145  22192914.9774                   22192911.8874
 -13261456.55548 -10322862.55146  20438276.2194                   20438272.4184
  10838715.97347   8438435.97745  22051717.8444                   22051713.5824
  15214239.28946  11841878.41443  23812320.1484                   23812317.7704
  -5862789.12148  -4565665.15246  20021575.8984                   20021570.0984
  18342523.89846  14275812.96143  24808191.2344                   24808190.2034
  -7629047.86346  -5941324.10943  23968392.9844                   23968391.5664
 -14725305.30547 -11433386.60545  21886667.8984                   21886663.3244
 -10087437.09847  -7857295.77745  23002215.1954                   23002212.6914
 11  8 19 15 36 30.0000000  0  9G03G06G13G16G20G23G10G19G07
  -9641260.28148  -7506124.20746  20865098.1484                   20865095.2344
  -3267868.85547  -2543862.77345  22206545.0704                   22206542.3444
 -13261548.59048 -10322934.27346  20438258.2664                   20438254.8204
  10965535.16847   8537256.10245  22075850.2894                   22075846.2584
  15346199.97346  11944704.83243  23837430.7584                   23837429.4064
  -5808605.43848  -4523444.12147  20031886.5704                   20031880.6054
  -7606024.72746  -5923384.03943  23972774.5474                   23972772.3874
 -14750074.45347 -11452687.21945  21881954.1564                   21881949.9104
 -10100473.89547  -7867454.29345  22999734.5944                   22999731.3134
 11  8 19 15 37  0.0000000  0  9G03G06G13G16G20G23G10G19G07
  -9600667.38348  -7474493.37946  20872822.7114                   20872820.0824
  -3195736.71547  -2487655.92645  22220271.7274                   22220269.0784
 -13261231.31248 -10322687.05546  20438318.9304                   20438315.0204
  11092492.96147   8636184.21545  22100009.7584                   22100005.8284
  15478110.48846  12047492.14843  23862532.5864                   23862531.0664
  -5753904.43448  -4480819.98447  20042295.8444                   20042290.4184
  -7582535.68846  -5905080.90243  23977243.3914                   23977242.6054
 -14774493.86748 -11471715.29745  21877307.5314                   21877302.7934
 -10113541.38747  -7877636.74644  22997247.6644                   22997244.6294
 11  8 19 15 37 30.0000000  0 10G03G06G13G16G20G23G08G10G19G07
  -9559476.93747  -7442396.93046  20880661.0704                   20880658.3014
  -3123091.60247  -2431049.36345  22234095.3914                   22234092.5514
 -13260490.43048 -10322109.76246  20438460.1334                   20438456.0904
  11219598.71948   8735227.64145  22124196.9694                   22124193.0084
  15609980.27046  12150247.71543  23887627.2974                   23887625.1804
  -5698673.63348  -4437783.00847  20052805.8984                   20052800.3484
  -7903344.89156  -6154139.15652  25043200.3594                   25043198.3984
  -7558569.10246  -5886405.66843  23981804.6724                   23981802.9844
 -14798548.43448 -11490459.09046  21872730.0944                   21872725.5904
 -10126627.48047  -7887833.68044  22994757.4534                   22994754.1454
 11  8 19 15 38  0.0000000  0 10G03G06G13G16G20G23G08G10G19G07
  -9517686.49648  -7409832.97346  20888613.2974                   20888610.1454
  -3049932.28547  -2374042.10945  22248017.2664                   22248014.0784
 -13259321.52748 -10321198.94146  20438682.2424                   20438678.8634
  11346852.27047   8834386.21545  22148412.8754                   22148408.6884
  15741808.21946  12252970.69144  23912713.1094                   23912711.2734
  -5642910.51248  -4394331.23847  20063417.5554                   20063411.7114
  -7922453.82046  -6169029.27742  25039562.7584                   25039562.4414
  -7534122.87146  -5867356.64843  23986455.6414                   23986455.1374
 -14822232.94548 -11508914.53546  21868222.9304                   21868218.5044
 -10139730.59847  -7898043.87544  22992263.9144                   22992260.8594
 11  8 19 15 38 30.0000000  0 10G03G06G13G16G20G23G08G10G19G07
  -9475309.20348  -7376811.71946  20896677.0864                   20896674.5664
  -2976272.78547  -2316645.11345  22262033.8524                   22262031.9064
 -13257736.00448 -10319963.47746  20438983.5474                   20438980.0354
  11474237.58648   8933647.46545  22172653.3284                   22172649.3634
  15873578.60246  12355648.80543  23937788.4384                   23937786.6804
  -5586627.55548  -4350474.41847  20074127.7274                   20074121.8324
  -7941647.82446  -6183985.57842  25035909.5634                   25035910.2664
  -7509210.38346  -5847944.36743  23991197.1414                   23991195.7704
 -14845558.07448 -11527089.94545  21863784.0634                   21863780.0314
 -10152863.93447  -7908277.62944  22989764.5784                   22989761.2544
 11  8 19 15 39  0.0000000  0 10G03G06G13G16G20G23G08G10G19G07
  -9432332.44548  -7343323.34446  20904855.6804                   20904852.5554
  -2902101.96947  -2258849.66045  22276148.5004                   22276145.8834
 -13255719.51248 -10318392.18446  20439367.4924                   20439364.0004
  11601764.60248   9033019.11745  22196920.8364                   22196916.5594
  16005300.55546  12458289.20743  23962854.7504                   23962852.7504
  -5529812.72748  -4306203.14547  20084939.0704                   20084933.2584
  -7960915.18446  -6198999.02343  25032243.9844                   25032243.8754
  -7483819.73446  -5828159.44943  23996028.5314                   23996027.4884
 -14868508.73848 -11544973.54345  21859416.7734                   21859412.0904
 -10166015.13347  -7918525.30145  22987261.9064                   22987258.6764
 11  8 19 15 39 30.0000000  0 10G03G06G13G16G20G23G08G10G19G07
  -9388758.80948  -7309369.86746  20913147.7034                   20913144.8134
  -2827423.65247  -2200658.78145  22290359.1414                   22290356.5594
 -13253273.05948 -10316485.86346  20439833.2974                   20439829.3524
  11729427.44148   9132496.61345  22221214.4774                   22221210.3324
  16136968.14846  12560887.25043  23987910.2504                   23987908.0394
  -5472468.39848  -4261519.26647  20095851.2734                   20095845.8244
  -7980260.09846  -6214073.00442  25028562.5314                   25028562.9734
  -7457954.02346  -5808004.37543  24000951.4694                   24000949.4454
 -14891085.29348 -11562565.66046  21855120.9774                   21855115.8834
 -10179187.57047  -7928789.53144  22984755.8284                   22984751.9304
 11  8 19 15 40  0.0000000  0 10G03G06G13G16G20G23G08G10G19G07
  -9344591.53548  -7274953.80546  20921552.4224                   20921549.1454
  -2752242.33247  -2142075.93745  22304665.6254                   22304662.9534
 -13250397.98848 -10314245.55146  20440380.4774                   20440376.5594
  11857219.74647   9232074.99645  22245532.2894                   22245528.2894
  16268574.87946  12663437.84843  24012954.2814                   24012951.6764
  -5414598.07048  -4216425.52347  20106863.9454                   20106857.7894
  -7999686.31346  -6229210.24242  25024865.2274                   25024865.2894
  -7431617.12946  -5787482.14843  24005962.7344                   24005960.6024
 -14913288.40248 -11579866.76645  21850895.2504                   21850890.5314
 -10192384.97747  -7939073.21144  22982244.2344                   22982241.1954
 11  8 19 15 40 30.0000000  0 10G03G06G13G16G20G23G08G10G19G07
  -9299830.56648  -7240075.14146  20930070.4384                   20930066.7424
  -2676558.88347  -2083101.83645  22319068.2814                   22319065.1414
 -13247092.15648 -10311669.58646  20441009.5864                   20441005.6134
  11985139.08247   9331752.35945  22269875.1334                   22269870.9344
  16400117.97346  12765938.86743  24037985.7344                   24037984.3324
  -5356201.17248  -4170921.46547  20117976.5004                   20117970.4304
  -8019194.18446  -6244411.14542  25021153.6564                   25021153.4774
  -7404809.16846  -5766592.84443  24011063.3984                   24011062.0234
 -14935115.13347 -11596874.59445  21846742.1804                   21846737.4304
 -10205607.03947  -7949376.09445  22979728.0164                   22979725.3634
 11  8 19 15 41  0.0000000  0 10G03G06G13G16G20G23G08G10G19G07
  -9254465.43048  -7204725.68746  20938702.9064                   20938699.4104
  -2600363.89547  -2023729.12145  22333566.9534                   22333564.2384
 -13243343.07848 -10308748.22746  20441723.1174                   20441719.2154
  12113193.24647   9431534.78945  22294242.6954                   22294238.6604
  16531605.02346  12868396.24643  24063006.6564                   24063004.9064
  -5297267.22748  -4124998.92647  20129190.9614                   20129184.8954
  -8038774.24646  -6259668.26243  25017427.7274                   25017427.4184
  -7377519.96546  -5745328.54343  24016256.4924                   24016255.5084
 -14956552.39848 -11613578.93446  21842662.6804                   21842658.1954
 -10218843.79747  -7959690.41045  22977209.5164                   22977206.8914
 11  8 19 15 41 30.0000000  0 10G03G06G13G16G20G23G08G10G19G07
  -9208504.32848  -7168911.83246  20947448.8284                   20947445.5394
  -2523666.77747  -1963965.15645  22348162.0864                   22348159.1414
 -13239157.47348 -10305486.72746  20442519.5004                   20442515.7464
  12241371.35947   9531413.79345  22318634.5554                   22318630.3594
  16663024.90646  12970801.23043  24088015.4844                   24088013.3204
  -5237804.23848  -4078664.14547  20140506.4844                   20140501.1214
  -8058435.32046  -6274988.54342  25013685.9844                   25013685.8244
  -7349758.37946  -5723696.13743  24021539.8284                   24021537.9964
 -14977605.86347 -11629984.22745  21838656.0004                   21838651.6254
 -10232103.85247  -7970022.90245  22974685.6644                   22974682.7114
 11  8 19 15 42  0.0000000  0 10G03G06G13G16G20G23G08G10G19G07
  -9161941.85548  -7132629.38346  20956309.4304                   20956306.1174
  -2446463.43047  -1903806.72745  22362853.7734                   22362850.7464
 -13234527.85248 -10301879.22746  20443400.5864                   20443396.6094
  12369676.26247   9631391.60945  22343049.9384                   22343045.9654
  16794379.88746  13073155.68043  24113011.1804                   24113009.9064
  -5177806.68848  -4031912.82047  20151923.5864                   20151917.9804
  -8078172.39546  -6290368.03543  25009930.6024                   25009930.2704
  -7321519.43046  -5701691.77043  24026913.0474                   24026911.7624
 -14998267.20747 -11646083.96946  21834724.3674                   21834719.5904
 -10245381.19947  -7980368.87945  22972159.3364                   22972156.6454
 11  8 19 15 42 30.0000000  0 10G03G06G13G16G20G23G08G10G19G07
 -10690196.21148  -8323476.92246  20665492.4774                   20665489.0274
  -3944172.13747  -3070852.48845  22077849.2734                   22077846.3404
 -14804872.23048 -11525524.20346  20144573.8984                   20144570.2274
  10922689.27947   8503869.24045  22067697.7194                   22067693.6994
  15350251.32446  11947860.59043  23838203.0634                   23838201.1564
  -6692692.46948  -5212343.32047  19863650.3524                   19863644.8364
  -9673407.12946  -7533408.04543  24706367.7034                   24706367.0704
  -8868222.68046  -6906915.13343  23732585.7034                   23732584.1764
 -16593954.75447 -12889476.85946  21531075.2504                   21531070.6334
 -11834097.28147  -9218329.42045  22669836.5234                   22669833.8754
 11  8 19 15 43  0.0000000  0 10G03G06G13G16G20G23G08G10G19G07
 -10642434.57848  -8286260.07446  20674580.9384                   20674577.7704
  -3865963.50047  -3009910.71945  22092731.7734                   22092728.8204
 -14799352.90648 -11521223.43746  20145624.0704                   20145620.3444
  11051235.85547   8604035.37945  22092159.5394                   22092155.2664
  15481464.00346  12050104.14643  23863172.7114                   23863170.6054
  -6631629.78148  -5164762.02747  19875270.1334                   19875264.0634
  -9693303.02146  -7548911.28143  24702580.6174                   24702580.9534
  -8839034.56646  -6884171.16043  23738140.0084                   23738138.3404
 -16613828.68047 -12904963.03946  21527293.1644                   21527288.6024
 -11847415.03647  -9228706.83445  22667302.0634                   22667299.7114
 11  8 19 15 43 30.0000000  0 10G03G06G13G16G20G23G08G10G19G07
 -10594069.09847  -8248572.68046  20683784.7274                   20683781.4574
  -3787249.27747  -2948574.96145  22107710.4534                   22107708.0634
 -14793381.09848 -11516570.07446  20146760.6484                   20146756.6294
  11179903.43747   8704295.78145  22116644.2274                   22116639.3754
  15612605.53546  12152292.23043  23888127.3204                   23888125.9344
  -6570029.77348  -5116762.04347  19886992.1724                   19886986.6134
  -9713274.54746  -7564473.45743  24698780.8754                   24698780.5704
  -8809367.77746  -6861054.19543  23743785.3524                   23743783.6374
 -16633299.85247 -12920135.37546  21523588.2734                   21523583.7974
 -11860748.19947  -9239096.28145  22664765.0004                   22664762.2034
 11  8 19 15 44  0.0000000  0 10G03G06G13G16G20G23G08G10G19G07
 -10545104.66048  -8210418.57046  20693102.2034                   20693098.8204
  -3708035.27547  -2886849.78545  22122784.5634                   22122781.6374
 -14786959.56648 -11511566.28546  20147982.4774                   20147978.5824
  11308684.97347   8804645.00045  22141149.9924                   22141146.3524
  15743668.40346  12254419.02643  23913069.0784                   23913065.6054
  -6507896.95748  -5068346.87947  19898815.9774                   19898810.5394
  -9733326.65246  -7580098.42243  24694965.6564                   24694964.6644
  -8779227.40746  -6837568.17443  23749520.7664                   23749518.9264
 -16652370.55947 -12934995.64746  21519959.3834                   21519954.5434
 -11874101.85947  -9249501.72745  22662224.0394                   22662220.8984
 11  8 19 15 44 30.0000000  0 10G03G06G13G16G20G23G08G10G19G07
 -10495535.15648  -8171792.98845  20702534.4614                   20702531.8794
  -3628317.19947  -2824731.82445  22137954.6884                   22137951.7384
 -14780080.87948 -11506206.27346  20149291.4304                   20149287.7734
  11437583.77347   8905085.57445  22165678.8984                   22165674.8954
  15874655.58246  12356486.84043  23937994.1414                   23937992.2734
  -6445225.60548  -5019512.08647  19910741.8444                   19910736.6804
  -9753454.75046  -7595782.63743  24691135.1884                   24691134.2854
  -8748608.45746  -6813709.27343  23755347.6254                   23755346.4064
 -16671032.80947 -12949537.64846  21516407.8284                   21516403.6454
 -11887470.36747  -9259918.71945  22659679.6804                   22659676.6174
 11  8 19 15 45  0.0000000  0 10G03G06G13G16G20G23G08G10G19G07
 -10445370.67248  -8132703.79346  20712081.2274                   20712078.4774
  -3548105.88347  -2762229.50845  22153217.9774                   22153215.2424
 -14772752.95748 -11500496.20346  20150685.9224                   20150681.7424
  11566587.39847   9005607.84845  22190227.3054                   22190223.5314
  16005554.41446  12458485.82443  23962903.4694                   23962901.7234
  -6382025.61348  -4970265.35547  19922768.1804                   19922762.6094
  -9773669.11346  -7611534.04743  24687287.7274                   24687287.5354
  -8717521.26246  -6789485.52343  23761263.2504                   23761262.4024
 -16689293.40647 -12963766.67646  21512932.8444                   21512928.5274
 -11900863.64847  -9270355.01245  22657131.3524                   22657128.3874
 11  8 19 15 45 30.0000000  0 10G03G06G13G16G20G23G08G10G19G07
 -10394608.76648  -8093149.06646  20721740.2814                   20721737.8244
  -3467400.09447  -2699341.90245  22168576.0944                   22168572.8014
 -14764971.08248 -11494432.41446  20152166.7034                   20152162.9924
  11695695.97747   9106211.89545  22214796.3444                   22214792.6524
  16136364.81646  12560415.88343  23987796.1954                   23987794.9654
  -6318294.10548  -4920604.46546  19934896.2584                   19934890.4534
  -9793967.61346  -7627350.98043  24683425.4304                   24683424.3164
  -8685963.68446  -6764895.21143  23767268.7114                   23767266.9964
 -16707147.05947 -12977678.61746  21509535.8674                   21509531.2034
 -11914278.96147  -9280808.48445  22654578.2974                   22654575.1214
 11  8 19 15 46  0.0000000  0 10G03G06G13G16G20G23G08G10G19G07
 -10343250.30148  -8053129.48846  20731513.7274                   20731510.8054
  -3386201.39547  -2636070.19545  22184027.7974                   22184024.5514
 -14756734.16448 -11488014.04746  20153733.8444                   20153730.1564
  11824906.19947   9206895.15245  22239383.9064                   22239380.3834
  16267083.07846  12662274.15643  24012670.4454                   24012669.5744
  -6254032.11348  -4870530.20347  19947125.0554                   19947119.1024
  -9814351.05946  -7643234.11743  24679546.4064                   24679545.8364
  -8653936.99246  -6739939.37544  23773362.8284                   23773361.4384
 -16724592.13748 -12991272.16446  21506215.8364                   21506211.2854
 -11927716.96547  -9291279.63345  22652021.1024                   22652018.4104
 11  8 19 15 46 30.0000000  0 10G03G06G13G16G20G23G08G10G19G07
 -10291297.61748  -8012646.90246  20741400.2974                   20741397.2624
  -3304513.53547  -2572417.33645  22199572.4224                   22199569.3794
 -14748042.35948 -11481241.21546  20155388.0704                   20155383.9384
  11954213.54747   9307654.08245  22263990.2274                   22263986.4844
  16397704.28146  12764056.77343  24037527.3754                   24037525.9344
  -6189241.70348  -4820044.18846  19959453.9064                   19959448.4064
  -9834822.64546  -7659185.95743  24675650.1094                   24675650.1994
  -8621443.94546  -6714620.12943  23779546.3754                   23779545.0274
 -16741627.85248 -13004546.75046  21502974.4924                   21502969.7464
 -11941179.62547  -9301769.97745  22649459.3834                   22649455.9654
 11  8 19 15 47  0.0000000  0 10G03G06G13G16G20G23G08G10G19G07
 -10238743.75048  -7971695.84846  20751400.7114                   20751397.8164
  -3222330.68047  -2508378.76245  22215211.1804                   22215207.8404
 -14738886.86748 -11474107.07046  20157130.4694                   20157126.2624
  12083622.26247   9408491.99645  22288615.9534                   22288612.6214
  16528232.68746  12865767.12543  24062366.5784                   24062364.6884
  -6123915.91048  -4769140.98846  19971884.8914                   19971879.4144
  -9855375.86746  -7675201.37543  24671739.9694                   24671738.7734
  -8588478.03546  -6688932.42643  23785819.9844                   23785818.1254
 -16758244.92648 -13017495.09846  21499811.6644                   21499807.2114
 -11954660.64147  -9312274.63745  22646893.9454                   22646890.5944
 11  8 19 15 47 30.0000000  0 10G03G06G13G16G20G23G08G10G19G07
 -10185597.73848  -7930283.39546  20761514.2424                   20761511.3554
  -3139662.95347  -2443962.35245  22230942.3984                   22230938.8484
 -14729274.98048 -11466617.29346  20158959.5554                   20158955.5044
  12213121.38747   9509400.37545  22313258.7734                   22313255.0704
  16658656.64846  12967396.09443  24087185.1414                   24087184.1254
  -6058063.69148  -4717827.59846  19984416.3834                   19984410.7934
  -9876020.39846  -7691288.00843  24667811.1414                   24667809.9734
  -8555048.72746  -6662883.67243  23792181.0394                   23792179.7704
 -16774449.67648 -13030122.16046  21496728.4774                   21496723.5044
 -11968168.55547  -9322800.27045  22644323.5634                   22644320.6954
 11  8 19 15 48  0.0000000  0 10G03G06G13G16G20G23G08G10G19G07
 -10131859.76248  -7888409.65246  20771740.0164                   20771737.2624
  -3056511.10247  -2379168.72745  22246765.1564                   22246762.7894
 -14719204.12548 -11458769.89146  20160876.1414                   20160871.9304
  12342709.15247   9610377.81645  22337918.4304                   22337915.3164
  16788974.02846  13068942.00643  24111984.0004                   24111982.6414
  -5991684.37548  -4666103.47346  19997048.0084                   19997042.6254
  -9896755.65246  -7707445.34842  24663864.5164                   24663863.9384
  -8521155.87546  -6636473.68443  23798630.8524                   23798629.3054
 -16790238.39148 -13042425.03146  21493723.6644                   21493719.4734
 -11981702.57447  -9333346.23445  22641748.3914                   22641745.1524
 11  8 19 15 48 30.0000000  0 10G03G06G13G16G20G23G08G10G19G07
 -10077531.15648  -7846075.69546  20782078.7344                   20782075.9534
  -2972877.68447  -2313999.85545  22262680.1334                   22262677.8134
 -14708673.64548 -11450564.32846  20162879.7894                   20162875.9654
  12472381.16047   9711420.89145  22362594.0944                   22362590.9844
  16919180.76246  13170401.69543  24136761.6884                   24136759.9494
  -5924779.36748  -4613969.71946  20009779.4774                   20009774.0824
  -9917583.50846  -7723674.71142  24659902.1254                   24659900.9964
  -8486801.50446  -6609704.07843  23805168.8444                   23805166.6954
 -16805610.16848 -13054403.02346  21490798.7734                   21490794.4964
 -11995264.17647  -9343913.69545  22639167.3054                   22639164.4884
 11  8 19 15 49  0.0000000  0 10G03G06G13G16G20G23G08G10G19G07
 -10022611.19948  -7803280.93046  20792529.5944                   20792526.4344
  -2888762.98847  -2248455.94945  22278686.5784                   22278684.3324
 -14697680.62148 -11441998.33646  20164971.7274                   20164968.2974
  12602136.01647   9812528.53545  22387285.9614                   22387282.3554
  17049275.10246  13271773.80143  24161516.9774                   24161515.9224
  -5857347.97748  -4561425.79346  20022611.1804                   20022605.7934
  -9938503.83646  -7739976.29343  24655921.1484                   24655919.9574
  -8451985.32846  -6582574.62143  23811793.4534                   23811791.9224
 -16820561.50848 -13066053.39846  21487953.3984                   21487948.7344
 -12008851.98847  -9354501.58245  22636581.7194                   22636578.9804
 11  8 19 15 49 30.0000000  0 10G03G06G13G16G20G23G08G10G19G07
  -9967102.81648  -7760027.65646  20803092.6024                   20803089.7544
  -2804170.94547  -2182540.12145  22294783.9304                   22294781.7464
 -14686225.91848 -11433072.61346  20167151.4924                   20167147.6684
  12731968.95347   9913697.01245  22411992.2424                   22411988.8914
  17179251.89146  13373054.34043  24186250.8054                   24186249.7034
  -5789392.82848  -4508473.75046  20035542.9224                   20035537.4144
  -9959519.82046  -7756352.32043  24651921.2274                   24651920.2424
  -8416710.68446  -6555087.91443  23818506.0864                   23818504.6884
 -16835092.27347 -13077376.05146  21485188.1644                   21485184.2584
 -12022468.85247  -9365112.11345  22633990.5164                   22633987.3244
 11  8 19 15 50  0.0000000  0 10G03G06G13G16G20G23G08G10G19G07
  -9910998.39148  -7716309.94146  20813768.5784                   20813765.8834
  -2719095.17647  -2116247.36345  22310973.2974                   22310971.4614
 -14674300.09848 -11423779.77046  20169420.9304                   20169416.7544
  12861885.35947  10014930.55145  22436714.8914                   22436711.1564
  17309116.02046  13474247.02343  24210963.4844                   24210962.3444
  -5720906.32848  -4455107.67646  20048575.1024                   20048569.6024
  -9980623.62946  -7772796.82443  24647905.2734                   24647904.0274
  -8380970.31646  -6527238.28543  23825307.3134                   23825305.4534
 -16849192.12548 -13088362.91846  21482505.3284                   21482500.8634
 -12036106.66847  -9375738.99645  22631395.3134                   22631392.2934
 11  8 19 15 50 30.0000000  0 10G03G06G13G16G20G23G08G10G19G07
  -9854306.85248  -7672134.72746  20824556.8594                   20824554.1884
  -2633545.73847  -2049585.50445  22327253.3524                   22327250.8284
 -14661909.86348 -11414125.05146  20171778.8984                   20171774.9534
  12991874.31647  10116220.61345  22461450.7734                   22461446.8914
  17438856.22346  13575343.19943  24235652.2584                   24235651.2384
  -5651897.36348  -4401334.47346  20061707.4304                   20061701.9304
 -10001824.61746  -7789317.02043  24643871.1724                   24643869.8634
  -8344773.48446  -6499032.96543  23832195.3204                   23832193.5594
 -16862867.42647 -13099018.98846  21479903.0314                   21479897.8324
 -12049774.30947  -9386389.09845  22628793.9534                   22628791.7114
 11  8 19 15 51  0.0000000  0 10G03G06G13G16G20G23G08G10G19G07
  -9797030.50848  -7627503.82046  20835456.0554                   20835453.4344
  -2547525.66447  -1982556.90645  22343622.2974                   22343620.2234
 -14649055.23448 -11404108.46946  20174224.8204                   20174221.0044
  13121931.50047  10217563.82445  22486200.3134                   22486196.4734
  17568467.95346  13676339.23443  24260316.5474                   24260314.7854
  -5582367.95748  -4347155.73846  20074938.1724                   20074933.0164
 -10023125.47746  -7805915.02743  24639818.1334                   24639817.1294
  -8308123.14146  -6470474.28943  23839169.9224                   23839168.1214
 -16876117.50047 -13109343.69946  21477381.6414                   21477376.9264
 -12063473.25047  -9397063.59445  22626187.9844                   22626184.4694
 11  8 19 15 51 30.0000000  0 10G03G06G13G16G20G23G08G10G19G07
  -9739166.57848  -7582415.04346  20846467.0234                   20846464.1644
  -2461032.76647  -1915159.87945  22360081.3204                   22360079.0124
 -14635730.91048 -11393725.89146  20176760.4534                   20176756.1134
  13252058.04347  10318961.09845  22510962.5634                   22510958.3834
  17697952.23446  13777235.95743  24284956.9774                   24284955.9734
  -5512314.50448  -4292568.66046  20088269.3204                   20088263.5594
 -10044522.55946  -7822588.03543  24635745.7114                   24635745.7234
  -8271016.21146  -6441559.80543  23846230.1484                   23846228.8284
 -16888935.88348 -13119332.03146  21474942.3284                   21474937.6524
 -12077199.79347  -9407759.60545  22623575.3914                   22623572.3444
 11  8 19 15 52  0.0000000  0 10G03G06G13G16G20G23G08G10G19G07
  -9680725.12148  -7536876.26246  20857588.3984                   20857585.1214
  -2374078.91047  -1847403.65645  22376628.3284                   22376625.7774
 -14621945.20748 -11382983.79346  20179383.5314                   20179379.8874
  13382241.17647  10420402.45745  22535735.3984                   22535731.1214
  17827296.10246  13878023.25443  24309570.1724                   24309569.4654
  -5441747.62148  -4237581.50046  20101697.4774                   20101692.1724
 -10066026.65646  -7839344.44143  24631653.8674                   24631653.1914
  -8233463.46546  -6412297.91844  23853376.6024                   23853375.3954
 -16901330.48448 -13128990.14146  21472583.2734                   21472578.6334
 -12090964.06347  -9418485.00845  22620956.1094                   22620952.4304
 11  8 19 15 52 30.0000000  0 10G03G06G13G16G20G23G08G10G19G07
  -9621694.73048  -7490878.55546  20868821.6414                   20868818.6094
  -2286652.99247  -1779279.59045  22393264.9304                   22393262.3484
 -14607684.14547 -11371871.29346  20182097.5004                   20182093.7704
  13512491.19547  10521895.93045  22560521.4144                   22560517.2234
  17956509.39546  13978708.84443  24334158.7584                   24334158.0784
  -5370655.13348  -4182184.77746  20115226.1254                   20115220.4694
 -10087625.86746  -7856174.95743  24627541.9614                   24627542.7774
  -8195453.28946  -6382679.64143  23860609.4614                   23860608.2704
 -16913286.66447 -13138306.64146  21470308.3364                   21470303.9104
 -12104753.55147  -9429230.04345  22618331.6414                   22618329.1684
 11  8 19 15 53  0.0000000  0 10G03G06G13G16G20G23G08G10G19G07
  -9562085.74648  -7444430.00046  20880164.7504                   20880161.3164
  -2198766.64147  -1710796.73045  22409989.8134                   22409986.0234
 -14592955.87948 -11360394.73046  20184900.2344                   20184896.5904
  13642795.71547  10623431.88345  22585316.9534                   22585313.4344
  18085579.30546  14079282.69943  24358720.3524                   24358719.1374
  -5299047.71948  -4126386.82446  20128852.5784                   20128847.0944
 -10109330.52746  -7873087.63743  24623413.2424                   24623412.6454
  -8156996.78146  -6352713.53143  23867928.0944                   23867926.2974
 -16924811.95348 -13147287.35946  21468115.0704                   21468110.7974
 -12118578.04347  -9440002.32845  22615701.2274                   22615698.1054
 11  8 19 15 53 30.0000000  0 10G03G06G13G16G20G23G08G10G19G07
  -9501897.33248  -7397529.93845  20891618.0314                   20891614.7194
  -2110420.18847  -1641955.35945  22426800.9694                   22426797.7584
 -14577757.86748 -11348552.14146  20187792.5164                   20187788.1724
  13773153.44547  10725009.29345  22610123.5864                   22610119.5044
  18214504.41846  14179743.69543  24383253.3594                   24383252.8554
  -5226924.08248  -4070186.61746  20142577.3134                   20142571.7034
 -10131139.78946  -7890081.83243  24619263.4774                   24619261.6334
  -8118093.61346  -6322399.41043  23875330.5634                   23875329.7344
 -16935902.57048 -13155929.37946  21466004.6414                   21466000.3634
 -12132436.38347  -9450801.00445  22613064.1254                   22613061.1764
 11  8 19 15 54  0.0000000  0 10G03G06G13G16G20G23G08G10G19G07
  -9441115.31348  -7350167.32845  20903184.1724                   20903181.3594
  -2021599.92247  -1572744.78145  22443703.0314                   22443699.9774
 -14562073.09847 -11336330.25446  20190776.8674                   20190773.3014
  13903577.15247  10826638.11745  22634942.6484                   22634938.4344
  18343296.77946  14280101.28043  24407762.1724                   24407761.0474
  -5154269.74648  -4013572.87146  20156402.6644                   20156397.6374
 -10153039.03147  -7907146.11743  24615096.3674                   24615095.0824
  -8078729.43846  -6291726.07043  23882821.4924                   23882820.4144
 -16946541.07048 -13164219.10946  21463980.0234                   21463975.0234
 -12146313.54747  -9461614.35245  22610423.4144                   22610420.6884
 11  8 19 15 54 30.0000000  0 10G03G06G13G16G20G23G08G10G19G07
  -9379754.15348  -7302353.44845  20914861.1334                   20914858.0784
  -1932321.20547  -1503176.96545  22460692.1484                   22460689.3404
 -14545914.09947 -11323738.84146  20193851.9774                   20193848.3364
  14034050.82647  10928305.85645  22659771.2504                   22659766.9574
  18471940.61046  14380343.13144  24432242.5634                   24432242.0164
  -5081098.87448  -3956556.64246  20170327.0084                   20170321.3204
 -10175042.58847  -7924291.71043  24610909.0164                   24610907.6884
  -8038918.80946  -6260704.81343  23890397.0784                   23890395.0474
 -16956738.78848 -13172165.37946  21462039.5314                   21462034.5274
 -12160222.82047  -9472452.73745  22607776.6414                   22607773.2624
 11  8 19 15 55  0.0000000  0 10G03G06G13G16G20G23G08G10G19G07
  -9317815.93148  -7254089.90745  20926647.6254                   20926645.1134
  -1842587.00147  -1433254.22945  22477767.3754                   22477765.2504
 -14529280.12548 -11310777.31046  20197017.7894                   20197014.2274
  14164570.79947  11030009.67744  22684608.3284                   22684604.3554
  18600431.55646  14480465.81744  24456693.8054                   24456693.1094
  -5007413.32848  -3899139.35446  20184348.6254                   20184343.1724
 -10197152.55646  -7941520.18343  24606700.7974                   24606698.6414
  -7998664.34646  -6229337.71743  23898058.2114                   23898055.3364
 -16966495.07948 -13179767.69146  21460183.0474                   21460178.1024
 -12174165.53947  -9483317.15845  22605123.4614                   22605120.1994
 11  8 19 15 55 30.0000000  0 10G03G06G13G16G20G23G08G10G19G07
  -9255301.63748  -7205377.48846  20938543.5394                   20938540.7894
  -1752399.46947  -1362978.25845  22494929.9774                   22494927.2344
 -14512170.06648 -11297444.80546  20200273.4614                   20200269.4224
  14295133.89547  11131747.11344  22709453.2894                   22709449.2234
  18728766.35546  14580466.84044  24481115.5944                   24481114.1174
  -4933214.27748  -3841321.94546  20198468.3674                   20198463.0354
 -10219369.81346  -7958832.32443  24602473.1254                   24602470.9304
  -7957967.57846  -6197625.95343  23905801.8284                   23905800.7304
 -16975808.04348 -13187024.53546  21458410.9534                   21458406.0514
 -12188142.06647  -9494207.94145  22602463.8054                   22602460.8554
 11  8 19 15 56  0.0000000  0 10G03G06G13G16G20G23G08G10G19G07
  -9192212.63348  -7156217.26245  20950549.0634                   20950546.0864
  -1661761.20347  -1292351.05145  22512177.5084                   22512175.0784
 -14494583.57848 -11283741.04746  20203619.7814                   20203616.0744
  14425736.88747  11233515.65245  22734306.2504                   22734302.7704
  18856941.72746  14680343.64543  24505505.8054                   24505505.2504
  -4858502.84448  -3783105.26246  20212685.4694                   20212679.8404
 -10241695.98446  -7976229.33643  24598224.7194                   24598223.2234
  -7916830.01246  -6165570.75443  23913630.2584                   23913629.3134
 -16984676.19948 -13193934.78146  21456722.9614                   21456718.6524
 -12202153.22347  -9505125.69545  22599797.5634                   22599794.1644
 11  8 19 15 56 30.0000000  0 10G03G06G13G16G20G23G08G10G19G07
  -9128538.75448  -7106601.28146  20962665.6254                   20962662.7894
  -1570662.25847  -1221364.89545  22529513.0704                   22529510.6604
 -14476507.51247 -11269655.80546  20207059.8134                   20207055.9344
  14556389.18047  11335322.58645  22759168.3134                   22759164.9884
  18984966.53146  14780103.12943  24529868.2974                   24529867.7624
  -4783267.74248  -3724480.53546  20227002.5474                   20226996.8404
 -10264119.94146  -7993702.55143  24593957.6884                   24593956.2074
  -7875241.05146  -6133163.81343  23921544.0864                   23921543.1844
 -16993085.62148 -13200487.57446  21455122.9304                   21455117.8754
 -12216187.34847  -9516061.37545  22597126.9534                   22597123.6564
 11  8 19 15 57  0.0000000  0 10G03G06G13G16G20G23G08G10G19G07
  -9064303.13748  -7056547.57046  20974889.5474                   20974886.6374
  -1479126.62947  -1150038.45345  22546931.8054                   22546929.6914
 -14457962.82447 -11255205.40646  20210588.4924                   20210585.2114
  14687066.03547  11437148.65245  22784035.3674                   22784032.0634
  19112815.52746  14879725.61743  24554197.2734                   24554196.2344
  -4707532.20348  -3665465.85946  20241414.4144                   20241408.6414
 -10286663.94946  -8011269.23443  24589667.5234                   24589666.8914
  -7833224.76646  -6100423.86343  23929539.3444                   23929537.9224
 -17001056.59848 -13206698.71146  21453606.1804                   21453601.4264
 -12230266.63347  -9527032.22745  22594447.6884                   22594444.6454
 11  8 19 15 57 30.0000000  0 10G03G06G13G16G20G23G08G10G19G07
  -8999501.74648  -7006053.00445  20987221.3134                   20987218.2464
  -1387151.43847  -1078369.50845  22564434.2974                   22564432.3164
 -14438943.25848 -11240384.96946  20214208.2424                   20214204.1954
  14817769.86747  11538995.75044  22808907.8914                   22808903.8364
  19240490.59046  14979212.55943  24578492.9844                   24578492.0904
  -4631292.17648  -3606058.06346  20255922.3284                   20255917.0944
 -10309323.99246  -8028926.36743  24585355.4534                   24585355.0004
  -7790777.13346  -6067347.79343  23937616.9694                   23937614.9964
 -17008582.10248 -13212562.71546  21452174.1564                   21452169.6294
 -12244386.37147  -9538034.61745  22591761.4384                   22591757.9344
 11  8 19 15 58  0.0000000  0 10G03G06G13G16G20G23G08G10G19G07
  -8934131.36348  -6955115.07445  20999660.6484                   20999657.2544
  -1294734.50447  -1006356.34845  22582021.0314                   22582017.9654
 -14419443.23848 -11225190.15246  20217918.9224                   20217915.2664
  14948502.24647  11640865.09845  22833784.7424                   22833781.9064
  19367993.55546  15078565.40643  24602756.6564                   24602755.8244
  -4554544.34048  -3546254.57846  20270526.8524                   20270522.0354
 -10332096.60546  -8046671.24643  24581021.4694                   24581021.0944
  -7747895.19546  -6033933.33643  23945777.3054                   23945775.9064
 -17015655.94548 -13218074.77346  21450827.9224                   21450823.3984
 -12258542.07847  -9549065.02745  22589067.1334                   22589064.2734
 11  8 19 15 58 30.0000000  0 10G03G06G13G16G20G23G08G10G19G07
  -8868189.43848  -6903731.79745  21012209.1414                   21012206.2934
  -1201873.96147   -933997.50845  22599691.9774                   22599688.7734
 -14399457.70447 -11209617.01546  20221721.9924                   20221718.1524
  15079264.00847  11742757.32845  22858668.3134                   22858664.7234
  19495325.39146  15177784.89843  24626987.0234                   24626985.8984
  -4477285.68848  -3486053.05946  20285228.6644                   20285223.3324
 -10354978.60046  -8064501.33143  24576667.5704                   24576667.3404
  -7704576.89746  -6000178.87543  23954020.4064                   23954019.0594
 -17022273.07448 -13223230.95346  21449568.9614                   21449563.8484
 -12272730.33647  -9560120.79645  22586366.6024                   22586364.2974
 11  8 19 15 59  0.0000000  0 10G03G06G13G16G20G23G08G10G19G07
  -8801680.10548  -6851906.37946  21024865.1024                   21024862.1294
  -1108574.98447   -861297.06645  22617445.6644                   22617443.5784
 -14378989.05547 -11193667.42246  20225617.1884                   20225613.4344
  15210049.99247  11844668.42644  22883556.3524                   22883552.8054
  19622479.85946  15276866.16443  24651184.8134                   24651182.3984
  -4399520.47348  -3425456.82046  20300026.9534                   20300021.5554
 -10377973.53546  -8082419.39543  24572291.5634                   24572291.3444
  -7660826.38746  -5966087.59443  23962345.8444                   23962344.5824
 -17028433.88348 -13228031.56646  21448396.4694                   21448391.6994
 -12286954.26247  -9571204.34845  22583659.8914                   22583657.2624
 11  8 19 15 59 30.0000000  0 10G03G06G13G16G20G23G08G10G19G07
  -8734602.83648  -6799638.39846  21037629.2894                   21037626.7504
  -1014837.71147   -788255.06645  22635283.7504                   22635280.8284
 -14358034.03548 -11177338.85246  20229604.5944                   20229600.5394
  15340859.32047  11946597.72344  22908448.7424                   22908444.5634
  19749455.69546  15375808.24242  24675345.9144                   24675345.5864
  -4321247.59448  -3364464.98846  20314921.8524                   20314916.5984
 -10401080.51646  -8100424.74243  24567894.9384                   24567894.4534
  -7616643.84446  -5931659.66443  23970754.0394                   23970752.5314
 -17034135.28948 -13232474.20346  21447311.6254                   21447306.5944
 -12301212.23847  -9582314.44945  22580947.0784                   22580943.7234
 11  8 19 16  0  0.0000000  0 10G03G06G13G16G20G23G08G10G19G07
  -8666968.99248  -6746936.73446  21050499.8444                   21050497.1684
   -920674.16447   -714880.91044  22653202.0784                   22653199.1884
 -14336601.66447 -11160638.30946  20233683.0634                   20233679.3164
  15471679.55147  12048535.50445  22933342.9454                   22933339.6214
  19876240.44545  15474601.43442  24699471.9924                   24699473.0354
  -4242477.74248  -3303085.91446  20329911.2274                   20329906.0984
 -10424310.24646  -8118525.77043  24563473.8054                   24563473.4064
  -7572039.98046  -5896903.44143  23979241.4384                   23979240.3364
 -17039384.79348 -13236564.70346  21446312.5864                   21446307.7934
 -12315514.20347  -9593458.83645  22578225.6414                   22578222.4964
 11  8 19 16  0 30.0000000  0 10G03G06G13G16G20G23G08G10G19G07
  -8598766.51648  -6693791.96945  21063478.4614                   21063475.0864
   -826073.32847   -641165.99645  22671204.0474                   22671201.4844
 -14314677.30547 -11143554.40246  20237855.2344                   20237851.2344
  15602521.12147  12150489.90244  22958241.2504                   22958237.3834
  20002844.55945  15573253.81342  24723563.9924                   24723564.7974
  -4163199.41448  -3241310.62146  20344997.6414                   20344992.4264
 -10447650.44546  -8136712.87143  24559032.5784                   24559031.8634
  -7527003.11746  -5861809.80943  23987811.9064                   23987810.8404
 -17044167.61348 -13240291.56646  21445402.5004                   21445396.8874
 -12329847.03947  -9604627.26645  22575498.5084                   22575495.3594
 11  8 19 16  1  0.0000000  0 10G03G06G13G16G20G23G08G10G19G07
 -10105416.54347  -7867804.99246  20776772.4454                   20776769.1764
  -2306455.95747  -1794710.96945  22389496.9384                   22389494.7274
 -15867681.01248 -12353687.17246  19942328.5474                   19942324.6414
  14157964.23447  11024861.11344  22683351.1484                   22683347.4144
  18553847.05946  14444164.66442  24447830.7814                   24447830.3204
  -5658832.37148  -4406738.94146  20060387.9224                   20060382.8984
 -12046524.39846  -9382588.60243  24254776.8834                   24254776.0314
  -9056955.29746  -7053980.39543  23696671.3364                   23696670.6764
 -18623904.03148 -14471255.00846  21144788.4454                   21144783.1454
 -13919633.03147 -10843421.52745  22272972.3054                   22272968.4144
 11  8 19 16  1 30.0000000  0 10G03G06G13G16G20G23G08G10G19G07
 -10036091.86348  -7813785.78545  20789964.3134                   20789961.6724
  -2210997.46147  -1720327.77345  22407662.1174                   22407659.4804
 -15844780.27348 -12335842.45746  19946686.2974                   19946682.6334
  14288830.43747  11126834.73844  22708254.2114                   22708250.8324
  18680070.00846  14542520.13742  24471850.6024                   24471849.7234
  -5578550.11348  -4344181.36746  20075665.2584                   20075659.9614
 -12070097.85946  -9400957.48843  24250290.7894                   24250289.3794
  -9011068.03946  -7018224.10243  23705404.0474                   23705402.9774
 -18627758.88748 -14474258.79346  21144054.7504                   21144049.7624
 -13934038.16447 -10854646.28945  22270231.0474                   22270227.5664
 11  8 19 16  2  0.0000000  0 10G03G06G13G16G20G23G08G10G19G07
  -9966210.28148  -7759332.62545  20803262.4064                   20803259.2854
  -2115115.75447  -1645614.80545  22425908.0394                   22425905.3794
 -15821392.33648 -12317618.09846  19951137.1724                   19951133.2814
  14419703.05947  11228813.35944  22733158.6094                   22733155.1764
  18806095.80546  14640721.99642  24495831.1644                   24495831.5514
  -5497769.93448  -4281235.80146  20091037.3524                   20091031.8594
 -12093791.19946  -9419419.74643  24245782.1804                   24245781.6454
  -8964760.16046  -6982140.01643  23714215.7734                   23714214.4494
 -18631149.52348 -14476900.84046  21143409.6954                   21143404.8164
 -13948482.22347 -10865901.37545  22267481.8284                   22267479.0084
 11  8 19 16  2 30.0000000  0 10G03G06G13G16G20G23G08G10G19G07
  -9895770.74648  -7704444.68445  20816666.7584                   20816663.9454
  -2018810.52747  -1570571.82045  22444233.8674                   22444231.8284
 -15797513.77348 -12299011.44146  19955680.6644                   19955677.0554
  14550581.57047  11330796.55944  22758063.6564                   22758061.0044
  18931924.00046  14738769.79743  24519776.6564                   24519775.4454
  -5416490.42248  -4217901.15646  20106504.1724                   20106498.9304
 -12117602.85246  -9437974.24243  24241250.3444                   24241250.0554
  -8918031.08646  -6945727.79743  23723108.3524                   23723106.7114
 -18634071.66848 -14479177.83246  21142854.0394                   21142849.1914
 -13962962.60547 -10877184.77745  22264726.3754                   22264723.2774
 11  8 19 16  3  0.0000000  0 10G03G06G13G16G20G23G08G10G19G07
  -9824777.13748  -7649125.00846  20830176.6024                   20830173.8484
  -1922086.56347  -1495202.55545  22462640.1414                   22462637.2304
 -15773145.97748 -12280023.56346  19960318.0704                   19960313.9344
  14681461.41047  11432780.80144  22782969.3134                   22782966.2934
  19057549.37146  14836659.55543  24543682.6804                   24543681.5514
  -5334715.20348  -4154180.24246  20122065.2974                   20122060.1804
 -12141535.96946  -9456623.37543  24236696.5944                   24236695.3714
  -8870884.64547  -6908990.33243  23732079.7194                   23732078.8164
 -18636526.32448 -14481090.54746  21142386.4144                   21142381.8054
 -13977481.70747 -10888498.34445  22261963.2584                   22261960.4964
 11  8 19 16  3 30.0000000  0 10G03G06G13G16G20G23G08G10G19G07
  -9753220.43848  -7593366.55545  20843793.0634                   20843790.4694
  -1824935.45747  -1419500.44145  22481127.5004                   22481124.4964
 -15748277.51648 -12260645.55946  19965050.2114                   19965046.1134
  14812350.12947  11534771.95744  22807876.5084                   22807873.4574
  19182979.52347  14934397.18043  24567550.7424                   24567550.4924
  -5252435.33248  -4090066.09846  20137723.2034                   20137717.8754
 -12165580.78146  -9475359.54243  24232120.9844                   24232119.3524
  -8823312.21947  -6871920.93843  23741132.8754                   23741131.3134
 -18638501.38348 -14482629.55946  21142010.9534                   21142005.8054
 -13992029.32847 -10899834.14145  22259194.9774                   22259192.3284
 11  8 19 16  4  0.0000000  0 10G03G06G13G16G20G23G08G10G19G07
  -9681105.31348  -7537172.97745  20857516.2504                   20857513.0824
  -1727362.46147  -1343469.58245  22499694.7974                   22499692.5474
 -15722910.43048 -12240879.00446  19969877.5474                   19969873.3984
  14943242.35547  11636765.84844  22832784.9224                   22832781.1094
  19308208.80546  15031978.30543  24591380.9614                   24591380.7234
  -5169654.65648  -4025561.69146  20153475.4064                   20153470.1254
 -12189740.41046  -9494185.17643  24227523.8134                   24227522.6254
  -8775318.07446  -6834522.92243  23750265.3984                   23750264.3014
 -18639997.79748 -14483795.58646  21141725.8364                   21141721.0434
 -14006608.42647 -10911194.45345  22256420.7734                   22256417.3524
 11  8 19 16  4 30.0000000  0 10G03G06G13G16G20G23G08G10G19G07
  -9608438.21947  -7480549.28945  20871344.2974                   20871341.6334
  -1629374.96547  -1267115.73445  22518341.6484                   22518339.0234
 -15697048.94148 -12220727.20746  19974798.3594                   19974794.7544
  15074130.69147  11738756.68744  22857692.2814                   22857689.1564
  19433229.02346  15129396.53943  24615171.3754                   24615171.3914
  -5086379.63748  -3960672.11346  20169322.2894                   20169317.0394
 -12214021.09846  -9513105.12543  24222903.1724                   24222902.1524
  -8726909.22346  -6796801.78543  23759477.3444                   23759475.9924
 -18641019.27348 -14484591.54346  21141531.3134                   21141526.3754
 -14021224.06647 -10922583.25845  22253639.4064                   22253636.0984
 11  8 19 16  5  0.0000000  0 10G03G06G13G16G20G23G08G10G19G07
  -9535210.38747  -7423488.66045  20885279.1564                   20885276.6994
  -1530964.44547  -1190432.25044  22537068.2814                   22537065.8014
 -15670681.40248 -12200181.09446  19979816.1334                   19979812.5984
  15205023.27747  11840750.85544  22882600.2194                   22882596.1954
  19558048.29346  15226658.16843  24638924.4384                   24638924.5124
  -5002600.85548  -3895389.96946  20185264.6174                   20185259.3054
 -12238412.85947  -9532111.65243  24218261.6564                   24218260.1684
  -8678076.55546  -6758750.39543  23768769.8754                   23768768.6724
 -18641553.56648 -14485007.87146  21141430.0164                   21141424.9184
 -14035865.59847 -10933992.23445  22250853.4844                   22250850.1644
 11  8 19 16  5 30.0000000  0 10G03G06G13G16G20G23G08G10G19G07
  -9461431.21948  -7365998.41845  20899319.0164                   20899316.3834
  -1432141.48447  -1113427.37945  22555873.9064                   22555871.0434
 -15643814.97748 -12179246.22346  19984928.7664                   19984924.9534
  15335909.50447  11942740.07044  22907507.1484                   22907503.0634
  19682655.77346  15323754.80543  24662635.8524                   24662635.7464
  -4918327.50848  -3829722.46146  20201301.5314                   20201296.1604
 -12262924.43446  -9551211.54343  24213596.4454                   24213595.7704
  -8628830.10946  -6720376.53943  23778140.9844                   23778139.7774
 -18641607.17648 -14485049.64146  21141419.7734                   21141414.4494
 -14050540.93447 -10945427.55145  22248060.6174                   22248057.5664
 11  8 19 16  6  0.0000000  0 10G03G06G13G16G20G23G08G10G19G07
  -9387104.16848  -7308081.26245  20913462.7814                   20913460.1644
  -1332910.01647  -1036104.18845  22574756.8524                   22574754.6094
 -15616450.97348 -12157923.63346  19990136.0864                   19990132.2814
  15466785.04747  12044720.94144  22932411.7584                   22932407.9494
  19807046.87946  15420682.80943  24686307.2034                   24686305.8554
  -4833562.86748  -3763672.11746  20217431.6174                   20217426.1804
 -12287558.26647  -9570406.64143  24208908.8914                   24208908.5784
  -8579173.29746  -6681682.95743  23787590.5314                   23787588.8834
 -18641180.11348 -14484716.87546  21141500.7274                   21141496.1804
 -14065252.05147 -10956890.73845  22245261.3524                   22245258.3554
 11  8 19 16  6 30.0000000  0 10G03G06G13G16G20G23G08G10G19G07
  -9312218.99248  -7249729.21145  20927712.8204                   20927710.3874
  -1233260.29747   -958455.07444  22593719.3284                   22593717.7154
 -15588576.31648 -12136203.14146  19995440.4534                   19995436.3164
  15597659.83247  12146701.22744  22957316.6024                   22957313.5824
  19931230.87546  15517449.41843  24709938.3134                   24709937.5864
  -4748296.32848  -3697230.69146  20233657.5634                   20233652.1564
 -12312302.59846  -9589687.88343  24204200.4454                   24204199.6764
  -8529095.46546  -6642661.31343  23797119.8984                   23797118.7894
 -18640258.99248 -14483999.12146  21141676.4064                   21141671.3524
 -14079986.73447 -10968372.30945  22242457.3204                   22242454.2814
 11  8 19 16  7  0.0000000  0 10G03G06G13G16G20G23G08G10G19G07
  -9236787.12148  -7190951.16045  20942067.4454                   20942064.5594
  -1133204.78147   -880489.77344  22612759.2894                   22612757.2194
 -15560200.15648 -12114091.85246  20000840.3444                   20000836.1094
  15728520.86747  12248670.80944  22982218.6094                   22982215.4304
  20055194.77746  15614044.54743  24733528.5084                   24733527.6524
  -4662539.19148  -3630406.97346  20249976.5634                   20249971.3484
 -12337168.21947  -9609063.64543  24199468.1564                   24199467.1954
  -8478608.78146  -6603321.07843  23806726.9774                   23806726.1414
 -18638852.37148 -14482903.06346  21141944.0004                   21141938.9734
 -14094755.05547 -10979880.07845  22239646.9534                   22239643.8014
 11  8 19 16  7 30.0000000  0  9G03G06G13G16G23G08G10G19G07
  -9160804.82048  -7131744.20345  20956526.5944                   20956523.3094
  -1032740.11747   -802205.65644  22631876.8364                   22631874.5434
 -15531316.10248 -12091584.80946  20006336.5474                   20006332.4454
  15859371.59847  12350632.36344  23007118.7194                   23007115.6254
  -4576286.94948  -3563197.46146  20266389.5394                   20266384.6564
 -12362150.30546  -9628530.14143  24194714.5394                   24194712.7234
  -8427709.43846  -6563659.29743  23816413.3984                   23816411.9384
 -18636952.98048 -14481423.03146  21142305.1414                   21142300.8094
 -14109551.68847 -10991409.91845  22236831.4694                   22236827.6414
 11  8 19 16  8  0.0000000  0  9G03G06G13G16G23G08G10G19G07
  -9084272.49648  -7072108.66045  20971090.3284                   20971087.3324
   -931867.84847   -723603.91444  22651072.4614                   22651069.7624
 -15501922.50448 -12068680.71946  20011930.2034                   20011926.3324
  15990210.73047  12452584.87544  23032016.5394                   23032012.5864
  -4489540.30148  -3495602.69546  20282897.1484                   20282891.8714
 -12387248.23846  -9648086.91043  24189938.0004                   24189937.4414
  -8376398.07047  -6523676.43843  23826177.5784                   23826176.2034
 -18634558.55548 -14479557.24646  21142760.9614                   21142756.3954
 -14124375.33647 -11002960.81645  22234010.5084                   22234007.5234
 11  8 19 16  8 30.0000000  0  9G03G06G13G16G23G08G10G19G07
  -9007183.87948  -7012039.62545  20985759.6414                   20985756.4264
   -830582.55947   -644680.32845  22670346.3364                   22670343.6914
 -15472010.46548 -12045372.64546  20017622.1484                   20017618.0234
  16121043.58647  12554532.51644  23056913.6334                   23056909.9534
  -4402292.68048  -3427617.56646  20299499.9384                   20299494.6134
 -12412454.78946  -9667728.35243  24185141.5704                   24185139.9454
  -8324668.47346  -6483367.68043  23836021.5554                   23836019.8984
 -18631659.68048 -14477298.37946  21143312.7194                   21143308.1024
 -14139218.24247 -11014526.69145  22231186.0314                   22231182.6134
 11  8 19 16  9  0.0000000  0  9G03G06G13G16G23G08G10G19G07
  -8929540.62948  -6951538.41445  21000534.3754                   21000531.4384
   -728885.60247   -565435.95344  22689698.7814                   22689696.1724
 -15441578.94548 -12021659.78146  20023412.9844                   20023408.9264
  16251868.50047  12656473.96944  23081808.4144                   23081805.2934
  -4314544.91048  -3359242.70346  20316198.3914                   20316192.5124
 -12437769.89146  -9687454.35943  24180324.4064                   24180323.1174
  -8272522.33646  -6442734.37543  23845944.5474                   23845943.7344
 -18628254.17648 -14474644.73846  21143960.8594                   21143955.6174
 -14154078.98847 -11026106.47345  22228357.8444                   22228354.5234
 11  8 19 16  9 30.0000000  0  9G03G06G13G16G23G08G10G19G07
  -8851346.16048  -6890607.68845  21015414.8134                   21015411.8954
   -626781.60547   -485874.43845  22709128.6024                   22709126.7664
 -15410628.96947 -11997542.93446  20029302.7344                   20029298.8714
  16382681.33647  12758406.01244  23106701.2734                   23106698.6174
  -4226300.50448  -3290480.85246  20332989.9924                   20332984.9104
 -12463195.92646  -9707266.80543  24175485.7034                   24175484.5474
  -8219963.24247  -6401779.25043  23855946.4534                   23855945.0274
 -18624342.43748 -14471596.62946  21144705.4614                   21144700.3914
 -14168960.28547 -11037702.27045  22225526.2894                   22225522.8794
 11  8 19 16 10  0.0000000  0  9G03G06G13G16G23G08G10G19G07
  -8772589.28948  -6829238.71545  21030401.5474                   21030398.1174
   -524259.78647   -405987.33844  22728637.9694                   22728635.0164
 -15379147.02047 -11973011.55546  20035293.3204                   20035289.4064
  16513492.46947  12860336.71144  23131593.4844                   23131591.5434
  -4137547.65248  -3221322.80146  20349879.3444                   20349873.9964
 -12488720.78246  -9727156.24843  24170628.7344                   24170627.7034
  -8166979.92646  -6360493.59443  23866028.4534                   23866027.2544
 -18619910.26847 -14468142.99046  21145548.2814                   21145543.5234
 -14183848.77747 -11049303.66545  22222693.2034                   22222689.6484
 11  8 19 16 10 30.0000000  0  9G03G06G13G16G23G08G10G19G07
  -8693278.35548  -6767438.00045  21045493.6884                   21045490.9654
   -421328.82847   -325781.41445  22748225.4454                   22748222.4654
 -15347138.77048 -11948070.06346  20041384.6334                   20041380.2544
  16644293.27747  12962259.38344  23156484.5314                   23156481.3364
  -4048294.34848  -3151774.79746  20366863.9454                   20366858.4264
 -12514351.14546  -9747127.93443  24165751.3364                   24165750.5354
  -8113580.59847  -6318883.79743  23876190.8834                   23876188.8954
 -18614962.57448 -14464287.64546  21146489.9534                   21146485.5944
 -14198750.21147 -11060915.15245  22219857.2194                   22219853.9224
 11  8 19 16 11  0.0000000  0  9G03G06G13G16G23G08G10G19G07
  -8613416.06648  -6705207.66846  21060691.6414                   21060688.7074
   -317992.40647   -245259.56344  22767889.1564                   22767886.4574
 -15314604.53948 -11922718.72746  20047575.5864                   20047571.2464
  16775080.57047  13064171.49644  23181372.7424                   23181369.6054
  -3958543.02248  -3081838.72446  20383943.1174                   20383937.5634
 -12540088.58646  -9767183.00043  24160854.2974                   24160852.7544
  -8059768.34047  -6276952.19543  23886431.0944                   23886429.4494
 -18609499.42648 -14460030.65646  21147529.8444                   21147524.6524
 -14213666.02047 -11072537.84845  22217018.8054                   22217015.5474
 11  8 19 16 11 30.0000000  0  9G03G06G13G16G23G08G10G19G07
  -8533008.32048  -6642552.29745  21075992.3364                   21075989.6294
   -214257.10947   -164426.89845  22787629.6174                   22787627.4264
 -15281547.82048 -11896960.25446  20053866.0474                   20053861.8244
  16905847.58247  13166067.81244  23206256.1724                   23206253.5704
  -3868299.69148  -3011519.27346  20401115.3834                   20401110.2544
 -12565937.86346  -9787325.21943  24155935.2894                   24155933.5084
  -8005549.25847  -6234703.56643  23896747.8054                   23896747.1094
 -18603523.24248 -14455373.89546  21148666.9144                   21148662.3524
 -14228600.15247 -11084174.81345  22214177.2584                   22214174.4924
 11  8 19 16 12  0.0000000  0  9G03G06G13G16G23G08G10G19G07
  -8452060.24248  -6579475.87545  21091396.0554                   21091393.0904
   -110128.27747    -83287.57044  22807444.7894                   22807442.0704
 -15247971.13348 -11870796.60246  20060255.2424                   20060251.1994
  17036588.94547  13267944.13744  23231136.2584                   23231133.1454
  -3777568.64548  -2940819.77746  20418380.8754                   20418375.9224
 -12591902.48846  -9807557.29343  24150993.5554                   24150992.6844
  -7950928.37946  -6192141.88343  23907142.0474                   23907141.0594
 -18597035.60247 -14450318.59046  21149901.3364                   21149896.3874
 -14243555.26247 -11095828.11345  22211331.2194                   22211327.8284
 11  8 19 16 12 30.0000000  0  9G03G06G13G16G23G08G10G19G07
  -8370574.21948  -6515980.29345  21106902.1954                   21106899.4064
     -5609.26247     -1844.22345  22827334.4384                   22827332.5004
 -15213874.65648 -11844227.92246  20066743.5784                   20066739.8714
  17167302.22347  13369798.56644  23256009.8204                   23256006.7304
  -3686352.45748  -2869742.25846  20435739.0634                   20435733.9224
 -12617983.85246  -9827880.35543  24146030.4844                   24146029.0824
  -7895908.25846  -6149269.08243  23917612.3984                   23917611.6054
 -18590036.54748 -14444864.78546  21151233.0704                   21151228.4414
 -14258532.31647 -11107498.52745  22208481.3444                   22208477.9574
 11  8 19 16 13  0.0000000  0  9G03G06G13G16G23G08G10G19G07
  -8288548.62948  -6452064.25045  21122511.5004                   21122508.2934
     99301.35547     79904.26645  22847297.9774                   22847295.7464
 -15179253.81647 -11817250.65246  20073331.5234                   20073328.0664
  17297988.37547  13471631.86744  23280879.1414                   23280875.1054
  -3594648.76248  -2798284.85946  20453189.8524                   20453184.8014
 -12644178.31346  -9848291.56343  24141045.7194                   24141044.4614
  -7840487.12147  -6106083.78143  23928158.6564                   23928157.5434
 -18582520.53947 -14439008.16446  21152663.2814                   21152658.8134
 -14273527.09048 -11119182.74245  22205627.9844                   22205624.2934
 11  8 19 16 13 30.0000000  0  9G03G06G13G16G23G08G10G19G07
  -8205978.89548  -6387724.19945  21138224.0554                   21138221.1054
    204607.53947    161960.98845  22867337.2814                   22867334.6564
 -15144101.76248 -11789859.44546  20080021.0004                   20080017.2114
  17428652.10247  13573447.68744  23305743.2814                   23305739.4884
  -3502452.73848  -2726443.84446  20470734.0314                   20470728.8954
 -12670479.96946  -9868786.31343  24136041.0004                   24136039.9184
  -7784660.12146  -6062582.23843  23938781.8984                   23938781.0634
 -18574479.80547 -14432742.66046  21154193.6564                   21154188.9184
 -14288532.76647 -11130875.46545  22202772.5474                   22202769.1914
 11  8 19 16 14  0.0000000  0  9G03G06G13G16G23G08G10G19G07
  -8122877.29348  -6322969.71145  21154038.2424                   21154034.8554
    310296.56247    244316.03145  22887449.3754                   22887446.7704
 -15108428.06648 -11762061.77746  20086809.7344                   20086805.5864
  17559280.61747  13675236.09044  23330601.5634                   23330597.4884
  -3409776.41848  -2654228.55946  20488369.9384                   20488365.0124
 -12696899.84446  -9889373.18443  24131014.0474                   24131012.5904
  -7728439.93846  -6018774.30544  23949481.2664                   23949479.4304
 -18565923.68447 -14426075.55146  21155821.7664                   21155816.7934
 -14303559.75847 -11142584.80145  22199912.8284                   22199909.3754
 11  8 19 16 14 30.0000000  0 10G03G06G13G16G28G23G08G10G19G07
  -8039244.78948  -6257801.53945  21169952.3834                   21169949.4344
    416366.85247    326968.15645  22907633.6254                   22907631.5474
 -15072231.63747 -11733856.78146  20093697.2734                   20093693.7154
  17689872.48447  13776995.90644  23355452.1954                   23355448.2034
 -11070165.62956  -8609865.63353  24729351.5394                   24729350.3914
  -3316620.19948  -2581639.32446  20506096.6334                   20506091.5824
 -12723437.62946  -9910051.92643  24125963.3754                   24125962.6294
  -7671827.58246  -5974660.82443  23960253.2424                   23960252.3134
 -18556849.98848 -14419005.14146  21157548.4304                   21157543.5664
 -14318606.68847 -11154309.68445  22197049.5864                   22197046.3134
 11  8 19 16 15  0.0000000  0 10G03G06G13G16G28G23G08G10G19G07
  -7955082.91048  -6192220.85945  21185967.8674                   21185965.1024
    522816.27047    409915.69544  22927889.9064                   22927887.9264
 -15035511.37148 -11705243.59846  20100685.5634                   20100681.6174
  17820425.94147  13878725.83244  23380296.1954                   23380292.4884
 -11103692.18046  -8635990.20343  24722971.7274                   24722970.8324
  -3222985.40648  -2508677.19146  20523914.6564                   20523909.9494
 -12750093.00846  -9930822.35243  24120890.4844                   24120889.9064
  -7614824.62546  -5930242.97343  23971101.1094                   23971100.2774
 -18547256.97748 -14411530.06346  21159373.6254                   21159368.9924
 -14333672.91047 -11166049.56645  22194181.8524                   22194179.0004
 11  8 19 16 15 30.0000000  0 10G03G06G13G16G28G23G08G10G19G07
  -7870401.48048  -6126235.35545  21202081.9924                   21202079.2034
    629634.69547    493150.79744  22948217.1954                   22948214.8984
 -14998274.07047 -11676227.53146  20107771.3134                   20107767.3954
  17950931.31647  13980418.29344  23405129.7814                   23405126.7304
 -11137068.08646  -8661997.40643  24716620.2814                   24716620.6884
  -3128881.36348  -2435349.40646  20541822.4454                   20541817.0704
 -12776873.81346  -9951690.47343  24115794.5784                   24115793.0004
  -7557440.84446  -5885528.36743  23982020.6564                   23982019.5164
 -18537151.07448 -14403655.33646  21161297.0004                   21161292.2464
 -14348765.84447 -11177810.28945  22191310.0554                   22191307.1644
 11  8 19 16 16  0.0000000  0 11G03G06G13G16G28G23G08G10G19G07G11
  -7785203.51248  -6059847.34045  21218294.7114                   21218291.4844
    736818.60247    576670.68745  22968613.6564                   22968610.7384
 -14960520.13748 -11646808.89346  20114955.5164                   20114951.4844
  18081385.44947  14082070.80544  23429954.2344                   23429951.5664
 -11170294.36546  -8687887.98543  24710296.9694                   24710296.7424
  -3034311.09448  -2361658.31646  20559818.4384                   20559813.2974
 -12803781.67246  -9972657.59844  24110673.4694                   24110673.1684
  -7499679.43046  -5840519.53243  23993011.3984                   23993010.9414
 -18526532.24248 -14395380.91046  21163317.7974                   21163312.7704
 -14363886.13747 -11189592.33245  22188432.9384                   22188429.1994
 -11070070.38356  -8619143.02053  24855359.2734                   24855359.0864
 11  8 19 16 16 30.0000000  0 11G03G06G13G16G28G23G08G10G19G07G11
  -7699488.38748  -5993056.36745  21234605.7894                   21234602.8714
    844368.07847    660475.43744  22989078.8754                   22989077.0744
 -14922247.61347 -11616986.16046  20122238.8984                   20122234.8754
  18211788.71147  14183683.68044  23454769.7114                   23454766.9534
 -11203368.76646  -8713660.21543  24704003.7894                   24704002.7074
  -2939273.65248  -2287603.20346  20577903.6334                   20577898.2974
 -12830814.87546  -9993722.37144  24105529.6804                   24105529.2464
  -7441539.82446  -5795215.96543  24004075.3204                   24004075.3674
 -18515396.84448 -14386703.98046  21165437.2424                   21165431.7934
 -14379031.17647 -11201393.65245  22185550.8984                   22185547.6414
 -11103553.31346  -8645233.61343  24848987.0704                   24848987.5944
 11  8 19 16 17  0.0000000  0 11G03G06G13G16G28G23G08G10G19G07G11
  -7613259.90648  -5925865.36345  21251014.4224                   21251011.6724
    952278.77347    744561.66844  23009614.3914                   23009611.7734
 -14883457.20747 -11586759.88746  20129620.2974                   20129616.3014
  18342137.21147  14285253.91044  23479574.2194                   23479571.7424
 -11236292.04246  -8739314.68243  24697739.3754                   24697737.6644
  -2843772.35248  -2213186.63646  20596076.8984                   20596070.9104
 -12857974.81347 -10014885.93843  24100361.7814                   24100360.7114
  -7383025.61346  -5749620.50044  24015211.1484                   24015210.1294
 -18503745.43747 -14377624.94546  21167653.5864                   21167648.9384
 -14394202.14547 -11213215.16845  22182663.7664                   22182660.2114
 -11137251.56646  -8671491.93543  24842574.8284                   24842574.7464
 11  8 19 16 17 30.0000000  0 11G03G06G13G16G28G23G08G10G19G07G11
  -7526517.92248  -5858274.22345  21267520.8204                   21267518.2424
   1060550.55547    828929.24644  23030217.7274                   23030215.9144
 -14844146.15647 -11556127.90646  20137101.6804                   20137097.1764
  18472431.16847  14386781.60244  23504368.5234                   23504365.8554
 -11269062.55546  -8764850.15243  24691502.6724                   24691501.7974
  -2747806.67648  -2138408.21146  20614338.6884                   20614333.4224
 -12885259.93447 -10036147.01643  24095169.2034                   24095167.6764
  -7324136.69946  -5703733.10943  24026416.4304                   24026416.7194
 -18491574.58648 -14368141.14846  21169969.7814                   21169965.1604
 -14409396.56347 -11225054.96545  22179772.1024                   22179769.2114
 -11171160.86346  -8697914.69943  24836122.0084                   24836121.8094
 11  8 19 16 18  0.0000000  0 11G03G06G13G16G28G23G08G10G19G07G11
  -7439269.37548  -5790288.37945  21284123.7974                   21284120.8204
   1169176.16047    913572.54744  23050888.7114                   23050886.3404
 -14804319.21148 -11525093.92646  20144679.7664                   20144676.0394
  18602663.87946  14488261.59444  23529150.5164                   23529148.3714
 -11301684.81946  -8790270.08743  24685294.3134                   24685294.2774
  -2651382.94148  -2063272.86746  20632687.3674                   20632682.0664
 -12912675.17247 -10057509.50044  24089952.5784                   24089951.0634
  -7264879.77346  -5657558.94543  24037692.4384                   24037692.8054
 -18478887.99248 -14358255.47346  21172384.1644                   21172379.5274
 -14424618.96547 -11236916.56345  22176876.1254                   22176872.2194
 -11205284.49246  -8724504.48443  24829628.4924                   24829627.9774
 11  8 19 16 18 30.0000000  0 11G03G06G13G16G28G23G08G10G19G07G11
  -7351509.59848  -5721904.16845  21300824.1254                   21300821.0164
   1278159.43447    998494.55544  23071626.9144                   23071625.0234
 -14763969.16847 -11493652.34846  20152358.1644                   20152354.1604
  18732839.69946  14589697.23044  23553922.2664                   23553919.2304
 -11334152.37146  -8815569.42643  24679116.3364                   24679116.1414
  -2554496.64848  -1987777.07846  20651124.1334                   20651118.8524
 -12940214.34047 -10078968.55944  24084711.8204                   24084710.7424
  -7205250.68846  -5611094.76643  24049040.4304                   24049039.5634
 -18465678.00847 -14347961.97346  21174898.0784                   21174893.2034
 -14439862.31347 -11248794.50045  22173975.1174                   22173971.7774
 -11239613.96946  -8751254.67243  24823096.2504                   24823094.6054
 11  8 19 16 19  0.0000000  0 11G03G06G13G16G28G23G08G10G19G07G11
  -7263239.69948  -5653122.46145  21317620.9224                   21317618.2664
   1387499.52747   1083694.59844  23092434.2584                   23092431.6054
 -14723094.21947 -11461801.75846  20160136.5084                   20160132.7234
  18862957.70346  14691087.81244  23578683.4064                   23578680.1254
 -11366463.40247  -8840746.81643  24672968.1954                   24672966.9574
  -2457147.96148  -1911920.99646  20669649.0084                   20669643.4104
 -12967875.99647 -10100523.07044  24079448.2814                   24079446.9414
  -7145249.70746  -5564340.77043  24060457.7344                   24060456.9534
 -18451942.18448 -14337258.71946  21177511.8364                   21177506.6884
 -14455124.67647 -11260687.22745  22171070.8754                   22171067.2854
 -11274145.85946  -8778162.56343  24816524.1484                   24816524.5234
 11  8 19 16 19 30.0000000  0 11G03G06G13G16G28G23G08G10G19G07G11
  -7174455.18448  -5583939.75045  21334515.9614                   21334513.3914
   1497199.86347   1169175.34444  23113309.5784                   23113307.0514
 -14681687.57048 -11429536.84446  20168015.7274                   20168011.9384
  18993022.40646  14792436.84844  23603433.6644                   23603430.1994
 -11398611.85946  -8865797.50443  24666850.4774                   24666849.2734
  -2359332.66448  -1835701.31646  20688262.9224                   20688257.4144
 -12995654.46947 -10122168.61344  24074161.5314                   24074160.9224
  -7084872.92246  -5517293.96943  24071947.1334                   24071946.4844
 -18437673.53548 -14326140.29346  21180227.1024                   21180221.6724
 -14470399.52748 -11272589.69145  22168164.0634                   22168160.0744
 -11308871.91046  -8805221.75043  24809915.8204                   24809915.8984
 11  8 19 16 20  0.0000000  0 11G03G06G13G16G28G23G08G10G19G07G11
  -7085164.67248  -5514362.77745  21351507.3834                   21351504.9884
   1607251.83247   1254930.10244  23134251.4144                   23134249.2584
 -14639755.38348 -11396862.42646  20175995.1954                   20175991.3444
  19123025.53146  14893737.94944  23628172.5944                   23628169.1414
 -11430603.94146  -8890726.32043  24660761.9534                   24660761.3324
  -2261058.68848  -1759124.21946  20706963.9774                   20706958.7274
 -13023556.09847 -10143910.09044  24068852.2894                   24068851.3284
  -7024128.67246  -5469960.83244  24083506.2814                   24083506.1334
 -18422877.15248 -14314610.64146  21183042.6174                   21183037.1994
 -14485692.45747 -11284506.24645  22165253.8134                   22165250.0864
 -11343796.44546  -8832435.55143  24803269.2974                   24803270.2074
 11  8 19 16 20 30.0000000  0 11G03G06G13G16G28G23G08G10G19G07G11
  -8570786.03148  -6671989.87145  21068803.0314                   21068800.7274
    142237.50847    113360.44544  22855468.5164                   22855466.3324
 -16172715.02348 -12591376.44546  19884282.4924                   19884278.4654
  17677550.45346  13767393.65244  23353107.5004                   23353104.7734
 -13037859.38346 -10143133.09043  24354911.2274                   24354910.9654
  -3737743.62948  -2909787.83646  20425959.8054                   20425954.8094
 -14627001.46147 -11393348.00444  23763727.5084                   23763725.5634
  -8538436.10246  -6649940.67243  23795343.0634                   23795342.5474
 -19982970.30548 -15530267.63346  20886166.6724                   20886161.7704
 -16076423.06647 -12524036.58645  21862547.8914                   21862544.8954
 -12954337.66046 -10087402.64543  24496794.1094                   24496794.4804
 11  8 19 16 21  0.0000000  0 11G03G06G13G16G28G23G08G10G19G07G11
  -8480484.72747  -6601625.26545  21085987.1484                   21085984.3484
    252989.83547    199660.92644  22876544.5234                   22876541.7934
 -16129726.11548 -12557878.61146  19892463.5084                   19892459.0314
  17807429.50047  13868598.01644  23377823.4224                   23377820.4454
 -13069533.28946 -10167813.96543  24348883.0704                   24348883.3284
  -3638552.86848  -2832496.36946  20444835.5004                   20444830.1524
 -14655145.93347 -11415278.70944  23758371.3594                   23758369.8324
  -8476958.53946  -6602036.08243  23807041.7814                   23807041.5514
 -19967110.29348 -15517909.18346  20889184.5634                   20889180.0274
 -16091746.56548 -12535976.95745  21859632.0314                   21859628.5824
 -12989648.47446 -10114917.38543  24490075.1564                   24490074.8244
 11  8 19 16 21 30.0000000  0 11G03G06G13G16G28G23G08G10G19G07G11
  -8389677.74648  -6530866.62545  21103266.8674                   21103264.1054
    364092.23047    286234.18444  22897686.7504                   22897684.0354
 -16086204.77747 -12523965.89846  19900745.3134                   19900741.1844
  17937247.18047  13969754.58244  23402526.1644                   23402523.8754
 -13101044.30146 -10192367.86743  24342888.0864                   24342887.2504
  -3538902.73448  -2754846.95746  20463798.1644                   20463792.7974
 -14683408.28947 -11437301.31243  23752993.2664                   23752991.9774
  -8415113.69946  -6553845.38743  23818810.9224                   23818810.0394
 -19950713.45347 -15505132.43446  20892304.9774                   20892299.7304
 -16107080.78947 -12547925.69145  21856713.7814                   21856710.4304
 -13025145.77346 -10142577.52742  24483319.7114                   24483319.6374
 11  8 19 16 22  0.0000000  0 11G03G06G13G16G28G23G08G10G19G07G11
  -8298367.18748  -6459715.58645  21120643.2584                   21120640.2734
    475542.18847    373078.26644  22918894.4064                   22918892.3014
 -16042150.88348 -12489638.20346  19909128.5474                   19909124.2854
  18067001.32447  14070861.64844  23427217.8134                   23427214.7034
 -13132392.75845 -10216795.13342  24336921.1414                   24336922.1764
  -3438795.26648  -2676841.17246  20482848.1644                   20482842.9534
 -14711789.27047 -11459416.30943  23747592.6094                   23747590.5984
  -8352904.04746  -6505370.34843  23830649.0084                   23830648.2974
 -19933778.83248 -15491936.62546  20895527.3984                   20895522.7234
 -16122425.54347 -12559882.59846  21853793.8134                   21853790.9064
 -13060827.80946 -10170381.55142  24476528.6954                   24476529.3134
 11  8 19 16 22 30.0000000  0 11G03G06G13G16G28G23G08G10G19G07G11
  -8206558.70348  -6388176.54345  21138114.0164                   21138111.3094
    587333.50447    460188.35544  22940167.6644                   22940164.6764
 -15997567.46548 -12454897.90646  19917612.0234                   19917608.3554
  18196686.74646  14171915.17644  23451895.6884                   23451892.5634
 -13163581.89146 -10241098.27042  24330985.4924                   24330986.6564
  -3338235.78148  -2598483.16446  20501983.6644                   20501978.9694
 -14740292.29347 -11481626.40244  23742167.9614                   23742166.8714
  -8290335.08646  -6456615.33243  23842555.0394                   23842554.7704
 -19916309.12948 -15478323.85546  20898851.7274                   20898847.1764
 -16137783.64848 -12571849.95346  21850871.0084                   21850868.1174
 -13096695.74646 -10198330.50042  24469703.2344                   24469704.6804
 11  8 19 16 23  0.0000000  0 11G03G06G13G16G28G23G08G10G19G07G11
  -8114246.52048  -6316245.01245  21155680.3674                   21155677.5204
    699471.85547    547568.84044  22961507.0944                   22961505.3054
 -15952446.12948 -12419738.44146  19926198.5554                   19926194.4734
  18326309.67346  14272919.99344  23476562.9694                   23476560.0824
 -13194603.66446 -10265270.99642  24325084.2584                   24325083.6524
  -3237217.93748  -2519768.00446  20521206.7734                   20521201.8874
 -14768909.12946 -11503925.19543  23736722.1024                   23736720.9304
  -8227400.85246  -6407575.70743  23854530.9454                   23854530.7854
 -19898295.18048 -15464287.00846  20902280.0004                   20902274.9454
 -16153146.57847 -12583821.08646  21847948.0784                   21847944.5634
 -13132739.55146 -10226416.47742  24462845.7504                   24462845.3404
 11  8 19 16 23 30.0000000  0 11G03G06G13G16G28G23G08G10G19G07G11
  -8021429.17248  -6243919.83245  21173343.0554                   21173340.0864
    811958.40647    635220.64144  22982912.9384                   22982910.6294
 -15906782.78148 -12384156.63746  19934888.0234                   19934884.4414
  18455871.95347  14373877.54744  23501217.5864                   23501215.5084
 -13225454.12946 -10289310.22342  24319212.7814                   24319212.5354
  -3135740.09048  -2440694.39846  20540517.9144                   20540512.5864
 -14797636.16847 -11526309.85944  23731255.7274                   23731254.5944
  -8164099.85946  -6358250.27343  23866577.4224                   23866576.5474
 -19879732.52748 -15449822.60946  20905812.3444                   20905807.0634
 -16168510.00047 -12595792.54745  21845024.0084                   21845021.1484
 -13168953.27246 -10254634.90742  24455954.3284                   24455954.0984
 11  8 19 16 24  0.0000000  0 11G03G06G13G16G28G23G08G10G19G07G11
  -7928108.31648  -6171202.28145  21191101.4454                   21191098.1564
    924791.28947    723142.31644  23004383.5474                   23004382.0824
 -15860576.85548 -12348152.04346  19943680.8914                   19943676.8914
  18585372.56347  14474787.03544  23525860.6174                   23525858.9614
 -13256132.78146 -10313215.64842  24313375.2734                   24313374.2814
  -3033803.29748  -2361263.16446  20559915.3284                   20559910.4574
 -14826472.99247 -11548780.06643  23725768.4694                   23725767.2544
  -8100433.78147  -6308640.37544  23878692.6564                   23878692.2624
 -19860619.48048 -15434929.31246  20909449.6484                   20909444.4774
 -16183872.61347 -12607763.39545  21842101.0084                   21842097.3794
 -13205334.18046 -10282983.62542  24449031.7114                   24449031.4384
 11  8 19 16 24 30.0000000  0 11G03G06G13G16G28G23G08G10G19G07G11
  -7834281.86348  -6098090.78145  21208955.9534                   21208952.7934
   1037971.98847    811335.03944  23025921.3754                   23025919.7934
 -15813823.93448 -12311721.21546  19952577.6804                   19952573.9964
  18714813.68446  14575650.18444  23550492.6174                   23550490.3834
 -13286635.03146 -10336983.62143  24307571.0864                   24307569.7974
  -2931405.27048  -2281472.52746  20579401.3134                   20579395.8874
 -14855415.56647 -11571332.68043  23720260.9384                   23720258.4884
  -8036400.36946  -6258744.25444  23890877.4614                   23890877.4844
 -19840951.11748 -15419603.30946  20913192.1414                   20913187.6254
 -16199229.50447 -12619729.79746  21839178.4064                   21839175.3444
 -13241876.03146 -10311457.74242  24442077.1884                   24442077.3874
 11  8 19 16 25  0.0000000  0 11G03G06G13G16G28G23G08G10G19G07G11
  -7739954.80148  -6024589.19545  21226905.7974                   21226902.7034
   1151495.62147    899794.93044  23047524.9304                   23047523.0864
 -15766526.41448 -12274866.04346  19961578.3284                   19961574.6724
  18844191.07046  14676463.64843  23575112.0944                   23575109.3754
 -13316963.52347 -10360616.10243  24301799.1724                   24301797.7734
  -2828550.58248  -2201326.06246  20598973.8134                   20598968.7664
 -14884466.42647 -11593969.66043  23714732.9144                   23714730.1254
  -7972004.62946  -6208565.80143  23903132.4064                   23903131.4774
 -19820728.93048 -15403845.76646  20917040.0084                   20917035.3984
 -16214582.74247 -12631693.35546  21836257.2504                   21836253.8134
 -13278579.27346 -10340057.60242  24435092.9924                   24435092.4694
 11  8 19 16 25 30.0000000  0 11G03G06G13G16G28G23G08G10G19G07G11
  -7645119.40248  -5950691.50445  21244952.6174                   21244949.7464
   1265369.52347    988527.78944  23069194.1334                   23069192.1804
 -15718673.78548 -12237578.30146  19970684.1564                   19970679.8634
  18973512.59446  14777233.61243  23599721.5234                   23599717.6414
 -13347108.59847 -10384105.72743  24296062.8984                   24296062.3094
  -2725231.15248  -2120817.45746  20618634.8524                   20618629.7974
 -14913615.86347 -11616683.44543  23709185.1644                   23709184.1414
  -7907238.51247  -6158098.70744  23915456.6334                   23915456.1644
 -19799942.21548 -15387648.33646  20920995.8674                   20920990.5434
 -16229921.73047 -12643645.80146  21833337.9144                   21833334.7424
 -13315431.47746 -10368773.53942  24428079.9304                   24428079.8054
 11  8 19 16 26  0.0000000  0 11G03G06G13G16G28G23G08G10G19G07G11
  -7549784.22748  -5876404.37945  21263094.1724                   21263091.0354
   1379584.32847   1077526.28944  23090928.3134                   23090926.2344
 -15670273.34448 -12199863.69946  19979894.0474                   19979890.0394
  19102770.26246  14877953.80943  23624318.5164                   23624315.1134
 -13377076.52047 -10407457.30943  24290360.1724                   24290358.7384
  -2621455.60548  -2039953.44146  20638383.0164                   20638377.7504
 -14942870.53947 -11639479.25044  23703618.6884                   23703616.9924
  -7842110.92247  -6107349.96144  23927850.6094                   23927849.8204
 -19778596.98848 -15371015.69146  20925057.8054                   20925052.9534
 -16245252.64847 -12655591.95346  21830420.6414                   21830417.0554
 -13352437.51646 -10397609.36342  24421037.8834                   24421037.3134
 11  8 19 16 26 30.0000000  0 11G03G06G13G16G28G23G08G10G19G07G11
  -7453954.85548  -5801732.17245  21281329.8364                   21281326.4924
   1494134.50847   1166786.14544  23112726.4844                   23112724.3364
 -15621327.48448 -12161724.09446  19989208.6724                   19989204.3674
  19231958.88746  14978620.20343  23648902.2734                   23648899.5314
 -13406870.36747 -10430673.27343  24284690.4614                   24284688.8134
  -2517228.81248  -1958737.78946  20658216.5314                   20658211.3914
 -14972233.61347 -11662359.51244  23698030.7894                   23698029.3284
  -7776627.18046  -6056323.70343  23940311.2734                   23940311.1024
 -19756695.79348 -15353949.82846  20929225.4924                   20929220.2074
 -16260577.73848 -12667533.59446  21827504.0704                   21827500.4654
 -13389598.29346 -10426565.73843  24413966.7504                   24413965.8484
 11  8 19 16 27  0.0000000  0 11G03G06G13G16G28G23G08G10G19G07G11
  -7357626.99247  -5726671.53545  21299660.2504                   21299657.3834
   1609024.33247   1256310.62544  23134588.6564                   23134587.6294
 -15571829.63348 -12123154.35546  19998627.8054                   19998623.7704
  19361083.53547  15079236.74643  23673473.9844                   23673471.4774
 -13436483.47747 -10453748.39143  24279055.6804                   24279054.1884
  -2412546.10248  -1877166.89546  20678136.7734                   20678131.7934
 -15001698.10947 -11685318.82443  23692423.4534                   23692422.0664
  -7710782.84046  -6005016.44143  23952841.2664                   23952840.6884
 -19734230.90248 -15336444.71146  20933500.2274                   20933495.5004
 -16275889.58648 -12679464.88346  21824590.7114                   21824587.3094
 -13426904.59446 -10455635.49643  24406866.6094                   24406866.1804
 11  8 19 16 27 30.0000000  0 11G03G06G13G16G28G23G08G10G19G07G11
  -7260810.50047  -5651230.13345  21318083.7734                   21318081.2624
   1724243.69147   1346091.88344  23156514.8444                   23156512.5004
 -15521787.22348 -12084160.28946  20008150.5784                   20008146.4774
  19490135.12946  15179796.34843  23698032.3054                   23698028.8984
 -13465923.41047 -10476688.56243  24273452.9144                   24273452.5084
  -2307417.24648  -1795248.35246  20698142.5084                   20698136.8244
 -15031271.85247 -11708363.23443  23686795.7974                   23686794.2704
  -7644588.09446  -5953436.15643  23965437.7814                   23965436.4964
 -19711209.13748 -15318505.66846  20937880.8284                   20937875.9144
 -16291195.22347 -12691391.35246  21821677.6954                   21821674.6334
 -13464361.94546 -10484822.95243  24399739.5234                   24399737.8594
 11  8 19 16 28  0.0000000  0 11G03G06G13G16G28G23G08G10G19G07G11
  -7163502.64847  -5575405.86345  21336601.0004                   21336598.0354
   1839794.86347   1436131.71144  23178503.5164                   23178501.2424
 -15471195.10248 -12044737.87546  20017777.4144                   20017773.6454
  19619117.00447  15280301.64544  23722576.1254                   23722573.1844
 -13495185.02747 -10499489.76643  24267884.6884                   24267883.4384
  -2201839.10948  -1712979.71946  20718233.2734                   20718228.2544
 -15060949.94147 -11731488.98044  23681148.6024                   23681147.0474
  -7578039.66846  -5901580.21943  23978100.2114                   23978100.4144
 -19687624.73048 -15300128.20746  20942369.4144                   20942363.9924
 -16306488.80947 -12703308.41846  21818767.7034                   21818764.0474
 -13501962.91846 -10514122.34043  24392584.6334                   24392582.3054
 11  8 19 16 28 30.0000000  0 11G03G06G13G16G28G23G08G10G19G07G11
  -7065711.38347  -5499204.89545  21355210.0314                   21355207.0824
   1955669.84447   1526423.88744  23200554.2194                   23200551.6294
 -15420058.79348 -12004891.41846  20027508.6094                   20027504.9384
  19748021.70846  15380746.80043  23747105.7664                   23747103.2464
 -13524274.02746 -10522156.47743  24262349.3914                   24262347.8834
  -2095819.23048  -1630366.85546  20738408.4774                   20738402.9844
 -15090737.43747 -11754699.97744  23675480.0784                   23675478.9384
  -7511145.21546  -5849454.71543  23990830.2974                   23990830.2344
 -19663482.57848 -15281316.12946  20946963.0864                   20946957.7624
 -16321775.25448 -12715219.93046  21815858.5784                   21815855.5004
 -13539711.08646 -10543536.39543  24385400.9844                   24385399.5634
 11  8 19 16 29  0.0000000  0 11G03G06G13G16G28G23G08G10G19G07G11
  -6967435.59147  -5422626.38145  21373911.8754                   21373909.2274
   2071869.41447   1616968.95344  23222666.4384                   23222664.5044
 -15368375.00848 -11964618.35546  20037343.4694                   20037339.4264
  19876851.35246  15481133.41044  23771621.4924                   23771619.1214
 -13553186.62546 -10544685.69143  24256847.1954                   24256845.6764
  -1989356.11148  -1547408.62446  20758667.5704                   20758662.3524
 -15120631.24247 -11777993.80544  23669792.0634                   23669790.7274
  -7443903.70746  -5797058.79643  24003627.2034                   24003625.4414
 -19638778.56747 -15262066.24046  20951663.9924                   20951659.1174
 -16337050.32448 -12727122.57445  21812951.8204                   21812948.3754
 -13577600.52046 -10573060.51643  24378191.0164                   24378189.1334
 11  8 19 16 29 30.0000000  0 11G03G06G13G16G28G23G08G10G19G07G11
  -6868673.87147  -5345669.23845  21392705.0864                   21392702.6604
   2188394.73847   1707767.84444  23244839.9614                   23244838.6564
 -15316140.15648 -11923915.88346  20047283.8284                   20047279.8244
  20005607.54347  15581462.85943  23796123.4534                   23796120.3404
 -13581919.24646 -10567074.70343  24251380.0394                   24251377.7934
  -1882448.03148  -1464103.66846  20779011.1954                   20779006.3204
 -15150627.44147 -11801367.45344  23664083.0704                   23664082.0204
  -7376313.98847  -5744391.50444  24016488.6414                   24016487.8524
 -19613508.66048 -15242375.39146  20956472.6174                   20956467.5744
 -16352309.69547 -12739012.97746  21810048.6804                   21810044.8204
 -13615625.32846 -10602690.15243  24370953.8984                   24370953.1054
 11  8 19 16 30  0.0000000  0 11G03G06G13G16G28G23G08G10G19G07G11
  -6769439.77047  -5268344.00845  21411588.7584                   21411586.0124
   2305232.25447   1798810.01644  23267073.3524                   23267071.4454
 -15263365.07048 -11882792.45746  20057326.3594                   20057322.4844
  20134278.25447  15681725.68043  23820608.0234                   23820605.2464
 -13610482.97746 -10589332.06243  24245943.3834                   24245942.7424
  -1775108.23048  -1380462.30146  20799437.6884                   20799433.0004
 -15180737.13347 -11824829.50844  23658353.9144                   23658352.8674
  -7308389.22346  -5691463.14543  24029414.2504                   24029413.3634
 -19587682.76648 -15222251.30946  20961387.2344                   20961382.3914
 -16367563.21148 -12750898.81246  21807145.4924                   21807142.5664
 -13653794.37546 -10632432.19543  24363691.3984                   24363689.4884
 11  8 19 16 30 30.0000000  0 11G03G06G13G16G28G23G08G10G19G07G11
  -6669731.75047  -5190649.47345  21430562.7734                   21430560.3714
   2422383.40647   1890096.60944  23289366.5944                   23289364.0204
 -15210046.14148 -11841245.24646  20067472.4614                   20067468.6914
  20262865.00446  15781923.06644  23845078.0634                   23845074.5314
 -13638874.14146 -10611454.96943  24240540.8134                   24240539.8284
  -1667334.93448  -1296483.16046  20819946.1644                   20819941.1684
 -15210956.54747 -11848377.09044  23652603.0164                   23652601.1484
  -7240128.02346  -5638272.62943  24042403.6884                   24042403.1454
 -19561296.59048 -15201690.64146  20966408.0944                   20966403.5984
 -16382806.55948 -12762776.72346  21804244.5864                   21804241.2114
 -13692101.57846 -10662281.84843  24356401.4694                   24356400.0354
 11  8 19 16 31  0.0000000  0 11G03G06G13G16G28G23G08G10G19G07G11
  -6569560.52047  -5112593.99245  21449624.5634                   21449622.0474
   2539837.11247   1981618.92044  23311717.3594                   23311715.6844
 -15156191.21148 -11799280.38746  20077721.0864                   20077717.2504
  20391358.13947  15882047.51444  23869529.7894                   23869526.5044
 -13667100.70746 -10633449.61343  24235169.8364                   24235168.7774
  -1559138.22748  -1212174.06246  20840535.1884                   20840530.4614
 -15241293.57047 -11872016.30544  23646830.1024                   23646828.4924
  -7171540.50446  -5584827.85943  24055455.5234                   24055454.4144
 -19534357.95348 -15180699.49246  20971534.8754                   20971529.2774
 -16398047.23648 -12774652.56246  21801344.7194                   21801341.3484
 -13730552.41546 -10692243.40143  24349083.6174                   24349083.0904
 11  8 19 16 31 30.0000000  0 11G03G06G13G16G28G23G08G10G19G07G11
  -6468924.23847  -5034176.15645  21468775.1414                   21468772.9534
   2657595.36347   2073378.56344  23334125.9304                   23334124.4734
 -15101796.38348 -11756894.81246  20088072.0554                   20088067.9384
  20519760.97347  15982101.59044  23893963.7344                   23893961.3014
 -13695158.45746 -10655312.70343  24229830.0634                   24229828.9024
  -1450516.27348  -1127533.61746  20861205.5704                   20861200.4144
 -15271743.66847 -11895743.63744  23641035.4694                   23641033.9964
  -7102624.94947  -5531127.46143  24068570.2504                   24068569.3984
 -19506862.16048 -15159274.19146  20976767.3444                   20976762.2234
 -16413279.63748 -12786521.94146  21798446.0634                   21798443.1094
 -13769140.40246 -10722311.85543  24341742.1094                   24341739.7814
 11  8 19 16 32  0.0000000  0 11G03G06G13G16G28G23G08G10G19G07G11
  -6367828.30547  -4955400.13345  21488012.8674                   21488010.4384
   2775651.98847   2165370.66444  23356591.9694                   23356589.4884
 -15046865.38748 -11714091.45346  20098525.0084                   20098521.2774
  20648068.01247  16082081.03944  23918379.7114                   23918377.5744
 -13723050.58246 -10677046.76643  24224522.3674                   24224521.4144
  -1341474.09448  -1042565.72346  20881955.6564                   20881950.7114
 -15302310.22347 -11919561.68444  23635219.0314                   23635217.4064
  -7033387.32846  -5477176.09444  24081745.8134                   24081744.6564
 -19478811.83648 -15137416.78946  20982104.5554                   20982099.9224
 -16428506.81648 -12798387.24646  21795548.2034                   21795545.3524
 -13807866.55146 -10752487.94943  24334371.7274                   24334370.4614
 11  8 19 16 32 30.0000000  0 11G03G06G13G16G28G23G08G10G19G07G11
  -6266277.77247  -4876269.87145  21507337.6254                   21507335.0234
   2894002.26247   2257591.62644  23379113.0164                   23379110.9104
 -14991400.29748 -11670871.91446  20109079.7034                   20109075.8164
  20776275.77046  16181983.10943  23942777.0234                   23942774.5944
 -13750779.71146 -10698653.78143  24219245.4454                   24219245.1254
  -1232016.29348   -957273.96546  20902784.8444                   20902779.5664
 -15332995.08647 -11943471.93044  23629379.7034                   23629378.1844
  -6963831.52746  -5422976.79343  24094981.9304                   24094980.6884
 -19450208.64548 -15115128.59046  20987548.0164                   20987542.8914
 -16443730.06648 -12810249.49646  21792651.0944                   21792648.2194
 -13846730.78546 -10782771.63743  24326975.9384                   24326974.8164
 11  8 19 16 33  0.0000000  0 11G03G06G13G16G28G23G08G10G19G07G11
  -6164276.70747  -4796788.53945  21526747.6724                   21526745.2194
   3012642.10547   2350038.21144  23401689.4224                   23401686.8244
 -14935402.88748 -11627237.58646  20119735.7424                   20119731.8554
  20904381.04746  16281805.32044  23967155.1174                   23967151.9344
 -13778347.24846 -10720134.89743  24213999.0394                   24213998.4104
  -1122146.49648   -871661.17646  20923692.1884                   20923687.0634
 -15363800.08247 -11967475.78544  23623518.0944                   23623515.8874
  -6893961.92246  -5368532.93743  24108277.4774                   24108276.7544
 -19421053.71548 -15092410.46146  20993096.1024                   20993090.9964
 -16458950.13348 -12822109.26646  21789754.9144                   21789751.7894
 -13885732.46546 -10813162.44143  24319554.2194                   24319552.6174
 11  8 19 16 33 30.0000000  0 11G03G06G13G16G28G23G08G10G19G07G11
  -6061831.77747  -4716961.34845  21546242.0944                   21546239.9224
   3131564.44147   2442704.91444  23424319.2424                   23424316.9774
 -14878877.69948 -11583191.99246  20130492.3204                   20130488.4104
  21032378.27747  16381543.34843  23991511.8284                   23991508.6524
 -13805757.69946 -10741493.62143  24208783.6174                   24208781.9774
  -1011871.35948   -785732.53546  20944676.8524                   20944671.8404
 -15394729.12947 -11991576.31644  23617632.2894                   23617630.2584
  -6823785.23046  -5313849.83643  24121631.2194                   24121630.9264
 -19391351.22348 -15069265.65646  20998748.1564                   20998743.4384
 -16474170.52748 -12833969.28946  21786858.4304                   21786855.3014
 -13924873.50846 -10843661.87543  24312106.0704                   24312104.3404
 11  8 19 16 34  0.0000000  0 11G03G06G13G16G28G23G08G10G19G07G11
  -5958939.23047  -4636785.35245  21565822.1804                   21565819.5044
   3250773.02747   2535594.66844  23447003.8754                   23447002.0084
 -14821818.69148 -11538730.43446  20141349.8834                   20141346.3324
  21160271.53946  16481200.34443  24015848.6644                   24015845.9924
 -13833004.61746 -10762724.89843  24203598.7734                   24203597.4964
   -901186.67248   -699484.77346  20965739.2894                   20965734.0864
 -15425775.77747 -12015768.46944  23611724.7894                   23611722.1804
  -6753297.41846  -5258924.30543  24135044.8054                   24135044.0744
 -19361094.10948 -15045688.67646  21004505.7424                   21004501.3714
 -16489383.75848 -12845823.75046  21783963.6024                   21783960.3134
 -13964145.22346 -10874263.13743  24304632.2584                   24304631.2274
 11  8 19 16 34 30.0000000  0 11G03G06G13G16G28G23G08G10G19G07G11
  -5855604.80147  -4556265.05145  21585485.7344                   21585483.5864
   3370261.95346   2628702.85244  23469742.3524                   23469740.3794
 -14764229.39148 -11493855.66446  20152308.7504                   20152304.7194
  21288056.52746  16580773.02743  24040165.8204                   24040162.5594
 -13860091.25446 -10783831.30143  24198444.4454                   24198442.9494
   -790097.85548   -612922.11346  20986879.2114                   20986873.4224
 -15456943.10246 -12040054.63344  23605793.1024                   23605791.8054
  -6682504.17646  -5203760.75043  24148516.8834                   24148515.8164
 -19330285.54748 -15021681.99646  21010368.5084                   21010363.7114
 -16504592.37948 -12857674.61346  21781069.5944                   21781065.7974
 -14003548.21146 -10904966.69143  24297133.7584                   24297133.1214
 11  8 19 16 35  0.0000000  0 11G03G06G13G16G28G23G08G10G19G07G11
  -5751837.99647  -4475407.82445  21605232.0314                   21605229.3054
   3490021.63346   2722022.03144  23492531.9064                   23492529.3284
 -14706117.07048 -11448573.35246  20163367.4384                   20163363.1254
  21415724.68846  16680254.62943  24064459.9924                   24064457.0944
 -13887025.01646 -10804818.56243  24193318.8134                   24193317.8754
   -678614.12948   -526051.71946  21008093.6254                   21008088.8484
 -15488238.12147 -12064440.30544  23599837.7504                   23599836.7424
  -6611414.98046  -5148366.61744  24162044.2894                   24162044.2424
 -19298932.11748 -14997250.74246  21016334.8134                   21016329.3954
 -16519802.66848 -12869526.77746  21778175.2504                   21778171.8054
 -14043087.37546 -10935776.35543  24289609.5394                   24289609.2544
 11  8 19 16 35 30.0000000  0 11G03G06G13G16G28G23G08G10G19G07G11
  -5647630.94547  -4394207.55145  21625062.1024                   21625059.6524
   3610060.09847   2815558.44144  23515374.7344                   23515371.7664
 -14647471.56648 -11402875.56246  20174526.9774                   20174523.1454
  21543285.13346  16779652.30543  24088733.8914                   24088731.2734
 -13913795.16846 -10825678.37943  24188224.1724                   24188222.8164
   -566727.01248   -438867.01246  21029385.1884                   21029380.1764
 -15519649.70347 -12088916.83644  23593860.5314                   23593859.2734
  -6540021.44946  -5092735.32843  24175629.5634                   24175629.6294
 -19267022.78548 -14972386.33246  21022406.9304                   21022401.9264
 -16535002.83648 -12881371.07045  21775282.8284                   21775279.3674
 -14082749.45746 -10966681.77743  24282061.9144                   24282061.4844
 11  8 19 16 36  0.0000000  0 11G03G06G13G16G28G23G08G10G19G07G11
  -5542991.44548  -4312670.32445  21644974.3754                   21644972.0124
   3730369.46146   2909305.92244  23538268.8524                   23538266.2034
 -14588298.40248 -11356766.61746  20185787.2664                   20185783.7934
  21670731.15146  16878960.80043  24112986.2504                   24112983.4224
 -13940407.43446 -10846415.13343  24183160.9924                   24183158.5514
   -454443.94148   -351373.74646  21050752.4304                   21050746.9344
 -15551183.43047 -12113488.51644  23587859.6254                   23587857.8794
  -6468331.24246  -5036872.85543  24189272.0634                   24189271.7504
 -19234562.52048 -14947092.61346  21028583.8834                   21028579.0824
 -16550197.37548 -12893210.96545  21772391.2344                   21772387.9534
 -14122537.52746 -10997685.41443  24274491.1644                   24274490.0594
 11  8 19 16 36 30.0000000  0 11G03G06G13G16G28G23G08G10G19G07G11
  -5437922.23447  -4230798.23845  21664968.3134                   21664965.7814
   3850946.59446   3003262.06644  23561213.2814                   23561212.2854
 -14528598.04348 -11310246.87546  20197148.1884                   20197144.1374
  21798060.80146  16978178.62543  24137216.6484                   24137213.6604
 -13966861.81246 -10867028.88343  24178126.2814                   24178124.9344
   -341767.75048   -263574.16846  21072193.3834                   21072188.7934
 -15582839.35946 -12138155.42244  23581835.4774                   23581834.5634
  -6396347.45746  -4980781.64543  24202971.1484                   24202969.6994
 -19201551.44948 -14921369.69946  21034865.8054                   21034861.2384
 -16565385.89148 -12905046.16846  21769500.8524                   21769497.5274
 -14162449.41046 -11028785.50043  24266896.3134                   24266895.4774
 11  8 19 16 37  0.0000000  0 11G03G06G13G16G28G23G08G10G19G07G11
  -5332426.58648  -4148593.85945  21685043.7194                   21685040.8164
   3971788.02046   3097424.14144  23584208.8984                   23584207.0784
 -14468372.18748 -11263317.65646  20208608.6954                   20208605.1484
  21925271.79746  17077304.00443  24161424.0864                   24161421.2974
 -13993159.82846 -10887520.80943  24173121.7664                   24173120.0274
   -228701.86748   -175470.92246  21093709.4774                   21093704.5594
 -15614618.10646 -12162918.02844  23575788.5234                   23575786.9734
  -6324073.50846  -4924464.26243  24216723.4614                   24216722.8524
 -19167990.50447 -14895218.31246  21041252.1564                   21041247.5864
 -16580568.27748 -12916876.59446  21766611.7664                   21766608.6054
 -14202483.64546 -11059980.94943  24259278.5474                   24259277.6374
 11  8 19 16 37 30.0000000  0 11G03G06G13G16G28G23G08G10G19G07G11
  -5226507.29747  -4066059.37545  21705199.7194                   21705196.9384
   4092891.30146   3191790.30544  23607254.6644                   23607252.3284
 -14407620.77348 -11215978.90646  20220169.5164                   20220165.1294
  22052363.01646  17176336.06643  24185608.7274                   24185606.2734
 -14019301.14846 -10907890.59043  24168146.9844                   24168145.2704
   -115248.17248    -87065.49246  21115298.8914                   21115293.8554
 -15646518.95747 -12187775.76644  23569718.0704                   23569716.3054
  -6251511.30146  -4867922.35543  24230531.5234                   24230530.9264
 -19133878.95348 -14868637.87146  21047743.0474                   21047738.5274
 -16595743.42248 -12928701.37546  21763724.2274                   21763721.0084
 -14242637.48047 -11091269.57443  24251636.9454                   24251635.3984
 11  8 19 16 38  0.0000000  0 11G03G06G13G16G28G23G08G10G19G07G11
  -5120165.22347  -3983195.45345  21725435.3204                   21725432.9184
   4214255.46946   3286359.71544  23630349.1804                   23630347.7114
 -14346342.72748 -11168229.79746  20231830.1334                   20231826.3484
  22179335.07046  17275275.24243  24209772.2034                   24209767.3634
 -14045284.28946 -10928137.16043  24163202.9844                   24163202.3204
     -1407.01648      1641.85946  21136962.1644                   21136957.1724
 -15678540.32047 -12212727.43044  23563625.3134                   23563623.2934
  -6178661.78946  -4811156.54743  24244394.9064                   24244393.8554
 -19099215.33648 -14841627.25446  21054339.6334                   21054334.5314
 -16610908.33248 -12940518.21146  21760838.4224                   21760835.1804
 -14282906.83246 -11122648.27343  24243973.4304                   24243972.7304
 11  8 19 16 38 30.0000000  0 11G03G06G13G16G28G23G08G10G19G07G11
  -5013405.80647  -3900006.30645  21745751.4224                   21745748.2344
   4335875.08746   3381128.19944  23653492.2894                   23653491.3484
 -14284540.84148 -11120072.50346  20243590.7894                   20243586.8524
  22306183.33246  17374117.99943  24233908.8284                   24233906.4964
 -14071111.87546 -10948262.52643  24158287.9694                   24158286.4224
    112816.45148     90647.11146  21158698.1644                   21158693.5824
 -15710684.24847 -12237774.62144  23557508.0314                   23557505.4924
  -6105530.27546  -4754170.98543  24258311.6334                   24258309.9144
 -19064002.19348 -14814188.43946  21061040.2974                   21061035.5864
 -16626065.04548 -12952328.63346  21757954.0554                   21757950.6844
 -14323292.16047 -11154117.26643  24236288.9384                   24236287.6214
 11  8 19 16 39  0.0000000  0 11G03G06G13G16G28G23G08G10G19G07G11
  -4906223.59847  -3816487.74245  21766147.2274                   21766144.8204
   4457755.38747   3476099.80544  23676685.5234                   23676684.4104
 -14222208.16048 -11071501.59446  20255452.2664                   20255448.6294
  22432914.13346  17472869.21543  24258025.8054                   24258021.6414
 -14096776.45746 -10968260.83243  24153404.4304                   24153403.2624
    227427.54748    179954.41046  21180507.9454                   21180503.3524
 -15742943.03147 -12262911.29744  23551369.2034                   23551366.1334
  -6032111.21946  -4696961.32443  24272282.0944                   24272280.8714
 -19028231.09048 -14786314.85546  21067847.4224                   21067842.1604
 -16641204.95748 -12964125.96146  21755073.1334                   21755070.2894
 -14363782.77347 -11185668.37543  24228583.8134                   24228582.1954
 11  8 19 16 39 30.0000000  0 11G03G06G13G16G28G23G08G10G19G07G11
  -4798625.31647  -3732644.94545  21786622.5394                   21786619.8404
   4579890.10247   3571269.67244  23699927.0704                   23699925.3984
 -14159348.78548 -11022520.28946  20267413.8754                   20267410.4454
  22559522.53947  17571525.03143  24282118.5314                   24282115.3134
 -14122281.80946 -10988135.06643  24148550.7424                   24148548.9844
    342420.39548    269559.19146  21202390.2974                   21202385.6724
 -15775319.82847 -12288139.94544  23545207.8054                   23545205.1294
  -5958410.63346  -4639532.33643  24286306.9844                   24286306.3874
 -18991905.73848 -14758009.39846  21074759.8444                   21074755.1644
 -16656330.53548 -12975912.11346  21752194.6024                   21752191.6844
 -14404380.09447 -11217302.55943  24220858.3984                   24220856.3134
 11  8 19 16 40  0.0000000  0 11G03G06G13G16G28G23G08G10G19G07G11
  -4690612.01647  -3648478.77745  21807176.6174                   21807173.7774
   4702277.73447   3666636.61344  23723217.3594                   23723215.3014
 -14095961.99648 -10973128.00446  20279475.9844                   20279472.2934
  22686008.69146  17670085.59443  24306188.0864                   24306185.0394
 -14147626.70346 -11007884.27343  24143728.1024                   24143726.1024
    457794.05148    359460.69546  21224345.5944                   21224340.6604
 -15807813.00447 -12313459.28944  23539024.4454                   23539022.4924
  -5884430.22347  -4581885.32043  24300385.4614                   24300384.4144
 -18955024.98447 -14729271.15246  21081778.0234                   21081773.2344
 -16671439.28948 -12987685.15246  21749319.7274                   21749316.2704
 -14445080.43047 -11249017.03943  24213113.1644                   24213110.8594
 11  8 19 16 40 30.0000000  0 11G03G06G13G16G28G23G08G10G19G07G11
  -6157603.80947  -4791589.28545  21528017.6094                   21528014.9884
   3249498.68747   2534600.94544  23446762.8134                   23446760.7544
 -15607467.34048 -12150924.39546  19991845.9614                   19991842.1764
  21236954.23446  16540952.15643  24030442.3914                   24030439.6454
 -15748233.68446 -12255110.39843  23839141.6804                   23839140.5084
  -1001871.43848   -777941.03546  20946580.4534                   20946575.4654
 -17415844.78147 -13566471.03544  23233025.8204                   23233025.0944
  -7385591.09047  -5751621.10243  24014723.7194                   24014722.8674
 -20493008.69947 -15927700.03946  20789109.4304                   20789104.5164
 -18261952.24648 -14227045.87146  21446654.9614                   21446651.5904
 -16061303.30547 -12508411.43443  23905555.8834                   23905554.5354
 11  8 19 16 41  0.0000000  0 11G03G06G13G16G28G23G08G10G19G07G11
  -6048766.26647  -4706780.84045  21548728.8594                   21548726.0124
   3372386.64546   2630357.73044  23470147.2734                   23470145.8484
 -15543025.13748 -12100709.71146  20004109.2344                   20004105.1884
  21363193.88346  16639320.63743  24054464.8444                   24054462.2624
 -15773256.19146 -12274608.37143  23834380.7114                   23834379.5704
   -885741.62948   -687450.32846  20968679.3444                   20968674.2854
 -17448567.91447 -13591969.55544  23226799.2424                   23226797.5474
  -7311055.88346  -5693541.75443  24028907.4454                   24028907.0234
 -20455014.69948 -15898094.34446  20796339.5394                   20796334.9224
 -18277022.83648 -14238789.15646  21443787.5474                   21443784.3914
 -16102199.18847 -12540278.32443  23897773.9454                   23897772.6214
 11  8 19 16 41 30.0000000  0 11G03G06G13G16G28G23G08G10G19G07G11
  -5939514.87947  -4621649.91445  21569518.5084                   21569515.9064
   3495526.49246   2726310.80144  23493579.6724                   23493578.2854
 -15478050.21548 -12050079.92646  20016473.3594                   20016469.6724
  21489314.24646  16737596.15644  24078465.3284                   24078461.4614
 -15798111.84846 -12293976.34244  23829650.8834                   23829649.7854
   -769231.28948   -596663.10246  20990850.3984                   20990845.8284
 -17481399.26647 -13617552.37544  23220551.4774                   23220550.2894
  -7236240.99646  -5635244.48043  24043144.0554                   24043143.8754
 -20416458.11348 -15868050.25446  20803676.4924                   20803671.4694
 -18292066.62948 -14250511.57446  21440924.4844                   21440921.1454
 -16143183.48046 -12572214.05543  23889974.7424                   23889973.6214
 11  8 19 16 42  0.0000000  0 11G03G06G13G16G28G23G08G10G19G07G11
  -5829853.04347  -4536199.17645  21590386.5474                   21590383.8914
   3618914.59446   2822457.33244  23517059.5474                   23517057.3594
 -15412544.25448 -11999036.34046  20028938.8754                   20028935.1294
  21615312.87946  16835776.85243  24102442.1174                   24102439.0554
 -15822802.00847 -12313215.35944  23824952.7584                   23824950.7344
   -652343.98048   -505582.12546  21013093.6724                   21013088.5514
 -17514339.75847 -13643220.27744  23214283.0784                   23214281.1684
  -7161150.34047  -5576732.32844  24057433.1884                   24057433.3444
 -20377340.12948 -15837568.71946  20811120.6724                   20811115.7074
 -18307083.77048 -14262213.21546  21438066.5944                   21438063.2234
 -16184254.71146 -12604217.54743  23882158.5394                   23882157.3054
 11  8 19 16 42 30.0000000  0 11G03G06G13G16G28G23G08G10G19G07G11
  -5719789.30147  -4450435.25445  21611331.4924                   21611329.3284
   3742543.03546   2918791.13143  23540585.3364                   23540583.7854
 -15346513.15648 -11947583.55546  20041504.2034                   20041500.3714
  21741182.98846  16933857.41443  24126393.6024                   24126391.2664
 -15847332.31346 -12332329.80543  23820284.9614                   23820282.5164
   -535087.75048   -414213.69146  21035406.4384                   21035402.0824
 -17547394.32447 -13668977.07044  23207993.9144                   23207991.4144
  -7085791.75847  -5518011.39843  24071774.2974                   24071773.1484
 -20337666.54348 -15806654.25046  20818670.5084                   20818665.5984
 -18322078.58048 -14273897.46946  21435214.0004                   21435209.8444
 -16225415.78546 -12636290.99243  23874325.3444                   23874325.1174
 11  8 19 16 43  0.0000000  0 11G03G06G13G16G28G23G08G10G19G07G11
  -5609318.28147  -4364353.97745  21632352.9844                   21632350.1334
   3866416.63346   3015315.98443  23564157.1724                   23564156.3204
 -15279950.10248 -11895716.26246  20054170.6414                   20054167.1484
  21866930.95746  17031842.78943  24150322.3444                   24150320.0704
 -15871695.37947 -12351313.94544  23815647.5474                   23815645.9304
   -417456.98448   -322553.39846  21057790.7424                   21057786.5044
 -17580555.34847 -13694816.78944  23201683.1174                   23201680.4224
  -7010160.18446  -5459077.75043  24086165.8914                   24086165.4694
 -20297429.46148 -15775300.69146  20826327.3204                   20826322.0434
 -18337042.39148 -14285557.56346  21432365.8204                   21432362.2934
 -16266656.18446 -12668426.31343  23866477.0554                   23866477.4344
 11  8 19 16 43 30.0000000  0 11G03G06G13G16G28G23G08G10G19G07G11
  -5498440.73848  -4277955.91045  21653452.4384                   21653449.5904
   3990535.14146   3112031.67643  23587776.8524                   23587775.2894
 -15212853.32848 -11843433.09046  20066938.9304                   20066934.7734
  21992558.15946  17129734.07343  24174229.0314                   24174226.9024
 -15895888.71147 -12370165.80143  23811044.9384                   23811042.0784
   -299451.44548   -230601.07046  21080246.2894                   21080241.5554
 -17613819.39847 -13720736.78144  23195353.0944                   23195351.1414
  -6934255.74246  -5399931.48043  24100610.3754                   24100610.1454
 -20256626.38348 -15743506.08646  20834091.5314                   20834086.8444
 -18351971.71948 -14297190.77046  21429525.0554                   21429521.5274
 -16307970.89846 -12700619.48043  23858615.9304                   23858615.0744
 11  8 19 16 44  0.0000000  0 11G03G06G13G16G28G23G08G10G19G07G11
  -5387155.84448  -4191240.44545  21674629.6564                   21674626.5204
   4114899.57446   3208938.92643  23611442.9064                   23611441.1884
 -15145220.02748 -11790731.84046  20079808.8204                   20079805.1884
  22118066.67246  17227532.84043  24198112.4774                   24198109.7664
 -15919909.03147 -12388882.85243  23806473.4384                   23806471.4574
   -181070.64148   -138356.34846  21102773.9694                   21102768.8134
 -17647183.01647 -13746734.36744  23189004.3674                   23189001.8484
  -6858077.58646  -5340571.91043  24115106.3364                   24115106.0864
 -20215254.17648 -15711268.02046  20841964.3444                   20841959.5704
 -18366861.77048 -14308793.37546  21426691.2194                   21426688.2034
 -16349354.05146 -12732866.00843  23850740.1804                   23850739.7734
 11  8 19 16 44 30.0000000  0 11G03G06G13G16G28G23G08G10G19G07G11
  -5275468.74248  -4104211.57445  21695883.1804                   21695879.6254
   4239504.59446   3306033.69943  23635154.2814                   23635152.6564
 -15077053.67248 -11737615.22346  20092780.4224                   20092776.8284
  22243452.68746  17325236.09843  24221972.9614                   24221970.4184
 -15943759.48447 -12407467.53144  23801934.8054                   23801933.2074
    -62319.32848    -45822.90645  21125371.2034                   21125366.8794
 -17680648.21147 -13772811.10244  23182635.3984                   23182634.0274
  -6781630.93446  -5281003.16443  24129653.7584                   24129653.1214
 -20173315.35248 -15678588.42246  20849945.2114                   20849940.0004
 -18381714.01648 -14320366.52046  21423864.8914                   21423861.7774
 -16390805.54746 -12765165.78943  23842853.2894                   23842852.3984
 11  8 19 16 45  0.0000000  0 11G03G06G13G16G28G23G08G10G19G07G11
  -5163388.71048  -4016876.52945  21717211.2034                   21717208.3364
   4364341.13446   3403308.89043  23658910.5394                   23658908.4104
 -15008361.25448 -11684088.68646  20105852.1804                   20105848.7114
  22368708.94946  17422838.26643  24245808.6024                   24245806.0944
 -15967446.42247 -12425924.80843  23797427.1414                   23797425.1884
     56793.30448     46992.07845  21148037.7894                   21148033.1484
 -17714221.10547 -13798971.79244  23176247.1174                   23176244.8444
  -6704924.53146  -5221231.97343  24144250.5394                   24144249.7194
 -20130816.81547 -15645472.68646  20858032.5554                   20858027.1174
 -18396533.84248 -14331914.41646  21421045.0084                   21421041.3204
 -16432328.99547 -12797521.65843  23834952.1564                   23834950.1094
 11  8 19 16 45 30.0000000  0 11G03G06G13G16G28G23G08G10G19G07G11
  -5050906.14647  -3929227.80145  21738615.2894                   21738612.8524
   4489418.48146   3500771.74543  23682711.5944                   23682709.0554
 -14939131.58448 -11630143.50046  20119026.2034                   20119022.5434
  22493845.90246  17520347.50443  24269620.9384                   24269619.5554
 -15990958.18147 -12444245.61743  23792953.4064                   23792950.7114
    176277.10448    140096.29045  21170774.7894                   21170769.9184
 -17747889.41247 -13825206.78044  23169840.0084                   23169838.3244
  -6627949.37846  -5161251.39643  24158897.9774                   24158897.6764
 -20087746.77148 -15611911.61446  20866228.7194                   20866223.3874
 -18411308.27548 -14343426.95146  21418233.2894                   21418229.5944
 -16473909.99847 -12829922.39044  23827039.4924                   23827037.4144
 11  8 19 16 46  0.0000000  0 11G03G06G13G16G28G23G08G10G19G07G11
  -4938018.73447  -3841263.61745  21760097.3054                   21760095.2734
   4614739.63746   3598424.52743  23706559.5474                   23706557.3164
 -14869359.87948 -11575775.96546  20132303.5164                   20132299.6764
  22618867.99246  17617767.23843  24293412.3134                   24293410.3244
 -16014289.67247 -12462425.94944  23788513.0784                   23788510.8524
    296134.95748    233491.96145  21193582.9774                   21193578.0474
 -17781646.30147 -13851510.80944  23163416.0864                   23163414.5984
  -6550702.30946  -5101058.94543  24173597.8444                   24173597.6994
 -20044099.82448 -15577901.00046  20874534.2584                   20874529.6294
 -18426030.52348 -14354898.82046  21415431.7974                   21415428.6724
 -16515540.32847 -12862361.54744  23819116.7664                   23819114.8014
 11  8 19 16 46 30.0000000  0 11G03G06G13G16G28G23G08G10G19G07G11
  -4824744.02748  -3752997.65245  21781653.1884                   21781649.8014
   4740286.76246   3696253.39144  23730450.5554                   23730447.9534
 -14799062.37548 -11520998.69546  20145680.5864                   20145677.1954
  22743758.81646  17715084.66443  24317178.2344                   24317176.3954
 -16037455.92247 -12480477.50444  23784105.0554                   23784102.4964
    416349.31648    327165.42645  21216459.2504                   21216454.2074
 -17815506.82847 -13877895.57844  23156971.9454                   23156971.0514
  -6473200.99246  -5040668.33643  24188345.9614                   24188345.2704
 -19999891.34848 -15543452.83246  20882946.7814                   20882941.7814
 -18440714.42248 -14366340.80946  21412637.2974                   21412634.6804
 -16557232.27047 -12894848.71944  23811183.2194                   23811181.7424
 11  8 19 16 47  0.0000000  0 11G03G06G13G16G28G23G08G10G19G07G11
  -4711079.92647  -3664428.25045  21803282.6334                   21803280.3324
   4866062.07046   3794260.11343  23754384.3524                   23754382.3404
 -14728234.89848 -11465808.46946  20159158.7114                   20159154.8634
  22868522.05146  17812302.65643  24340919.9224                   24340918.2424
 -16060452.23846 -12498396.63744  23779728.8134                   23779726.6454
    536922.70348    421118.66445  21239403.4064                   21239398.6094
 -17849465.80547 -13904357.10544  23150510.3054                   23150508.4064
  -6395443.00046  -4980077.76643  24203143.4614                   24203141.9654
 -19955116.55548 -15508563.38346  20891467.0164                   20891462.2074
 -18455353.72348 -14377748.04346  21409851.6644                   21409848.2424
 -16598978.41047 -12927378.11744  23803239.6884                   23803238.5474
 11  8 19 16 47 30.0000000  0 11G03G06G13G16G28G23G08G10G19G07G11
  -4597024.07447  -3575553.58244  21824986.1174                   21824983.3794
   4992068.39146   3892446.79543  23778362.4844                   23778360.5594
 -14656872.91048 -11410201.73446  20172738.3524                   20172734.8554
  22993161.87146  17909424.53543  24364638.1644                   24364635.6524
 -16083273.82847 -12516179.61943  23775385.7584                   23775383.8484
    657857.99248    515353.89545  21262416.9224                   21262411.4574
 -17883517.23447 -13930890.64844  23144030.9694                   23144029.2664
  -6317425.48446  -4919284.93043  24217987.9064                   24217988.6724
 -19909770.64548 -15473228.90246  20900096.0944                   20900091.1454
 -18469942.07048 -14389115.58246  21407076.0784                   21407072.5204
 -16640770.41447 -12959943.30943  23795286.9064                   23795284.7194
 11  8 19 16 48  0.0000000  0 11G03G06G13G16G28G23G08G10G19G07G11
  -4482583.23847  -3486378.94945  21846764.0634                   21846761.2384
   5118298.60546   3990807.97343  23802383.9614                   23802381.3714
 -14584981.46548 -11354182.44546  20186418.7034                   20186415.1294
  23117673.14546  18006446.22743  24388332.0394                   24388329.5084
 -16105925.03547 -12533829.86743  23771075.2734                   23771073.2854
    779148.07848    609865.60245  21285497.7034                   21285492.7854
 -17917664.84447 -13957499.14544  23137532.3444                   23137530.6174
  -6239155.68046  -4858295.53543  24232883.3134                   24232882.5904
 -19863858.40648 -15437453.12146  20908832.7504                   20908827.5824
 -18484482.69947 -14400445.93446  21404308.8754                   21404305.3874
 -16682610.63347 -12992546.05943  23787324.4304                   23787323.1334
 11  8 19 16 48 30.0000000  0 11G03G06G13G16G28G23G08G10G19G07G11
  -4367750.50047  -3396898.93045  21868616.1484                   21868613.5984
   5244760.40347   4089349.55644  23826449.1254                   23826446.7664
 -14512551.10548 -11297743.23046  20200201.9064                   20200198.1724
  23242064.89546  18103374.80543  24412003.2734                   24412000.1524
 -16128396.27747 -12551339.87943  23766798.6724                   23766797.4534
    900800.66848    704659.77345  21308647.7424                   21308642.6914
 -17951898.09047 -13984174.37944  23131018.4774                   23131016.3714
  -6160625.89146  -4797103.58643  24247827.7114                   24247826.8984
 -19817369.84048 -15401228.26246  20917679.7814                   20917674.5084
 -18498964.31347 -14411730.31346  21401552.8834                   21401549.5864
 -16724486.00046 -13025176.21943  23779355.7034                   23779353.7584
 11  8 19 16 49  0.0000000  0 11G03G06G13G16G28G23G08G10G19G07G11
  -4252531.77647  -3307118.13144  21890541.4454                   21890539.0204
   5371447.28147   4188066.55544  23850556.9384                   23850554.3984
 -14439586.78148 -11240887.92046  20214086.7584                   20214082.9804
  23366332.43547  18200206.56543  24435650.9454                   24435648.2234
 -16150691.16046 -12568712.46243  23762556.1334                   23762554.8834
   1022809.53548    799731.56645  21331865.1644                   21331860.6524
 -17986219.74647 -14010918.46944  23124487.3284                   23124485.6174
  -6081842.56946  -4735714.02843  24262818.8914                   24262818.8244
 -19770308.60048 -15364557.16446  20926634.6174                   20926630.2624
 -18513389.06347 -14422970.36346  21398808.0164                   21398804.8554
 -16766397.37746 -13057834.40843  23771380.2664                   23771377.5084
 11  8 19 16 49 30.0000000  0 11G03G06G13G16G28G23G08G10G19G07G11
  -4136926.90247  -3217036.44945  21912540.2504                   21912537.2854
   5498360.21147   4286959.69543  23874707.2664                   23874704.5634
 -14366086.20748 -11183614.76646  20228073.5164                   20228069.6414
  23490477.80947  18296943.15643  24459274.5944                   24459271.6054
 -16172806.75446 -12585945.32844  23758347.3364                   23758346.2034
   1145175.50048    895081.62145  21355150.3284                   21355145.3524
 -18020626.05947 -14037728.53944  23117939.6804                   23117937.8404
  -6002805.22746  -4674126.54343  24277859.5234                   24277858.9774
 -19722672.49648 -15327438.13346  20935699.5864                   20935695.2504
 -18527752.24247 -14434162.45346  21396074.7894                   21396071.1914
 -16808338.47347 -13090515.77043  23763399.3054                   23763396.8594
 11  8 19 16 50  0.0000000  0 11G03G06G13G16G28G23G08G10G19G07G11
  -4020942.35747  -3126658.91544  21934611.3444                   21934608.6524
   5625492.18746   4386023.52743  23898899.4384                   23898897.6844
 -14292054.29348 -11125927.58846  20242160.8284                   20242157.3674
  23614496.34046  18393580.95743  24482873.9614                   24482871.3714
 -16194747.53047 -12603041.96244  23754172.2814                   23754170.9574
   1267891.89348    990704.73445  21378502.4224                   21378498.0394
 -18055120.85347 -14064607.55244  23111375.3364                   23111373.1564
  -5923520.44946  -4612346.27343  24292946.7664                   24292946.7974
 -19674465.49948 -15289874.23746  20944873.1724                   20944868.3484
 -18542057.04247 -14445309.04346  21393352.7584                   21393348.9774
 -16850310.83046 -13123221.50943  23755412.2664                   23755409.8444
 11  8 19 16 50 30.0000000  0 11G03G06G13G16G28G23G08G10G19G07G11
  -3904576.13747  -3035983.97344  21956754.8204                   21956752.3364
   5752845.72346   4485259.99243  23923134.4454                   23923131.8714
 -14217487.10248 -11067823.30146  20256350.6954                   20256347.4614
  23738391.43446  18490122.55543  24506451.1954                   24506449.0164
 -16216508.60247 -12619998.56343  23750031.1334                   23750030.0984
   1390961.39548   1086603.00045  21401922.0164                   21401917.0164
 -18089698.11747 -14091550.84844  23104795.5474                   23104793.6484
  -5843985.60946  -4550371.12943  24308082.7034                   24308081.2584
 -19625683.42248 -15251862.22346  20954156.2424                   20954151.0394
 -18556296.96548 -14456405.09046  21390642.7504                   21390638.9454
 -16892306.77747 -13155945.62543  23747420.8594                   23747418.4844
 11  8 19 16 51  0.0000000  0 11G03G06G13G16G28G23G08G10G19G07G11
  -3787831.69147  -2945014.32045  21978970.8984                   21978968.7464
   5880417.78546   4584666.75843  23947410.3914                   23947408.2894
 -14142385.48448 -11009302.58246  20270641.9224                   20270638.0634
  23862161.52046  18586566.76243  24530004.3754                   24530001.4844
 -16238090.43846 -12636815.53143  23745924.1094                   23745922.4574
   1514380.59048   1182773.74245  21425408.3134                   21425402.4654
 -18124357.86747 -14118558.39844  23098200.0394                   23098198.4184
  -5764203.65246  -4488203.39143  24323264.8984                   24323262.7384
 -19576327.16048 -15213402.81646  20963548.4614                   20963543.1524
 -18570471.14148 -14467449.91046  21387945.6414                   21387941.9534
 -16934323.65646 -13188686.02043  23739424.5554                   23739423.0314
 11  8 19 16 51 30.0000000  0 11G03G06G13G16G28G23G08G10G19G07G11
  -3670707.03547  -2853748.37945  22001259.3364                   22001256.1174
   6008210.35246   4684245.30143  23971728.3054                   23971726.0204
 -14066746.84048 -10950363.40646  20285035.8754                   20285032.1764
  23985810.84046  18682916.79342  24553533.5004                   24553530.4694
 -16259489.38746 -12653489.95743  23741851.8054                   23741850.8444
   1638151.54348   1279218.59045  21448961.0004                   21448955.7894
 -18159094.73447 -14145626.05144  23091590.0164                   23091588.1134
  -5684172.80947  -4425841.71943  24338493.7504                   24338491.7274
 -19526392.32848 -15174492.57046  20973050.7194                   20973045.2624
 -18584573.62148 -14478438.85246  21385261.9614                   21385258.6994
 -16976354.44546 -13221437.29343  23731427.0164                   23731425.3364
 11  8 19 16 52  0.0000000  0 11G03G06G13G16G28G23G08G10G19G07G11
  -3553208.87147  -2762191.42244  22023618.0554                   22023615.5474
   6136216.87546   4783990.60243  23996086.4304                   23996085.0204
 -13990575.96948 -10891009.50846  20299530.9064                   20299526.9534
  24109333.80546  18779168.34442  24577038.4694                   24577036.1844
 -16280709.40247 -12670024.98443  23737814.2504                   23737812.7464
   1762268.09448   1375932.73445  21472579.6484                   21472574.6254
 -18193911.96947 -14172756.34044  23084964.2734                   23084962.4574
  -5603899.79747  -4363291.37943  24353768.7814                   24353767.8794
 -19475883.41848 -15135134.96946  20982661.9614                   20982657.4654
 -18598607.30948 -14489374.18046  21382591.5004                   21382588.2734
 -17018400.28146 -13254200.26244  23723425.5084                   23723424.6054
 11  8 19 16 52 30.0000000  0 11G03G06G13G16G28G23G08G10G19G07G11
  -3435330.21547  -2670337.94945  22046049.6884                   22046047.7974
   6264444.44546   4883908.12943  24020487.9774                   24020486.7424
 -13913863.87148 -10831233.86746  20314128.3284                   20314125.1724
  24232739.50046  18875328.53143  24600522.9064                   24600519.5274
 -16301740.83146 -12686413.04943  23733811.8444                   23733810.4654
   1886737.28148   1472921.66445  21496264.9534                   21496260.4224
 -18228799.19947 -14199941.18044  23078325.3834                   23078323.0434
  -5523377.53146  -4300546.82043  24369092.3364                   24369090.8674
 -19424791.37548 -15095322.96946  20992384.5164                   20992379.4964
 -18612561.11348 -14500247.27046  21379936.4694                   21379932.8484
 -17060448.32846 -13286964.96543  23715424.8984                   23715422.8404
 11  8 19 16 53  0.0000000  0 11G03G06G13G16G28G23G08G10G19G07G11
  -3317081.49647  -2578196.12244  22068551.5704                   22068549.7704
   6392883.01646   4983990.09043  24044929.6484                   24044927.8094
 -13836619.12948 -10771043.18446  20328827.7664                   20328824.2194
  24356019.57446  18971390.83243  24623982.1954                   24623979.6094
 -16322591.46546 -12702660.23044  23729844.1334                   23729842.4064
   2011548.94448   1570177.44745  21520016.3134                   21520011.8834
 -18263763.32047 -14227185.92244  23071672.6174                   23071669.7464
  -5442616.18046  -4237615.91043  24384461.2504                   24384459.0704
 -19373124.18848 -15055062.83246  21002216.5784                   21002211.1054
 -18626440.71948 -14511062.53946  21377295.1094                   21377291.1564
 -17102503.27346 -13319735.02043  23707421.2894                   23707419.5274
